[[{"header":{"parameterUnit":"m.s-1","parameterCategory":1,"la1":30.6,"la2":29.2853,"lo1":-89.7004,"lo2":-87.6739,"dy":0.0162,"dx":0.0183,"nx":112,"ny":82,"refTime":"2024-02-21T06:00:00:Z","depth":0,"parameterNumber":2,"parameterNumberName":"U-component_of_WINDS"},"data":[0.0,0.0,0.0,0.0,0.0,0.0,0.0,0.0,0.0,0.0,0.0,0.0,0.0,0.0,0.0,0.0,0.0,0.0,0.0,0.0,0.0,0.0,0.0,0.0,0.0,0.0,0.0,0.0,0.0,0.0,0.0,0.0,0.0,0.0,0.0,0.0,0.0,0.0,0.0,0.0,0.0,0.0,0.0,0.0,0.0,0.0,0.0,0.0,0.0,0.0,0.0,0.0,0.0,0.0,0.0,0.0,0.0,0.0,0.0,0.0,0.0,0.0,0.0,0.0,0.0,0.0,0.0,0.0,0.0,0.0,0.0,0.0,0.0,0.0,0.0,0.0,0.0,0.0,0.0,0.0,0.0,0.0,0.0,0.0,0.0,0.0,0.0,0.0,0.0,0.0,-6.0267,-6.0464,-6.1019,-6.1351,-6.1317,-6.1289,-6.0592,-5.8953,0.0,0.0,0.0,0.0,0.0,0.0,0.0,0.0,0.0,0.0,0.0,0.0,0.0,0.0,0.0,0.0,0.0,0.0,0.0,0.0,0.0,0.0,0.0,0.0,0.0,0.0,0.0,0.0,0.0,0.0,0.0,0.0,0.0,0.0,0.0,0.0,0.0,0.0,0.0,0.0,0.0,0.0,0.0,0.0,0.0,0.0,0.0,0.0,0.0,0.0,0.0,0.0,0.0,0.0,0.0,0.0,0.0,0.0,0.0,0.0,0.0,0.0,0.0,0.0,0.0,0.0,0.0,0.0,0.0,0.0,0.0,0.0,0.0,0.0,0.0,0.0,0.0,0.0,0.0,0.0,0.0,0.0,0.0,0.0,0.0,0.0,0.0,0.0,0.0,0.0,0.0,0.0,0.0,0.0,0.0,0.0,0.0,0.0,0.0,0.0,0.0,0.0,0.0,0.0,-5.9719,-6.1093,-6.1262,-6.1291,-6.131,-6.122,-6.0459,-5.8823,0.0,0.0,0.0,0.0,0.0,0.0,0.0,0.0,0.0,0.0,0.0,0.0,0.0,0.0,0.0,0.0,0.0,0.0,0.0,0.0,0.0,0.0,0.0,0.0,0.0,0.0,0.0,0.0,0.0,0.0,0.0,0.0,0.0,0.0,0.0,0.0,0.0,0.0,0.0,0.0,0.0,0.0,0.0,0.0,0.0,0.0,0.0,0.0,0.0,0.0,0.0,0.0,0.0,0.0,0.0,0.0,0.0,0.0,0.0,0.0,0.0,0.0,0.0,0.0,0.0,0.0,0.0,0.0,0.0,0.0,0.0,0.0,0.0,0.0,0.0,0.0,0.0,0.0,0.0,0.0,0.0,0.0,0.0,0.0,0.0,0.0,0.0,0.0,0.0,0.0,0.0,0.0,0.0,0.0,0.0,0.0,0.0,0.0,0.0,0.0,0.0,0.0,0.0,-5.9114,-6.0032,-6.1217,-6.1235,-6.1173,-6.1173,-6.1134,-6.0416,-5.8796,-5.8745,0.0,0.0,0.0,0.0,0.0,0.0,0.0,0.0,0.0,0.0,0.0,0.0,0.0,0.0,0.0,0.0,0.0,0.0,0.0,0.0,0.0,0.0,0.0,0.0,0.0,0.0,0.0,0.0,0.0,0.0,0.0,0.0,0.0,0.0,0.0,0.0,0.0,0.0,0.0,0.0,0.0,0.0,0.0,0.0,0.0,0.0,0.0,0.0,0.0,0.0,0.0,0.0,0.0,0.0,0.0,0.0,0.0,0.0,0.0,0.0,0.0,0.0,0.0,0.0,0.0,0.0,0.0,0.0,0.0,0.0,0.0,0.0,0.0,0.0,0.0,0.0,0.0,0.0,0.0,0.0,0.0,0.0,0.0,0.0,0.0,0.0,0.0,0.0,0.0,0.0,0.0,0.0,0.0,0.0,0.0,0.0,0.0,0.0,0.0,0.0,0.0,0.0,-5.9776,-6.0592,-6.1182,-6.1169,-6.1118,-6.1118,-6.0925,-6.0205,-5.8784,-5.8481,0.0,0.0,0.0,0.0,0.0,0.0,0.0,0.0,0.0,0.0,0.0,0.0,0.0,0.0,0.0,0.0,0.0,0.0,0.0,0.0,0.0,0.0,0.0,0.0,0.0,0.0,0.0,0.0,0.0,0.0,0.0,0.0,0.0,0.0,0.0,0.0,0.0,0.0,0.0,0.0,0.0,0.0,0.0,0.0,0.0,0.0,0.0,0.0,0.0,0.0,0.0,0.0,0.0,0.0,0.0,0.0,0.0,0.0,0.0,0.0,0.0,0.0,0.0,0.0,0.0,0.0,0.0,0.0,0.0,0.0,0.0,0.0,0.0,0.0,0.0,0.0,0.0,0.0,0.0,0.0,0.0,0.0,0.0,0.0,0.0,0.0,0.0,0.0,0.0,0.0,0.0,0.0,0.0,0.0,0.0,0.0,0.0,0.0,0.0,0.0,0.0,0.0,-6.0148,-6.1039,-6.1098,-6.1127,-6.1118,-6.1118,-6.0422,-5.958,-5.8669,-5.7848,0.0,0.0,0.0,0.0,0.0,0.0,0.0,0.0,0.0,0.0,0.0,0.0,0.0,0.0,0.0,0.0,0.0,0.0,0.0,0.0,0.0,0.0,0.0,0.0,0.0,0.0,0.0,0.0,0.0,0.0,0.0,0.0,0.0,0.0,0.0,0.0,0.0,0.0,0.0,0.0,0.0,0.0,0.0,0.0,0.0,0.0,0.0,0.0,0.0,0.0,0.0,0.0,0.0,0.0,0.0,0.0,0.0,0.0,0.0,0.0,0.0,0.0,0.0,0.0,0.0,0.0,0.0,0.0,0.0,0.0,0.0,0.0,0.0,0.0,0.0,0.0,0.0,0.0,0.0,0.0,0.0,0.0,0.0,0.0,0.0,0.0,0.0,0.0,0.0,0.0,0.0,0.0,0.0,0.0,0.0,0.0,0.0,0.0,0.0,0.0,0.0,0.0,-5.9776,-6.0583,-6.105,-6.1118,-6.1118,-6.1118,-6.0809,-6.0074,-5.869,0.0,0.0,0.0,0.0,0.0,0.0,0.0,0.0,0.0,0.0,0.0,0.0,0.0,0.0,0.0,0.0,0.0,0.0,0.0,0.0,0.0,0.0,0.0,0.0,0.0,0.0,0.0,0.0,0.0,0.0,0.0,0.0,0.0,0.0,0.0,0.0,0.0,0.0,0.0,0.0,0.0,0.0,0.0,0.0,0.0,0.0,0.0,0.0,0.0,0.0,0.0,0.0,0.0,0.0,0.0,0.0,0.0,0.0,0.0,0.0,0.0,0.0,0.0,0.0,0.0,0.0,0.0,0.0,0.0,0.0,0.0,0.0,0.0,0.0,0.0,0.0,0.0,0.0,0.0,0.0,0.0,0.0,0.0,0.0,0.0,0.0,0.0,0.0,0.0,0.0,0.0,0.0,0.0,0.0,0.0,0.0,0.0,0.0,0.0,0.0,0.0,0.0,-5.8836,-5.9743,-6.0553,-6.105,-6.1118,-6.1118,-6.1118,-6.0886,-6.0112,-5.869,0.0,0.0,0.0,0.0,0.0,0.0,0.0,0.0,0.0,0.0,0.0,0.0,0.0,0.0,0.0,0.0,0.0,0.0,0.0,0.0,0.0,0.0,0.0,0.0,0.0,0.0,0.0,0.0,0.0,0.0,0.0,0.0,0.0,0.0,0.0,0.0,0.0,0.0,0.0,0.0,0.0,0.0,0.0,0.0,0.0,0.0,0.0,0.0,0.0,0.0,0.0,0.0,0.0,0.0,0.0,0.0,0.0,0.0,0.0,0.0,0.0,0.0,0.0,0.0,0.0,0.0,0.0,0.0,0.0,0.0,0.0,0.0,0.0,0.0,0.0,0.0,0.0,0.0,0.0,0.0,0.0,0.0,0.0,0.0,0.0,0.0,0.0,0.0,0.0,0.0,0.0,0.0,0.0,0.0,0.0,0.0,0.0,0.0,0.0,0.0,0.0,0.0,-5.8905,-6.0204,-6.1118,-6.1118,-6.1118,-6.1118,-6.1118,-6.0383,-5.9532,0.0,0.0,0.0,0.0,0.0,0.0,0.0,0.0,0.0,0.0,0.0,0.0,0.0,0.0,0.0,0.0,0.0,0.0,0.0,0.0,0.0,0.0,0.0,0.0,0.0,0.0,0.0,0.0,0.0,0.0,0.0,0.0,0.0,0.0,0.0,0.0,0.0,0.0,0.0,0.0,0.0,0.0,0.0,0.0,0.0,0.0,0.0,0.0,0.0,0.0,0.0,0.0,0.0,0.0,0.0,0.0,0.0,0.0,0.0,0.0,0.0,0.0,0.0,0.0,0.0,0.0,0.0,0.0,0.0,0.0,0.0,0.0,0.0,0.0,0.0,0.0,0.0,0.0,0.0,0.0,0.0,0.0,0.0,0.0,0.0,0.0,0.0,0.0,0.0,0.0,0.0,0.0,0.0,0.0,0.0,0.0,0.0,0.0,0.0,0.0,0.0,0.0,0.0,-5.8905,-6.0204,-6.1118,-6.1118,-6.1118,-6.1118,-6.1118,-6.0886,-6.0112,-5.869,0.0,0.0,0.0,0.0,0.0,0.0,0.0,0.0,0.0,0.0,0.0,0.0,0.0,0.0,0.0,0.0,0.0,0.0,0.0,0.0,0.0,0.0,0.0,0.0,0.0,0.0,0.0,0.0,0.0,0.0,0.0,0.0,0.0,0.0,0.0,0.0,0.0,0.0,0.0,0.0,0.0,0.0,0.0,0.0,0.0,0.0,0.0,0.0,0.0,0.0,0.0,0.0,0.0,0.0,0.0,0.0,0.0,0.0,0.0,0.0,0.0,0.0,0.0,0.0,0.0,0.0,0.0,0.0,0.0,0.0,0.0,0.0,0.0,0.0,0.0,0.0,0.0,0.0,0.0,0.0,0.0,0.0,0.0,0.0,0.0,0.0,0.0,0.0,0.0,0.0,0.0,0.0,0.0,0.0,0.0,0.0,0.0,0.0,0.0,0.0,0.0,0.0,-5.8849,-6.0166,-6.1118,-6.1118,-6.1118,-6.1118,-6.1118,-6.1118,-6.0528,-5.9156,0.0,0.0,0.0,0.0,0.0,0.0,0.0,0.0,0.0,0.0,0.0,0.0,0.0,0.0,0.0,0.0,0.0,0.0,0.0,0.0,0.0,0.0,0.0,0.0,0.0,0.0,0.0,0.0,0.0,0.0,0.0,0.0,0.0,0.0,0.0,0.0,0.0,0.0,0.0,0.0,0.0,0.0,0.0,0.0,0.0,0.0,0.0,0.0,0.0,0.0,0.0,0.0,0.0,0.0,0.0,0.0,0.0,0.0,0.0,0.0,0.0,0.0,0.0,0.0,0.0,0.0,0.0,0.0,0.0,0.0,0.0,0.0,0.0,0.0,0.0,0.0,0.0,0.0,0.0,0.0,0.0,0.0,0.0,0.0,0.0,0.0,0.0,0.0,0.0,0.0,0.0,0.0,0.0,0.0,0.0,0.0,0.0,0.0,0.0,0.0,0.0,0.0,-5.87,-6.0101,-6.1118,-6.1118,-6.1118,-6.1118,-6.1118,-6.1118,-6.0712,-5.9862,0.0,0.0,0.0,0.0,0.0,0.0,0.0,0.0,0.0,0.0,0.0,0.0,0.0,0.0,0.0,0.0,0.0,0.0,0.0,0.0,0.0,0.0,0.0,0.0,0.0,0.0,0.0,0.0,0.0,0.0,0.0,0.0,0.0,0.0,0.0,0.0,0.0,0.0,0.0,0.0,0.0,0.0,0.0,0.0,0.0,0.0,0.0,0.0,0.0,0.0,0.0,0.0,0.0,0.0,0.0,0.0,0.0,0.0,0.0,0.0,-5.3655,-5.2719,0.0,0.0,0.0,0.0,0.0,0.0,0.0,0.0,0.0,0.0,0.0,0.0,0.0,0.0,0.0,0.0,0.0,0.0,0.0,0.0,0.0,0.0,0.0,0.0,0.0,0.0,0.0,0.0,0.0,0.0,0.0,0.0,0.0,0.0,0.0,0.0,0.0,0.0,0.0,0.0,-5.8693,-6.0101,-6.1118,-6.1118,-6.1118,-6.1118,-6.1118,-6.1118,-6.076,-5.9948,-5.9725,0.0,0.0,0.0,0.0,0.0,0.0,0.0,0.0,0.0,0.0,0.0,0.0,0.0,0.0,0.0,0.0,0.0,0.0,0.0,0.0,0.0,0.0,0.0,0.0,0.0,0.0,0.0,0.0,0.0,0.0,0.0,0.0,0.0,0.0,0.0,0.0,0.0,0.0,0.0,0.0,0.0,0.0,0.0,0.0,0.0,0.0,0.0,0.0,0.0,0.0,0.0,0.0,0.0,0.0,0.0,0.0,0.0,0.0,0.0,-5.3896,-5.3544,0.0,0.0,0.0,0.0,0.0,0.0,0.0,0.0,0.0,0.0,0.0,0.0,0.0,0.0,0.0,0.0,0.0,0.0,0.0,0.0,0.0,0.0,0.0,0.0,0.0,0.0,0.0,0.0,0.0,0.0,0.0,0.0,0.0,0.0,0.0,0.0,0.0,0.0,0.0,0.0,-5.925,-6.0321,-6.1118,-6.1118,-6.1118,-6.1118,-6.1118,-6.1118,-6.0915,-6.0471,-6.0103,0.0,0.0,0.0,0.0,0.0,0.0,0.0,0.0,0.0,0.0,0.0,0.0,0.0,0.0,0.0,0.0,0.0,0.0,0.0,0.0,0.0,0.0,0.0,0.0,0.0,0.0,0.0,0.0,0.0,0.0,0.0,0.0,0.0,0.0,0.0,0.0,0.0,0.0,0.0,0.0,0.0,0.0,0.0,0.0,0.0,0.0,0.0,0.0,0.0,0.0,0.0,0.0,0.0,-5.4459,-5.4459,-5.4461,-5.4433,-5.4441,-5.4447,-5.4291,-5.4644,-5.519,-5.3744,0.0,0.0,0.0,0.0,0.0,0.0,0.0,0.0,0.0,0.0,0.0,0.0,0.0,0.0,0.0,0.0,0.0,0.0,0.0,0.0,0.0,0.0,-5.4648,-5.5351,-5.5507,-5.5308,-5.4494,0.0,0.0,0.0,0.0,0.0,0.0,0.0,0.0,0.0,0.0,0.0,-5.9821,-6.0615,-6.1118,-6.1118,-6.1118,-6.1118,-6.1118,-6.1118,-6.106,-6.1022,-6.0432,-6.0065,0.0,0.0,0.0,0.0,0.0,0.0,0.0,0.0,0.0,0.0,0.0,0.0,0.0,0.0,0.0,0.0,0.0,0.0,0.0,0.0,0.0,0.0,0.0,0.0,0.0,0.0,0.0,0.0,0.0,0.0,0.0,0.0,-5.3014,-5.3912,0.0,0.0,0.0,0.0,0.0,0.0,0.0,0.0,0.0,0.0,0.0,0.0,0.0,-5.4264,-5.5123,-5.5123,-5.5513,-5.6255,-5.6255,-5.6259,-5.6268,-5.6276,-5.6243,-5.6208,-5.5468,0.0,-5.5273,-5.5039,0.0,0.0,0.0,0.0,0.0,0.0,0.0,0.0,0.0,0.0,0.0,0.0,0.0,0.0,0.0,0.0,0.0,0.0,0.0,0.0,0.0,0.0,-5.6289,-5.6406,-5.64,-5.6289,-5.6032,-5.4892,-5.3816,-5.36,-5.3549,-5.3315,0.0,0.0,0.0,0.0,0.0,0.0,-5.9889,-6.0615,-6.1118,-6.1118,-6.1118,-6.1118,-6.1118,-6.1118,-6.1118,-6.1109,-6.0954,-6.0877,-6.0906,-6.022,0.0,0.0,0.0,0.0,0.0,0.0,0.0,0.0,0.0,0.0,0.0,0.0,0.0,0.0,0.0,0.0,0.0,0.0,0.0,0.0,0.0,0.0,0.0,0.0,0.0,0.0,0.0,0.0,0.0,-5.2897,-5.3756,-5.4615,-5.4303,-5.3834,0.0,0.0,0.0,0.0,0.0,0.0,0.0,0.0,0.0,-5.4693,-5.4732,-5.5162,-5.602,-5.602,-5.6216,-5.6606,-5.6606,-5.6608,-5.6612,-5.6588,-5.6594,-5.6597,-5.621,-5.6015,-5.5976,-5.5508,-5.5312,-5.5234,0.0,0.0,0.0,0.0,-5.3437,-5.3476,-5.3867,-5.457,-5.5234,-5.4844,0.0,0.0,0.0,0.0,0.0,0.0,0.0,-5.4101,-5.4609,-5.5271,-5.5927,-5.6434,-5.6445,-5.634,-5.6246,-5.5672,-5.5025,-5.4469,-5.438,-5.4108,-5.3252,-5.4412,0.0,0.0,0.0,-5.9493,-6.046,-6.0886,-6.1118,-6.1118,-6.1118,-6.1118,-6.1118,-6.1118,-6.1118,-6.1118,-6.1032,-6.1002,-6.1031,-6.0693,-6.0268,0.0,0.0,0.0,0.0,0.0,0.0,0.0,0.0,0.0,0.0,0.0,0.0,0.0,0.0,0.0,0.0,0.0,0.0,0.0,0.0,0.0,0.0,0.0,0.0,0.0,0.0,0.0,0.0,-5.3444,-5.4303,-5.5201,-5.4927,-5.4576,0.0,0.0,0.0,0.0,0.0,0.0,-5.4303,-5.4342,-5.4732,-5.5591,-5.563,-5.5942,-5.6606,-5.6606,-5.6606,-5.6606,-5.6606,-5.6606,-5.661,-5.6587,-5.6594,-5.6595,-5.6601,-5.6601,-5.6562,-5.5898,-5.5625,-5.5625,-5.539,-5.4883,-5.4336,-5.4336,-5.4336,-5.4375,-5.4609,-5.5078,-5.5625,-5.5625,-5.5625,-5.5586,-5.5351,0.0,0.0,0.0,0.0,-5.4492,-5.5115,-5.5415,-5.5704,-5.6316,-5.6379,-5.6251,-5.62,-5.6187,-5.5959,-5.5292,-5.5176,-5.4904,-5.4057,-5.4788,0.0,-5.7104,-5.8217,-5.9455,-6.0925,-6.1118,-6.1118,-6.1118,-6.1118,-6.1118,-6.1118,-6.1118,-6.107,-6.1099,-6.1012,-6.1,-6.0997,-6.098,-6.0681,-6.0053,0.0,0.0,0.0,0.0,0.0,0.0,0.0,0.0,0.0,0.0,0.0,0.0,0.0,0.0,0.0,0.0,0.0,0.0,0.0,0.0,0.0,0.0,0.0,0.0,0.0,0.0,0.0,0.0,0.0,-5.5201,-5.5981,0.0,0.0,0.0,0.0,-5.399,-5.399,-5.4342,-5.5201,-5.524,-5.563,-5.6528,-5.6528,-5.6567,-5.6606,-5.6606,-5.6606,-5.6606,-5.6606,-5.661,-5.658,-5.6589,-5.6596,-5.6599,-5.6601,-5.6601,-5.6601,-5.6562,-5.6523,-5.6445,-5.5625,-5.5273,-5.5234,-5.5234,-5.5234,-5.5351,-5.6172,-5.6484,-5.6523,-5.6523,-5.6523,-5.6367,-5.5547,-5.5273,0.0,0.0,-5.4609,-5.5233,-5.5212,-5.5825,-5.6399,-5.6336,-5.628,-5.6181,-5.6214,-5.6102,-5.5982,-5.5943,-5.5943,-5.5672,-5.486,0.0,-5.7211,-5.728,-5.8758,-6.0151,-6.1002,-6.1118,-6.1118,-6.1118,-6.1118,-6.1118,-6.1118,-6.1118,-6.106,-6.1012,-6.099,-6.0997,-6.0987,-6.0944,-6.0888,-6.0925,-6.0141,0.0,0.0,0.0,0.0,0.0,0.0,0.0,0.0,0.0,0.0,0.0,0.0,0.0,0.0,0.0,0.0,0.0,0.0,0.0,0.0,0.0,0.0,0.0,0.0,0.0,0.0,0.0,0.0,-5.5201,-5.5552,0.0,-5.5318,-5.532,-5.5162,-5.4849,-5.5357,-5.5825,-5.6138,-5.6138,-5.6294,-5.6606,-5.6606,-5.684,-5.7387,-5.7387,-5.766,-5.8207,-5.8207,-5.8213,-5.8224,-5.8192,-5.8236,-5.8279,-5.8281,-5.8281,-5.8281,-5.8281,-5.7617,-5.6562,-5.625,-5.6133,-5.6133,-5.6133,-5.6133,-5.6172,-5.6484,-5.6601,-5.6601,-5.6601,-5.6601,-5.6523,-5.6211,-5.6133,-5.6055,-5.5742,-5.5898,-5.6133,-5.609,-5.6255,-5.6397,-5.6416,-5.6686,-5.6909,-5.6964,-5.7335,-5.7675,-5.7675,-5.6786,-5.6089,-5.636,-5.6893,-5.7666,-5.8797,-5.9493,-6.019,-6.1002,-6.1118,-6.1118,-6.1118,-6.1118,-6.1118,-6.1118,-6.1118,-6.106,-6.1012,-6.099,-6.0976,-6.0944,-6.0922,-6.0933,-6.0938,-6.0681,-6.0007,0.0,0.0,0.0,0.0,0.0,0.0,0.0,0.0,0.0,0.0,0.0,0.0,0.0,0.0,0.0,0.0,0.0,0.0,0.0,0.0,0.0,0.0,0.0,0.0,0.0,0.0,-5.4654,-5.524,-5.5552,-5.5747,-5.5747,-5.5747,-5.5747,-5.5747,-5.6255,-5.6606,-5.6606,-5.6879,-5.6996,-5.6996,-5.7309,-5.7699,-5.8246,-5.8246,-5.8519,-5.9102,-5.9102,-5.9113,-5.9086,-5.9091,-5.9135,-5.9218,-5.9219,-5.9219,-5.9219,-5.9219,-5.8515,-5.7461,-5.7461,-5.7305,-5.7031,-5.7031,-5.6836,-5.6601,-5.6601,-5.6601,-5.6601,-5.6601,-5.6601,-5.6601,-5.6601,-5.6797,-5.7031,-5.7031,-5.7265,-5.746,-5.7372,-5.7297,-5.7205,-5.7208,-5.7483,-5.7784,-5.7792,-5.8225,-5.8613,-5.8613,-5.7675,-5.6979,-5.7241,-5.728,-5.7705,-5.8836,-5.9029,-5.9339,-6.0151,-6.0499,-6.0692,-6.0692,-6.0925,-6.1118,-6.1118,-6.0847,-6.079,-6.1012,-6.072,-6.0657,-6.0872,-6.0641,-6.0459,-6.047,-6.0267,-5.9688,-5.8775,0.0,0.0,0.0,0.0,0.0,0.0,0.0,0.0,0.0,0.0,0.0,0.0,0.0,0.0,0.0,0.0,0.0,0.0,0.0,0.0,0.0,0.0,0.0,-5.3912,-5.4771,-5.532,-5.5357,-5.6098,-5.6606,-5.6606,-5.6606,-5.6606,-5.6606,-5.6606,-5.6645,-5.6645,-5.7387,-5.7855,-5.7855,-5.8675,-5.9102,-5.9141,-5.9141,-5.9141,-5.918,-5.9183,-5.9195,-5.9171,-5.9172,-5.9215,-5.9297,-5.9297,-5.9297,-5.9297,-5.9297,-5.9297,-5.9258,-5.9219,-5.8672,-5.793,-5.793,-5.7422,-5.668,-5.668,-5.668,-5.668,-5.668,-5.668,-5.668,-5.668,-5.7265,-5.793,-5.793,-5.8555,-5.9176,-5.8971,-5.8949,-5.8946,-5.8676,-5.8684,-5.8704,-5.8656,-5.8651,-5.869,-5.869,-5.869,-5.841,-5.7512,-5.7396,-5.7396,-5.7396,-5.7434,0.0,-5.8565,-5.9416,-5.9919,-5.988,-6.0615,-6.1079,-6.1079,-6.0383,-6.0248,-6.0963,-6.0218,-6.0078,-6.0872,-6.0091,-5.9661,-5.9752,-5.8964,-5.8875,-5.9511,0.0,0.0,0.0,0.0,0.0,0.0,0.0,0.0,0.0,0.0,0.0,0.0,0.0,0.0,0.0,0.0,0.0,0.0,0.0,0.0,0.0,0.0,-5.4664,-5.4929,-5.5162,-5.5513,-5.6177,-5.645,-5.6606,-5.6606,-5.6606,-5.6606,-5.6606,-5.7153,-5.7465,-5.7465,-5.8285,-5.8753,-5.8753,-5.8987,-5.9417,-6.0041,-6.0041,-6.0354,-6.0976,-6.0987,-6.0996,-6.1006,-6.0971,-6.1014,-6.1015,-6.1015,-6.1015,-6.1015,-6.1015,-6.1015,-6.0898,-5.9687,-5.9062,-5.8828,-5.8828,-5.8672,-5.8476,-5.8476,-5.8476,-5.8476,-5.8476,-5.8476,-5.8476,-5.8476,-5.8633,-5.8828,-5.8828,-5.9023,-5.9179,-5.9134,-5.9042,-5.8978,-5.8921,-5.9277,-5.9625,-5.9614,-6.0054,-6.0422,-6.0422,-6.0422,-6.0151,-5.9339,-5.9184,-5.9377,-5.9957,-6.0074,-6.0151,-6.0383,-6.0615,-6.0538,-5.9957,-6.0615,-6.0847,-6.0267,-6.0576,-6.0848,-6.098,-6.0766,-6.0712,-6.0816,-6.0612,-6.0492,-6.0586,-5.971,-5.9412,0.0,0.0,0.0,0.0,0.0,0.0,0.0,0.0,0.0,0.0,0.0,0.0,0.0,0.0,0.0,0.0,0.0,0.0,0.0,0.0,0.0,0.0,-5.4711,-5.5415,-5.5799,-5.5835,-5.6027,-5.6534,-5.6608,-5.6606,-5.6606,-5.6918,-5.7113,-5.7113,-5.7855,-5.8324,-5.8324,-5.9183,-5.9651,-5.9651,-6.0002,-6.0627,-6.1486,-6.1486,-6.1918,-6.2781,-6.2787,-6.2797,-6.2807,-6.277,-6.2772,-6.2773,-6.2773,-6.2773,-6.2773,-6.2383,-6.2226,-6.2109,0.0,0.0,0.0,0.0,-5.9219,-5.9219,-5.9219,-5.9219,-5.9219,-5.9219,-5.9219,-5.9219,-5.9219,-5.9453,-5.9687,-5.9687,-5.9961,-6.0234,-6.0191,-6.0139,-6.0071,-5.997,-6.025,-6.0551,-6.0476,-6.0803,-6.1118,-6.1118,-6.1118,0.0,-6.046,-6.0112,-5.9919,-6.0035,-6.0035,-6.0035,-6.0035,-6.0383,-6.0422,-5.9957,-6.0615,-6.0925,-6.0422,-6.0538,0.0,0.0,0.0,-6.0468,-6.0366,-6.0349,0.0,0.0,0.0,-5.9254,-5.9612,-5.9132,0.0,0.0,-5.877,-5.8385,0.0,0.0,0.0,0.0,0.0,0.0,0.0,0.0,0.0,0.0,0.0,0.0,0.0,0.0,0.0,0.0,-5.4875,-5.5736,-5.6477,-5.6588,-5.6582,-5.6582,-5.669,-5.6723,-5.6723,-5.7465,-5.7933,-5.7933,-5.8753,-5.9261,-5.9261,-6.008,0.0,0.0,0.0,-6.2267,-6.3125,-6.3167,-6.3523,-6.4314,-6.4316,-6.4286,-6.4295,-6.4295,-6.4296,-6.4297,-6.4297,-6.4297,-6.4258,-6.3476,-6.3164,-6.3047,-6.207,-6.1211,-6.0469,-5.9765,-5.9492,-5.9492,-5.9492,0.0,0.0,-5.9492,-5.9492,-5.9492,-5.9492,-5.9961,-6.0547,-6.0547,-6.1094,-6.1679,-6.1621,-6.161,-6.154,-6.1355,-6.1317,-6.1267,-6.1125,-6.1118,-6.1118,-6.1118,-6.1118,-6.1118,-6.1118,-6.0499,-5.9764,-5.899,-5.8874,-5.8874,-5.8874,-5.9571,-5.9996,-5.9919,-6.0615,0.0,-6.0963,-6.0383,-6.0344,-6.1031,-6.0365,-5.9959,-5.9959,-5.9819,-5.943,-5.8701,-5.862,-5.8952,-5.9665,-5.9722,-6.0129,-6.0861,-5.9384,-5.9097,0.0,0.0,0.0,0.0,0.0,0.0,0.0,0.0,0.0,0.0,0.0,0.0,0.0,0.0,0.0,-5.5033,-5.5776,-5.6403,-5.6598,-5.6595,-5.6589,-5.6582,-5.7159,-5.7582,-5.7582,-5.8324,-5.887,-5.887,-5.9651,-6.0159,-6.0159,-6.0978,-6.1759,-6.2462,-6.2657,-6.3164,-6.4026,-6.4032,-6.4117,-6.4314,-6.4288,0.0,-6.4295,-6.4296,-6.4297,-6.4297,-6.4297,-6.4297,-6.4297,-6.4101,-6.4062,-6.3906,-6.2305,-6.1601,-6.1445,-6.1289,-6.1211,-6.1211,-6.1211,-6.1211,-6.1211,-6.1211,-6.1211,-6.1211,-6.1211,-6.1328,0.0,-6.1445,-6.1562,-6.1719,-6.1679,-6.1627,-6.1549,-6.1412,-6.1349,-6.1267,-6.1125,-6.1118,-6.1118,-6.1118,-6.1118,-6.1118,-6.1118,-6.0963,-6.0809,-6.0654,-6.0615,-6.0615,-6.0615,-6.077,-6.0615,-5.9957,-6.0615,-6.0847,-6.019,-6.0576,-6.0906,-6.1022,-6.0846,-6.0776,-6.0776,-6.0755,-6.0608,-6.0421,-6.041,-6.0453,-6.055,-6.0607,-6.0696,-6.0804,-6.0597,-6.0601,0.0,0.0,0.0,0.0,0.0,0.0,0.0,0.0,0.0,0.0,0.0,-5.3984,-5.3984,0.0,-5.5312,-5.5311,-5.6014,-5.6601,-5.6601,-5.6988,-5.7256,-5.7252,-5.7592,-5.7972,-5.8402,-5.9222,-5.9768,-5.9768,-6.0549,-6.1252,-6.1681,-6.211,-6.2735,-6.3633,-6.3633,-6.4067,-6.493,-6.4937,-6.5178,-6.5615,-6.5582,-6.5584,-6.5585,-6.5586,-6.5586,-6.5586,-6.5586,-6.5586,-6.5586,-6.5117,-6.4687,-6.4219,-6.3359,-6.3008,-6.3008,-6.3008,-6.3008,-6.293,-6.25,-6.2344,-6.2265,-6.1836,-6.1719,-6.1719,-6.1719,-6.1719,-6.1719,-6.1719,-6.1719,-6.1719,-6.1719,-6.158,-6.1471,-6.1426,-6.1311,-6.1195,-6.1098,-6.1118,-6.1118,-6.1118,-6.1118,-6.1118,-6.1118,-6.1118,-6.1118,-6.1118,-6.1118,-6.1118,-6.1118,-6.1118,-6.0963,-6.0538,-6.0847,-6.0925,-6.0538,-6.0886,-6.1109,-6.1041,-6.1031,-6.101,-6.1041,-6.0997,-6.0965,-6.0959,-6.0872,-6.0866,-6.0866,-6.09,-6.0877,-6.0781,-6.0911,-6.0933,0.0,0.0,0.0,0.0,0.0,0.0,0.0,0.0,-5.4297,-5.4453,-5.4492,-5.4492,-5.4492,-5.5078,-5.5547,-5.5547,-5.6133,-5.6601,-5.6601,-5.7341,-5.796,-5.8116,-5.822,-5.8597,-5.93,-6.0159,-6.0666,-6.0666,-6.1447,-6.2267,-6.2969,-6.3164,-6.3633,-6.4531,-6.4531,-6.4967,-6.5837,-6.5838,-6.6198,-6.6911,-6.6912,-6.6913,-6.6914,-6.6914,-6.6914,-6.6914,-6.6914,-6.6914,-6.6836,-6.6133,-6.543,-6.4805,-6.4805,-6.4805,-6.4765,-6.4414,-6.4297,-6.4219,-6.3515,-6.3242,-6.3125,-6.2422,-6.2226,-6.2226,-6.2226,-6.2226,-6.2226,-6.2226,-6.2226,-6.2226,-6.2226,-6.208,-6.1946,-6.1924,-6.1744,-6.1628,-6.1592,-6.1621,-6.1621,-6.1621,-6.1621,-6.1621,-6.1621,-6.1621,-6.1505,-6.1157,-6.1118,-6.1118,-6.1118,-6.1234,-6.135,-6.135,-6.1505,-6.1621,-6.1621,-6.1621,-6.1621,-6.1621,-6.1544,-6.1544,-6.1582,-6.1502,-6.146,-6.1504,-6.1406,-6.1339,-6.1373,-6.1373,-6.1339,-6.1281,-6.1339,-6.1262,-5.293,-5.2773,-5.2851,-5.2851,-5.3359,-5.4062,0.0,0.0,-5.5351,-5.6133,-5.6328,-5.6328,-5.6328,-5.6406,-5.6445,-5.6445,-5.6523,-5.6601,-5.6601,-5.7341,-5.8155,-5.8896,-5.9624,-6.0159,-6.0237,-6.1056,-6.1562,-6.1562,-6.2345,-6.2891,-6.3008,-6.3711,-6.4531,-6.5429,-6.5468,-6.5824,-6.6655,-6.6703,-6.6789,-6.6911,-6.6914,-6.6914,-6.6914,-6.6914,-6.6914,-6.6914,-6.6914,-6.6914,-6.6875,-6.6797,-6.6719,-6.6601,-6.6601,-6.6601,-6.6406,-6.4883,-6.4297,-6.4297,-6.418,-6.414,-6.414,-6.4023,-6.4023,-6.4023,-6.4023,-6.4023,-6.4023,-6.4023,-6.4023,-6.4023,-6.4023,-6.3934,-6.3848,-6.3735,-6.3612,-6.3495,-6.3409,-6.341,-6.341,-6.341,-6.341,-6.341,-6.341,-6.341,-6.2859,-6.135,-6.1118,-6.1118,-6.1118,-6.1776,-6.224,-6.224,-6.2936,-6.341,-6.341,-6.341,-6.341,-6.341,-6.34,-6.34,-6.341,-6.339,-6.3361,-6.332,-6.3246,-6.3191,-6.3107,-6.3107,-6.3072,-6.3012,-6.3072,-6.2687,-5.418,-5.3828,-5.3711,0.0,-5.4844,-5.4961,-5.5859,-5.6055,-5.6172,-5.6523,-5.6601,-5.6601,-5.6601,-5.6601,-5.6601,0.0,-5.6601,-5.6797,-5.7305,-5.8082,-5.8896,-5.9755,-6.064,-6.1174,-6.1174,-6.1483,-6.1718,-6.1718,-6.2501,-6.3204,-6.3711,-6.457,-6.5429,-6.6288,-6.6295,-6.6499,-6.6859,-6.6906,-6.6911,-6.6914,-6.6914,-6.6914,-6.6914,-6.6914,-6.6914,-6.6914,-6.6914,-6.6914,-6.6914,-6.6914,-6.6914,-6.6914,-6.6914,-6.6914,-6.6797,-6.6094,-6.582,-6.5742,-6.5234,-6.5078,-6.4961,-6.4453,-6.4297,-6.4297,-6.4297,-6.4297,-6.4297,-6.4297,-6.4297,-6.4297,-6.4297,-6.4249,-6.4169,-6.4047,-6.3896,-6.379,-6.3719,-6.3719,-6.3719,-6.3719,-6.3719,-6.3719,-6.3719,-6.3719,-6.3449,-6.2704,-6.2588,-6.2588,-6.2588,-6.2936,-6.3168,-6.3168,-6.3487,-6.3719,-6.3719,-6.3719,-6.3719,-6.3719,-6.3719,-6.3719,-6.3719,-6.3641,-6.3631,-6.3641,-6.3559,-6.3516,-6.3516,-6.3449,-6.3403,-6.338,-6.3368,-6.3421,-5.4687,0.0,0.0,-5.5859,-5.5937,-5.582,-5.6445,-5.6601,-5.6601,-5.6601,-5.6601,-5.6601,-5.6601,-5.6601,-5.6601,-5.6601,-5.6601,-5.6914,-5.7773,-5.8591,-5.9445,-6.0302,-6.1188,-6.1683,-6.1718,-6.1718,-6.1718,-6.1718,-6.2735,-6.3633,-6.426,-6.5351,-6.6212,-6.6761,-6.6809,-6.6818,-6.6906,-6.691,-6.6913,-6.6914,-6.6914,-6.6914,-6.6914,-6.6914,-6.6914,-6.6914,-6.6914,-6.6914,-6.6914,-6.6914,-6.6914,-6.6914,-6.6914,-6.6914,-6.6914,-6.6914,-6.6914,-6.6797,-6.6172,-6.5976,-6.5859,-6.5234,-6.5039,-6.5039,-6.5039,-6.5039,-6.5039,-6.5039,-6.5039,-6.5039,-6.5039,-6.4995,-6.4928,-6.4753,-6.4627,-6.4542,-6.4434,-6.4377,-6.4377,-6.4377,-6.4377,-6.4377,-6.4377,-6.4377,-6.4377,-6.4377,-6.4377,-6.4222,-6.3758,-6.3913,-6.4145,-6.4377,-6.4377,-6.4377,-6.4377,-6.4377,-6.4377,-6.4377,-6.4377,-6.4377,-6.4377,-6.4337,-6.4327,-6.4367,-6.4275,-6.4243,-6.4286,-6.4166,-6.4108,-6.4108,-6.4037,-6.4359,0.0,0.0,-5.4219,-5.5117,-5.5937,-5.6562,-5.6601,-5.6601,-5.6601,-5.6601,-5.6601,-5.6601,-5.6601,-5.6601,-5.6601,-5.6601,-5.6601,-5.6914,-5.7773,-5.8632,-5.9489,-6.0303,-6.1156,-6.1694,0.0,-6.1718,-6.1718,-6.1718,-6.3282,-6.426,-6.4299,-6.5861,-6.6761,-6.6811,-6.6811,-6.6821,-6.6911,-6.6911,-6.6913,-6.6914,-6.6914,-6.6914,-6.6914,-6.6914,-6.6914,-6.6914,-6.6914,-6.6914,-6.6914,-6.6914,-6.6914,-6.6914,-6.6914,-6.6914,-6.6914,-6.6914,-6.6914,-6.6914,-6.6875,-6.6875,-6.6875,-6.6836,-6.6836,-6.6836,-6.6836,-6.6836,-6.6836,-6.6836,-6.6836,-6.6836,-6.6836,-6.6836,-6.6752,-6.6564,-6.6512,-6.6444,-6.6196,-6.6108,-6.6108,-6.6108,-6.6108,-6.6108,-6.6108,-6.6108,-6.6108,-6.6108,-6.6108,-6.5528,-6.3913,-6.4454,-6.5257,-6.6031,-6.6108,-6.6108,-6.6108,-6.6108,-6.6108,-6.6108,-6.6108,-6.6108,-6.6108,-6.6108,-6.6108,-6.6108,-6.6046,-6.6024,-6.6024,-6.594,-6.5931,-6.5919,-6.5858,-6.582,-5.4648,0.0,-5.5078,-5.5937,-5.6367,-5.6601,-5.6601,-5.6601,-5.6601,-5.6601,-5.6133,-5.5742,-5.5742,-5.5273,-5.5078,-5.5625,-5.5742,-5.6445,-5.8476,-5.9023,-5.9724,-6.109,-6.1511,0.0,0.0,0.0,0.0,-6.254,-6.3633,-6.4531,-6.5116,-6.6217,-6.6809,-6.6811,-6.6823,-6.6869,-6.6911,-6.6913,-6.6914,-6.6914,-6.6914,-6.6914,-6.6914,-6.6914,-6.6914,-6.6914,-6.6914,-6.6914,-6.6914,-6.6914,-6.6914,-6.6914,-6.6914,-6.6914,-6.6914,-6.6914,-6.6914,-6.6914,-6.6914,-6.6914,-6.6914,-6.6914,-6.6914,-6.6914,-6.6914,-6.6914,-6.6914,-6.6914,-6.6914,-6.6914,-6.6914,-6.6832,-6.6727,-6.6624,-6.6534,-6.6414,-6.6245,-6.6185,-6.6185,-6.6185,-6.6185,-6.6185,-6.6185,-6.6185,-6.6185,-6.6185,-6.6185,-6.5992,-6.5412,-6.5605,-6.5915,-6.6185,-6.6185,-6.6185,-6.6185,-6.6185,-6.6185,-6.6185,-6.6185,-6.6185,-6.6185,-6.6185,-6.6185,-6.6185,-6.6165,-6.6134,-6.6102,-6.6024,-6.6005,-6.5996,-6.5935,-6.5897,-5.4961,-5.5312,-5.5508,-5.6367,-5.6601,-5.6601,-5.6601,-5.6601,-5.6523,-5.6211,-5.5703,-5.5195,-5.4883,-5.4375,-5.4297,-5.5156,-5.5312,-5.6211,-5.8828,-5.9218,-5.9803,-6.1482,-6.1711,-6.1705,0.0,0.0,0.0,-6.293,-6.3828,-6.4689,-6.5553,-6.6379,-6.6815,-6.6821,-6.6869,-6.6912,-6.6913,-6.6914,-6.6914,-6.6914,-6.6914,-6.6914,-6.6914,-6.6914,-6.6914,-6.6914,-6.6914,-6.6914,-6.6914,-6.6914,-6.6914,-6.6914,-6.6914,-6.6914,-6.6914,-6.6914,-6.6914,-6.6914,-6.6914,-6.6914,-6.6914,-6.6914,-6.6914,-6.6914,-6.6914,-6.6914,-6.6914,-6.6914,-6.6914,-6.6914,-6.6914,-6.6787,-6.6664,-6.6619,-6.6497,-6.6345,-6.6235,-6.6185,-6.6185,-6.6185,-6.6185,-6.6185,-6.6185,-6.6185,-6.6185,-6.6185,-6.6185,-6.6185,-6.6185,-6.6185,-6.6185,-6.6185,-6.6185,-6.6185,-6.6185,-6.6185,-6.6185,-6.6185,-6.6185,-6.6185,-6.6185,-6.6185,-6.6185,-6.6185,-6.6185,-6.6165,-6.6134,-6.6047,-6.599,-6.5993,-6.5947,-6.5897,-5.4922,-5.5351,-5.5586,-5.6406,-5.6601,-5.6601,-5.6601,-5.6562,-5.6289,-5.5469,-5.5234,-5.4922,0.0,0.0,-5.4219,-5.5078,-5.5273,-5.6211,-5.8789,-5.918,-5.9804,0.0,0.0,0.0,0.0,0.0,0.0,-6.2933,0.0,-6.4694,-6.5563,-6.6383,-6.6821,-6.6911,-6.6911,-6.6913,-6.6914,-6.6914,-6.6914,-6.6914,-6.6914,-6.6914,-6.6914,-6.6914,-6.6914,-6.6914,-6.6914,-6.6914,-6.6914,-6.6914,-6.6914,-6.6914,-6.6914,-6.6914,-6.6914,-6.6914,-6.6914,-6.6914,-6.6914,-6.6914,-6.6914,-6.6914,-6.6914,-6.6914,-6.6914,-6.6914,-6.6914,-6.6914,-6.6914,-6.6914,-6.6914,-6.6785,-6.6697,-6.6615,-6.6491,-6.6337,-6.6225,-6.6185,-6.6185,-6.6185,-6.6185,-6.6185,-6.6185,-6.6185,-6.6185,-6.6185,-6.6185,-6.6185,-6.6185,-6.6185,-6.6185,-6.6185,-6.6185,-6.6185,-6.6185,-6.6185,-6.6185,-6.6185,-6.6185,-6.6185,-6.6185,-6.6185,-6.6185,-6.6185,-6.6185,-6.6185,-6.6175,-6.6069,-6.6001,-6.599,-6.5921,-6.5897,-5.5976,-5.6289,-5.6328,-5.6523,-5.6601,-5.6601,-5.6601,-5.6094,-5.5586,-5.5351,-5.4258,-5.3281,0.0,0.0,0.0,-5.418,-5.4883,0.0,-5.7969,-5.8789,0.0,-6.0625,0.0,-6.1716,-6.1714,-6.1709,0.0,0.0,-6.3794,-6.4694,-6.5563,-6.6429,-6.6866,-6.6911,-6.6913,-6.6914,-6.6914,-6.6914,-6.6914,-6.6914,-6.6914,-6.6914,-6.6914,-6.6914,-6.6914,-6.6914,-6.6914,-6.6914,-6.6914,-6.6914,-6.6914,-6.6914,-6.6914,-6.6914,-6.6914,-6.6914,-6.6914,-6.6914,-6.6914,-6.6914,-6.6914,-6.6914,-6.6914,-6.6914,-6.6914,-6.6914,-6.6914,-6.6914,-6.6914,-6.6914,-6.6914,-6.6766,-6.6624,-6.66,-6.6414,-6.6254,-6.6195,-6.6185,-6.6185,-6.6185,-6.6185,-6.6185,-6.6185,-6.6185,-6.6185,-6.6185,-6.6185,-6.6185,-6.6185,-6.6185,-6.6185,-6.6185,-6.6185,-6.6185,-6.6185,-6.6185,-6.6185,-6.6185,-6.6185,-6.6185,-6.6185,-6.6185,-6.6185,-6.6185,-6.6185,-6.6144,-6.6058,-6.6024,-6.5967,-6.5947,-6.5923,-6.5897,-5.6367,-5.6601,-5.6601,-5.6601,-5.6601,-5.6484,-5.6133,-5.5664,-5.5078,-5.4336,-5.3398,0.0,0.0,0.0,0.0,0.0,0.0,0.0,-5.7656,-5.8633,-5.9492,0.0,-6.1172,0.0,-6.1717,-6.1715,-6.1906,0.0,-6.3574,-6.4667,-6.5531,-6.6436,-6.691,-6.6913,-6.6914,-6.6914,-6.6914,-6.6914,-6.6914,-6.6914,-6.6914,-6.6914,-6.6914,-6.6914,-6.6914,-6.6914,-6.6914,-6.6914,-6.6914,-6.6914,-6.6914,-6.6914,-6.6914,-6.6914,-6.6914,-6.6914,-6.6914,-6.6914,-6.6914,-6.6914,-6.6914,-6.6914,-6.6914,-6.6914,-6.6914,-6.6914,-6.6914,-6.6914,-6.6914,-6.6914,-6.6914,-6.6756,-6.659,-6.659,-6.6384,-6.6185,-6.6185,-6.6185,-6.6185,-6.6185,-6.6185,-6.6185,-6.6185,-6.6185,-6.6185,-6.6185,-6.6185,-6.6185,-6.6185,-6.6185,-6.6185,-6.6185,-6.6185,-6.6185,-6.6185,-6.6185,-6.6185,-6.6185,-6.6185,-6.6185,-6.6185,-6.6185,-6.6185,-6.6185,-6.6185,-6.6144,-6.6047,-6.6024,-6.5993,-6.5947,-6.591,-6.609,-5.6406,-5.6601,-5.6601,-5.6601,-5.6601,-5.6367,-5.5508,-5.5195,-5.4687,-5.3047,0.0,-5.2578,-5.2695,-5.2695,-5.3281,-5.5039,0.0,-5.5859,-5.75,-5.8594,-5.9453,-6.0156,-6.1094,-6.1718,-6.1717,-6.1717,-6.1716,-6.171,-6.3313,-6.4641,-6.5383,-6.6363,-6.6912,-6.6914,-6.6914,-6.6914,-6.6914,-6.6914,-6.6914,-6.6914,-6.6914,-6.6914,-6.6914,-6.6914,-6.6914,-6.6914,-6.6914,-6.6914,-6.6914,-6.6914,-6.6914,-6.6914,-6.6914,-6.6914,-6.6914,-6.6914,-6.6914,-6.6914,-6.6914,-6.6914,-6.6914,-6.6914,-6.6914,-6.6914,-6.6914,-6.6914,-6.6914,-6.6914,-6.6914,-6.6914,-6.6874,-6.6751,-6.659,-6.6574,-6.6369,-6.6185,-6.6185,-6.6185,-6.6185,-6.6185,-6.6185,-6.6185,-6.6185,-6.6185,-6.6185,-6.6185,-6.6185,-6.6185,-6.6185,-6.6185,-6.6185,-6.6185,-6.6185,-6.6185,-6.6185,-6.6185,-6.6185,-6.6185,-6.6185,-6.6185,-6.6185,-6.6185,-6.6185,-6.6185,-6.6185,-6.6155,-6.6091,-6.6036,-6.6055,-6.6138,-6.6089,-6.6513,-5.6562,-5.6601,-5.6601,-5.6601,-5.6601,-5.6367,-5.5508,-5.4726,0.0,0.0,-5.2148,-5.1836,-5.2578,-5.2695,-5.3281,-5.5039,0.0,0.0,0.0,0.0,-5.9258,0.0,0.0,0.0,0.0,0.0,0.0,0.0,-6.3319,-6.4374,-6.4529,-6.6052,-6.6912,-6.6914,-6.6914,-6.6914,-6.6914,-6.6914,-6.6914,-6.6914,-6.6914,-6.6914,-6.6914,-6.6914,-6.6914,-6.6914,-6.6914,-6.6914,-6.6914,-6.6914,-6.6914,-6.6914,-6.6914,-6.6914,-6.6914,-6.6914,-6.6914,-6.6914,-6.6914,-6.6914,-6.6914,-6.6914,-6.6914,-6.6914,-6.6914,-6.6914,-6.6914,-6.6914,-6.6914,-6.6874,-6.6777,-6.6677,-6.6569,-6.6457,-6.6316,-6.6185,-6.6185,-6.6185,-6.6185,-6.6185,-6.6185,-6.6185,-6.6185,-6.6185,-6.6185,-6.6185,-6.6185,-6.6185,-6.6185,-6.6185,-6.6185,-6.6185,-6.6185,-6.6185,-6.6185,-6.6185,-6.6185,-6.6185,-6.6185,-6.6185,-6.6185,-6.6185,-6.6185,-6.6185,-6.6185,-6.6134,-6.6024,-6.6013,-6.6302,-6.6923,-6.691,-6.7359,-5.6055,-5.625,-5.6601,-5.6601,-5.6601,-5.625,-5.4922,0.0,0.0,0.0,-5.168,-5.168,-5.2539,0.0,0.0,0.0,0.0,0.0,0.0,0.0,0.0,0.0,0.0,0.0,0.0,0.0,-6.1719,-6.1718,-6.332,-6.4297,-6.4295,-6.5936,-6.6914,-6.6914,-6.6914,-6.6914,-6.6914,-6.6914,-6.6914,-6.6914,-6.6914,-6.6914,-6.6914,-6.6914,-6.6914,-6.6914,-6.6914,-6.6914,-6.6914,-6.6914,-6.6914,-6.6914,-6.6914,-6.6914,-6.6914,-6.6914,-6.6914,-6.6914,-6.6914,-6.6914,-6.6914,-6.6914,-6.6914,-6.6914,-6.6914,-6.6914,-6.6914,-6.6914,-6.6914,-6.6874,-6.6731,-6.6666,-6.6563,-6.6429,-6.629,-6.6185,-6.6185,-6.6185,-6.6185,-6.6185,-6.6185,-6.6185,-6.6185,-6.6185,-6.6185,-6.6185,-6.6185,-6.6185,-6.6185,-6.6185,-6.6185,-6.6185,-6.6185,-6.6185,-6.6185,-6.6185,-6.6185,-6.6185,-6.6185,-6.6185,-6.6185,-6.6185,-6.6185,-6.6185,-6.6185,-6.6134,-6.6001,-6.6464,-6.683,-6.709,-6.7552,-6.8244,-5.5703,-5.6094,-5.6601,-5.6601,-5.6601,-5.6133,-5.4414,-5.3984,0.0,0.0,-5.1406,-5.168,-5.2539,0.0,0.0,0.0,0.0,0.0,0.0,0.0,0.0,0.0,0.0,0.0,0.0,0.0,0.0,-6.1719,-6.332,-6.4453,-6.4843,-6.6172,-6.6914,-6.6914,-6.6914,-6.6914,-6.6914,-6.6914,-6.6914,-6.6914,-6.6914,-6.6914,-6.6914,-6.6914,-6.6914,-6.6914,-6.6914,-6.6914,-6.6914,-6.6914,-6.6914,-6.6914,-6.6914,-6.6914,-6.6914,-6.6914,-6.6914,-6.6914,-6.6914,-6.6914,-6.6914,-6.6914,-6.6914,-6.6914,-6.6914,-6.6914,-6.6914,-6.6914,-6.6914,-6.6873,-6.6717,-6.665,-6.6558,-6.6384,-6.6263,-6.6185,-6.6185,-6.6185,-6.6185,-6.6185,-6.6185,-6.6185,-6.6185,-6.6185,-6.6185,-6.6185,-6.6185,-6.6185,-6.6185,-6.6185,-6.6185,-6.6185,-6.6185,-6.6185,-6.6185,-6.6185,-6.6185,-6.6185,-6.6185,-6.6185,-6.6185,-6.6185,-6.6185,-6.6185,-6.6185,-6.625,-6.6272,-6.6966,-6.7408,-6.7667,-6.8359,-6.9129,-5.6289,-5.6523,-5.6601,-5.6601,-5.6601,-5.6133,-5.4414,0.0,0.0,-5.1758,-5.1406,-5.168,-5.2539,-5.2031,0.0,0.0,0.0,0.0,0.0,0.0,0.0,0.0,0.0,0.0,0.0,0.0,0.0,-6.1719,-6.332,-6.5,-6.6562,-6.6797,-6.6914,-6.6914,-6.6914,-6.6914,-6.6914,-6.6914,-6.6914,-6.6914,-6.6914,-6.6914,-6.6914,-6.6914,-6.6914,-6.6914,-6.6914,-6.6914,-6.6914,-6.6914,-6.6914,-6.6914,-6.6914,-6.6914,-6.6914,-6.6914,-6.6914,-6.6914,-6.6914,-6.6914,-6.6914,-6.6914,-6.6914,-6.6914,-6.6914,-6.6914,-6.6914,-6.6914,-6.6914,-6.6872,-6.6654,-6.66,-6.6534,-6.6272,-6.6195,-6.6185,-6.6185,-6.6185,-6.6185,-6.6185,-6.6185,-6.6185,-6.6185,-6.6185,-6.6185,-6.6185,-6.6185,-6.6185,-6.6185,-6.6185,-6.6185,-6.6185,-6.6185,-6.6185,-6.6185,-6.6185,-6.6185,-6.6185,-6.6185,-6.6185,-6.6185,-6.6185,-6.6185,-6.6185,-6.6185,-6.652,-6.7159,-6.7248,-6.8024,-6.9475,-6.9552,-7.0014,-5.5078,-5.5781,-5.6601,-5.6601,-5.6601,-5.6133,-5.4414,0.0,-5.3516,-5.1758,-5.1406,-5.1523,-5.1836,-5.1641,-5.1641,0.0,0.0,0.0,0.0,0.0,0.0,0.0,0.0,0.0,0.0,0.0,-6.1914,-6.2422,-6.3594,-6.4844,-6.6055,-6.6601,-6.6914,-6.6914,-6.6914,-6.6914,-6.6914,-6.6914,-6.6914,-6.6914,-6.6914,-6.6914,-6.6914,-6.6914,-6.6914,-6.6914,-6.6914,-6.6914,-6.6914,-6.6914,-6.6914,-6.6914,-6.6914,-6.6914,-6.6914,-6.6914,-6.6914,-6.6914,-6.6914,-6.6914,-6.6914,-6.6914,-6.6914,-6.6914,-6.6914,-6.6914,-6.6914,-6.6914,-6.6914,-6.6832,-6.6646,-6.6478,-6.6342,-6.6225,-6.6185,-6.6185,-6.6185,-6.6185,-6.6185,-6.6185,-6.6185,-6.6185,-6.6185,-6.6185,-6.6185,-6.6185,-6.6185,-6.6185,-6.6185,-6.6185,-6.6185,-6.6185,-6.6185,-6.6185,-6.6185,-6.6185,-6.6185,-6.6185,-6.6185,-6.6185,-6.6185,-6.6185,-6.6185,-6.6185,-6.6727,-6.7089,-6.7313,-6.8366,-6.9142,-6.9706,-7.0206,-7.0591,-5.4414,-5.5273,-5.6289,-5.6523,-5.6406,-5.582,0.0,0.0,-5.3203,-5.1719,-5.1406,-5.1406,-5.1406,-5.1406,-5.1406,0.0,0.0,0.0,0.0,0.0,0.0,0.0,0.0,0.0,0.0,-6.1562,-6.207,-6.293,-6.3828,-6.4687,-6.5547,-6.6445,-6.6914,-6.6914,-6.6914,-6.6914,-6.6914,-6.6914,-6.6914,-6.6914,-6.6914,-6.6914,-6.6914,-6.6914,-6.6914,-6.6914,-6.6914,-6.6914,-6.6914,-6.6914,-6.6914,-6.6914,-6.6914,-6.6914,-6.6914,-6.6914,-6.6914,-6.6914,-6.6914,-6.6914,-6.6914,-6.6914,-6.6914,-6.6914,-6.6914,-6.6914,-6.6914,-6.6914,-6.6872,-6.677,-6.6629,-6.6392,-6.6185,-6.6185,-6.6185,-6.6185,-6.6185,-6.6185,-6.6185,-6.6185,-6.6185,-6.6185,-6.6185,-6.6185,-6.6185,-6.6185,-6.6185,-6.6185,-6.6185,-6.6185,-6.6185,-6.6185,-6.6185,-6.6185,-6.6185,-6.6185,-6.6185,-6.6185,-6.6185,-6.6185,-6.6185,-6.6185,-6.6301,-6.6572,-6.717,-6.7658,-6.8046,-6.9268,-6.9939,-7.0052,-7.0629,-7.0898,-5.4805,-5.5312,-5.5508,-5.6367,-5.5937,-5.5078,0.0,0.0,-5.2461,-5.1562,-5.1406,-5.1406,-5.1406,-5.1406,-5.1406,-5.1406,0.0,0.0,0.0,0.0,0.0,0.0,0.0,0.0,0.0,-6.1172,-6.207,-6.293,-6.3828,0.0,-6.5547,-6.6445,-6.6914,-6.6914,-6.6914,-6.6914,-6.6914,-6.6914,-6.6914,-6.6914,-6.6914,-6.6914,-6.6914,-6.6914,-6.6914,-6.6914,-6.6914,-6.6914,-6.6914,-6.6914,-6.6914,-6.6914,-6.6914,-6.6914,-6.6914,-6.6914,-6.6914,-6.6914,-6.6914,-6.6914,-6.6914,-6.6914,-6.6914,-6.6914,-6.6914,-6.6914,-6.6914,-6.6914,-6.6759,-6.6595,-6.6595,-6.6392,-6.6185,-6.6185,-6.6185,-6.6185,-6.6185,-6.6185,-6.6185,-6.6185,-6.6185,-6.6185,-6.6185,-6.6185,-6.6185,-6.6185,-6.6185,-6.6185,-6.6185,-6.6185,-6.6185,-6.6185,-6.6185,-6.6185,-6.6185,-6.6185,-6.6185,-6.6185,-6.6185,-6.6185,-6.6185,-6.6185,-6.6611,-6.7462,-6.7437,-6.8231,-6.9871,-6.9797,-7.0195,-7.0898,-7.0898,-7.0898,-5.3359,-5.3945,-5.4492,-5.4765,-5.4609,-5.418,-5.332,0.0,-5.2461,-5.1562,-5.1406,-5.1406,-5.1406,-5.1406,-5.1406,-5.1406,0.0,0.0,0.0,0.0,0.0,0.0,0.0,0.0,0.0,0.0,-6.1797,-6.2109,-6.3476,-6.4414,-6.4687,-6.6094,-6.6914,-6.6914,-6.6914,-6.6914,-6.6914,-6.6914,-6.6914,-6.6914,-6.6914,-6.6914,-6.6914,-6.6914,-6.6914,-6.6914,-6.6914,-6.6914,-6.6914,-6.6914,-6.6914,-6.6914,-6.6914,-6.6914,-6.6914,-6.6914,-6.6914,-6.6914,-6.6914,-6.6914,-6.6914,-6.6914,-6.6914,-6.6914,-6.6914,-6.6914,-6.6874,-6.6785,-6.6688,-6.6574,-6.6491,-6.6342,-6.6185,-6.6185,-6.6185,-6.6185,-6.6185,-6.6185,-6.6185,-6.6185,-6.6185,-6.6185,-6.6185,-6.6185,-6.6185,-6.6185,-6.6185,-6.6185,-6.6185,-6.6185,-6.6185,-6.6185,-6.6185,-6.6185,-6.6185,-6.6185,-6.6185,-6.6185,-6.6185,-6.6185,-6.6185,-6.6766,-6.723,-6.7501,-6.8558,-6.939,-6.991,-7.0375,-7.0734,-7.0898,-7.0898,-7.0898,0.0,-5.3086,-5.3594,-5.3906,-5.375,0.0,0.0,0.0,-5.207,-5.1523,-5.1406,-5.1406,-5.1406,-5.1406,-5.1406,-5.1406,0.0,0.0,0.0,0.0,0.0,0.0,0.0,0.0,0.0,-6.1523,-6.1719,-6.1719,-6.3008,-6.3945,-6.4297,-6.5625,-6.6562,-6.6875,-6.6914,-6.6914,-6.6914,-6.6914,-6.6914,-6.6914,-6.6914,-6.6914,-6.6914,-6.6914,-6.6914,-6.6914,-6.6914,-6.6914,0.0,-6.6914,-6.6914,-6.6914,-6.6914,-6.6914,-6.6914,-6.6914,-6.6914,-6.6914,-6.6914,-6.6914,-6.6914,-6.6914,-6.6914,-6.6914,-6.6914,-6.6914,-6.6874,-6.6731,-6.6666,-6.6569,-6.6429,-6.6299,-6.6185,-6.6185,-6.6185,-6.6185,-6.6185,-6.6185,-6.6185,-6.6185,-6.6185,-6.6185,-6.6185,-6.6185,-6.6185,-6.6185,-6.6185,-6.6185,-6.6185,-6.6185,-6.6185,-6.6185,-6.6185,-6.6185,-6.6185,-6.6185,-6.6185,-6.6185,-6.6185,-6.6185,-6.6185,-6.7036,-6.7655,-6.7965,-6.9231,-7.0061,-7.0373,-7.0774,-7.0939,-7.0898,-7.0898,-7.0898,0.0,-5.2617,-5.2812,-5.3594,-5.3203,-5.2617,0.0,0.0,0.0,0.0,-5.1406,-5.1406,-5.1406,-5.1406,0.0,0.0,0.0,0.0,0.0,0.0,0.0,0.0,0.0,0.0,-6.0508,-6.1211,-6.1719,-6.1719,-6.25,-6.3359,-6.414,-6.5078,-6.5976,-6.6797,-6.6875,-6.6914,-6.6914,-6.6914,-6.6914,-6.6914,-6.6914,-6.6914,-6.6914,-6.6914,-6.6914,-6.6914,-6.6914,-6.6914,-6.6914,-6.6914,-6.6914,-6.6914,-6.6914,-6.6914,-6.6914,-6.6914,-6.6914,-6.6914,-6.6914,-6.6914,-6.6914,-6.6914,-6.6914,-6.6914,-6.6914,-6.6875,-6.6873,-6.6727,-6.6658,-6.6552,-6.6414,-6.629,-6.6185,-6.6185,-6.6185,-6.6185,-6.6185,-6.6185,-6.6185,-6.6185,-6.6185,-6.6185,-6.6185,-6.6185,-6.6185,-6.6185,-6.6185,-6.6185,-6.6185,-6.6185,-6.6185,-6.6185,-6.6185,-6.6185,-6.6185,-6.6185,-6.6185,-6.6185,-6.6185,-6.6224,-6.6301,-6.7114,-6.8003,-6.8854,-6.9621,-7.036,-7.1081,-7.0965,-7.0898,-7.0898,-7.0898,-7.0898,-5.1641,0.0,-5.1758,-5.1953,-5.1875,-5.1719,0.0,0.0,0.0,0.0,0.0,0.0,0.0,0.0,0.0,0.0,0.0,0.0,0.0,0.0,0.0,0.0,-5.9844,-6.1406,-6.1406,-6.1562,-6.1719,-6.1719,-6.25,-6.3086,-6.3281,-6.4765,-6.5703,-6.5898,-6.6562,-6.6914,-6.6914,-6.6914,-6.6914,-6.6914,-6.6914,-6.6914,-6.6914,-6.6914,-6.6914,-6.6914,-6.6914,-6.6914,-6.6914,-6.6914,-6.6914,-6.6914,-6.6914,-6.6914,-6.6914,-6.6914,-6.6914,-6.6914,-6.6914,-6.6914,-6.6914,-6.6914,-6.6914,-6.6914,-6.6914,-6.6831,-6.6724,-6.6654,-6.6552,-6.6407,-6.6272,-6.6225,-6.6185,-6.6185,-6.6185,-6.6185,-6.6185,-6.6185,-6.6185,-6.6185,-6.6185,-6.6185,-6.6185,-6.6185,-6.6185,-6.6185,-6.6185,-6.6185,-6.6185,-6.6185,-6.6185,-6.6185,-6.6185,-6.6185,-6.6185,-6.6185,-6.6185,-6.6185,-6.6185,-6.6495,-6.7152,-6.8042,-6.8893,-6.9705,-7.0432,-7.0863,-7.0952,-7.0912,-7.0898,-7.0898,-7.0898,-7.0898,-5.1406,-5.1406,-5.1406,-5.1406,-5.1406,-5.1406,-5.1406,0.0,0.0,0.0,0.0,0.0,0.0,0.0,0.0,0.0,0.0,0.0,0.0,0.0,0.0,0.0,-6.039,-6.1719,0.0,-6.1719,-6.1719,-6.1719,-6.2148,-6.2578,-6.2969,-6.3906,-6.4765,-6.5586,-6.6055,-6.6484,-6.6914,-6.6914,-6.6914,-6.6914,-6.6914,-6.6914,-6.6914,-6.6914,-6.6914,-6.6914,-6.6914,-6.6914,-6.6914,-6.6914,-6.6914,-6.6914,-6.6914,-6.6914,-6.6914,-6.6914,-6.6914,-6.6914,-6.6914,-6.6914,-6.6914,-6.6914,-6.6914,-6.6875,-6.683,-6.6722,-6.6662,-6.661,-6.6504,-6.6353,-6.6245,-6.6185,-6.6185,-6.6185,-6.6185,-6.6185,-6.6185,-6.6185,-6.6185,-6.6185,-6.6185,-6.6185,-6.6185,-6.6185,-6.6185,-6.6185,-6.6185,-6.6185,-6.6185,-6.6185,-6.6185,-6.6185,-6.6185,-6.6185,-6.6185,-6.6185,-6.6185,-6.6185,-6.6572,-6.6998,-6.7501,-6.87,-6.9723,-7.0479,-7.0911,-7.103,-7.0898,-7.0898,-7.0898,-7.0898,-7.0898,-7.0898,-5.1406,-5.1406,-5.1406,-5.1406,-5.1406,-5.1406,-5.1406,0.0,0.0,0.0,0.0,0.0,0.0,0.0,0.0,0.0,0.0,0.0,0.0,0.0,0.0,0.0,-6.0586,0.0,-6.1719,-6.1719,-6.1719,-6.1719,-6.1719,-6.2031,-6.2773,-6.293,-6.3672,-6.5156,-6.5312,-6.582,-6.668,-6.6836,-6.6914,-6.6914,-6.6914,-6.6914,-6.6914,-6.6914,-6.6914,-6.6914,-6.6914,-6.6914,-6.6914,-6.6914,-6.6914,-6.6914,-6.6914,-6.6914,-6.6914,-6.6914,-6.6914,-6.6914,-6.6914,-6.6914,-6.6914,-6.6914,-6.6914,-6.6874,-6.6733,-6.6631,-6.659,-6.6569,-6.6471,-6.6359,-6.6235,-6.6185,-6.6185,-6.6185,-6.6185,-6.6185,-6.6185,-6.6185,-6.6185,-6.6185,-6.6185,-6.6185,-6.6185,-6.6185,-6.6185,-6.6185,-6.6185,-6.6185,-6.6185,-6.6185,-6.6185,-6.6185,-6.6185,-6.6185,-6.6185,-6.6301,-6.6417,-6.6417,-6.7075,-6.7617,-6.7887,-6.9357,-7.0463,-7.1106,-7.1106,-7.103,-7.0898,-7.0898,-7.0898,-7.0898,-7.0898,-7.0898,-5.1406,-5.1406,-5.1406,-5.1406,-5.1406,-5.1406,0.0,0.0,0.0,0.0,0.0,0.0,0.0,0.0,0.0,0.0,0.0,-5.3906,0.0,0.0,-5.7969,-5.8086,0.0,-6.1719,-6.1719,-6.1719,-6.1719,-6.1719,-6.1719,-6.1758,-6.1875,-6.2617,-6.3125,-6.3398,-6.4101,-6.4922,-6.5781,-6.6523,-6.6914,-6.6914,-6.6914,-6.6914,-6.6914,-6.6914,-6.6914,-6.6914,-6.6914,-6.6914,-6.6914,-6.6914,-6.6914,-6.6914,-6.6914,-6.6914,-6.6914,-6.6914,-6.6914,-6.6914,-6.6914,-6.6914,-6.6914,-6.6914,-6.6914,-6.6874,-6.6733,-6.6631,-6.6574,-6.6464,-6.6342,-6.6225,-6.6195,-6.6185,-6.6185,-6.6185,-6.6185,-6.6185,-6.6185,-6.6185,-6.6185,-6.6185,-6.6185,-6.6185,-6.6185,-6.6185,-6.6185,-6.6185,-6.6185,-6.6185,-6.6185,-6.6185,-6.6185,-6.6185,-6.6185,-6.6185,-6.6185,-6.6882,-6.7307,-6.7307,-6.7423,-6.8158,-6.9551,-7.0556,-7.1081,-7.1106,-7.1106,-7.103,-7.0898,-7.0898,-7.0898,-7.0898,-7.0898,-7.0898,-5.1406,-5.1406,-5.1523,-5.1992,-5.1758,-5.1406,0.0,0.0,0.0,0.0,0.0,0.0,0.0,0.0,0.0,-5.4492,0.0,-5.5195,-5.6601,-5.7851,-5.8945,0.0,0.0,-6.1719,-6.1719,-6.1719,-6.1719,-6.1719,-6.1719,-6.1719,-6.1719,-6.207,-6.25,-6.3008,-6.3398,-6.4258,-6.5586,-6.6015,-6.6445,-6.6914,-6.6914,-6.6914,-6.6914,-6.6914,-6.6914,-6.6914,-6.6914,-6.6914,-6.6914,-6.6914,-6.6914,-6.6914,-6.6914,-6.6914,-6.6914,-6.6914,-6.6914,-6.6914,-6.6914,-6.6914,-6.6914,-6.6914,-6.6914,-6.6873,-6.6697,-6.6629,-6.6558,-6.6367,-6.6264,-6.6185,-6.6185,-6.6185,-6.6185,-6.6185,-6.6185,-6.6185,-6.6185,-6.6185,-6.6185,-6.6185,-6.6185,-6.6185,-6.6185,-6.6185,-6.6185,-6.6185,-6.6185,-6.6185,-6.6185,-6.6185,-6.6185,-6.6185,-6.6611,-6.6882,-6.6882,-6.7694,-6.839,-6.8816,-6.8854,-6.9396,-7.0634,-7.1037,-7.1201,-7.1106,-7.1068,-7.1005,-7.0898,-7.0898,-7.0898,-7.0898,-7.0898,-7.0898,-5.1406,-5.1406,-5.1562,-5.2226,0.0,0.0,0.0,0.0,0.0,0.0,0.0,0.0,0.0,0.0,0.0,0.0,-5.5469,-5.6367,-5.8594,-5.9062,-5.9765,-6.1211,-6.1562,-6.1719,-6.1719,-6.1719,-6.1719,-6.1719,-6.1719,-6.1719,-6.1719,-6.1719,-6.1992,-6.2656,-6.2695,-6.3437,-6.4961,-6.5195,-6.5859,-6.6914,-6.6914,-6.6914,-6.6914,-6.6914,-6.6914,-6.6914,-6.6914,-6.6914,-6.6914,-6.6914,-6.6914,-6.6914,-6.6914,-6.6914,-6.6914,-6.6914,-6.6914,-6.6914,-6.6914,-6.6914,-6.6914,-6.6914,-6.6874,-6.6827,-6.6646,-6.6574,-6.6504,-6.6292,-6.6185,-6.6185,-6.6185,-6.6185,-6.6185,-6.6185,-6.6185,-6.6185,-6.6185,-6.6185,-6.6185,-6.6185,-6.6185,-6.6185,-6.6185,-6.6185,-6.6185,-6.6185,-6.6185,-6.6185,-6.6185,-6.6185,-6.6263,-6.6495,-6.7114,-6.7655,-6.8042,-6.87,-6.9435,-7.0247,-7.0286,-7.0595,-7.1253,-7.1236,-7.1178,-7.1106,-7.103,-7.0965,-7.0898,-7.0898,-7.0898,-7.0898,-7.0898,-7.0898,-5.1406,-5.1406,-5.1406,-5.1484,-5.2031,0.0,-5.3633,-5.3828,0.0,-5.3828,0.0,0.0,0.0,0.0,0.0,0.0,-5.5976,-5.6836,-5.7851,0.0,-5.9531,-6.039,-6.1211,-6.1719,-6.1719,-6.1719,-6.1719,-6.1719,-6.1719,-6.1719,-6.1719,-6.1719,-6.1719,-6.1797,-6.1797,-6.2226,-6.3164,-6.3984,-6.5234,-6.6914,-6.6914,-6.6914,-6.6914,-6.6914,-6.6914,-6.6914,-6.6914,-6.6914,-6.6914,-6.6914,-6.6914,-6.6914,-6.6914,-6.6914,-6.6914,-6.6914,-6.6914,-6.6914,-6.6914,-6.6914,-6.6914,-6.6914,-6.6829,-6.6712,-6.6629,-6.6516,-6.6369,-6.6245,-6.6185,-6.6185,-6.6185,-6.6185,-6.6185,-6.6185,-6.6185,-6.6185,-6.6185,-6.6185,-6.6185,-6.6185,-6.6185,-6.6185,-6.6185,-6.6185,-6.6185,-6.6185,-6.6185,-6.6185,-6.6185,-6.6185,-6.6495,-6.7307,-6.7462,-6.8119,-6.9667,-6.986,-7.0286,-7.1137,-7.1214,-7.1214,-7.1291,-7.1236,-7.1178,-7.1106,-7.103,-7.0965,-7.0898,-7.0898,-7.0898,-7.0898,-7.0898,-7.0898,-5.1406,-5.1797,-5.2344,-5.2891,-5.3242,0.0,0.0,-5.3594,-5.3984,-5.3984,-5.3984,0.0,0.0,0.0,0.0,0.0,-5.6367,-5.7109,-5.8515,-5.8984,-5.9687,-6.1055,-6.1484,-6.1719,-6.1719,-6.1719,-6.1719,-6.1719,-6.1719,-6.1719,-6.1719,-6.1719,-6.1719,-6.1719,-6.1719,-6.2109,-6.3008,-6.332,-6.4648,-6.6914,-6.6914,-6.7187,-6.7695,-6.7148,-6.6914,-6.6914,-6.6914,-6.6914,-6.6914,-6.6914,-6.6914,-6.6914,-6.6914,-6.6914,-6.6914,-6.6914,-6.6914,-6.6914,-6.6914,-6.6914,-6.6914,-6.6914,-6.6828,-6.6706,-6.6624,-6.651,-6.6353,-6.6245,-6.6185,-6.6185,-6.6185,-6.6185,-6.6185,-6.6185,-6.6185,-6.6185,-6.6185,-6.6185,-6.6185,-6.6185,-6.6185,-6.6185,-6.6185,-6.6185,-6.6185,-6.6185,-6.6185,-6.6417,-6.6959,-6.6998,-6.7346,-6.8236,-6.8777,-6.9512,-7.0711,-7.0789,-7.0943,-7.1291,-7.1291,-7.1291,-7.1291,-7.1201,-7.113,-7.1106,-7.0992,-7.0925,-7.0898,-7.0898,-7.0898,-7.0898,-7.0898,-7.0898,-5.1406,-5.2031,-5.2851,0.0,0.0,0.0,-5.3672,-5.3789,-5.4062,-5.4336,-5.4648,0.0,0.0,0.0,0.0,0.0,-5.6406,-5.7226,-5.8945,-5.9219,-5.9805,-6.1484,-6.1719,-6.1719,-6.1719,-6.1719,-6.1719,-6.1719,-6.1719,-6.1719,-6.1719,-6.1719,-6.1719,-6.1719,-6.1719,-6.1992,-6.2578,-6.2851,-6.418,-6.6484,-6.6758,-6.75,-6.8555,-6.7695,-6.7305,-6.7305,-6.7031,-6.6914,-6.6914,-6.6914,-6.6914,-6.6914,-6.6914,-6.6914,-6.6914,-6.6914,-6.6914,-6.6914,-6.6914,-6.6914,-6.6914,-6.6914,-6.6782,-6.6677,-6.6615,-6.6478,-6.6325,-6.6225,-6.6185,-6.6185,-6.6185,-6.6185,-6.6185,-6.6185,-6.6185,-6.6185,-6.6185,-6.6185,-6.6185,-6.6185,-6.6185,-6.6185,-6.6185,-6.6185,-6.6185,-6.6185,-6.6417,-6.6843,-6.7423,-6.7733,-6.8236,-6.9087,-6.9899,-7.0634,-7.1253,-7.1291,-7.1291,-7.1291,-7.1291,-7.1291,-7.1291,-7.119,-7.1118,-7.1106,-7.0992,-7.0925,-7.0898,-7.0898,-7.0898,-7.0898,-7.0898,-7.0898,-5.1406,-5.2031,-5.2734,0.0,0.0,0.0,0.0,0.0,0.0,-5.5117,0.0,-5.6328,-5.5469,0.0,0.0,-5.5469,-5.6055,-5.7226,-5.8945,-5.918,-5.9805,-6.1484,-6.168,-6.1719,-6.1719,-6.1719,-6.1719,-6.1719,-6.1719,-6.1719,-6.1719,-6.1719,-6.1719,-6.1719,-6.1719,-6.1719,-6.1719,-6.2578,-6.3867,-6.5625,-6.6484,-6.7773,-6.9375,-6.8594,-6.8203,-6.8164,-6.7305,-6.6914,-6.6914,-6.6914,-6.6914,-6.6914,-6.6914,-6.6914,-6.6914,-6.6914,-6.6914,-6.6914,-6.6914,-6.6914,-6.6914,-6.6914,-6.6763,-6.659,-6.659,-6.6407,-6.6185,-6.6185,-6.6185,-6.6185,-6.6185,-6.6185,-6.6185,-6.6185,-6.6185,-6.6185,-6.6185,-6.6185,-6.6185,-6.6185,-6.6185,-6.6185,-6.6185,-6.6185,-6.6185,-6.6224,-6.6959,-6.7501,-6.7539,-6.8274,-6.9125,-6.9938,-7.0789,-7.1291,-7.1291,-7.1291,-7.1291,-7.1291,-7.1291,-7.1291,-7.1291,-7.1236,-7.1178,-7.1106,-7.103,-7.0965,-7.0898,-7.0898,-7.0898,-7.0898,-7.0898,-7.0898,-5.2305,-5.3398,0.0,0.0,0.0,0.0,0.0,0.0,0.0,0.0,0.0,-5.6328,-5.5469,0.0,0.0,-5.625,-5.6445,-5.6992,-5.8125,-5.8828,-5.9609,-6.0664,-6.1328,-6.1719,-6.1719,-6.1719,-6.1719,-6.1719,-6.1719,-6.1719,-6.1719,-6.1719,-6.1719,-6.1719,-6.1719,-6.1719,-6.1719,-6.1953,-6.3281,-6.5625,-6.6484,-6.7812,-6.9453,-6.918,-6.875,-6.8203,-6.793,-6.7461,-6.6914,-6.6914,-6.6914,-6.6914,-6.6914,-6.6914,-6.6914,-6.6914,-6.6914,-6.6914,-6.6914,-6.6914,-6.6875,-6.6785,-6.6691,-6.6579,-6.6491,-6.6351,-6.6185,-6.6185,-6.6185,-6.6185,-6.6185,-6.6185,-6.6185,-6.6185,-6.6185,-6.6185,-6.6185,-6.6185,-6.6185,-6.6185,-6.6185,-6.6185,-6.6185,-6.6185,-6.6417,-6.7036,-6.7346,-6.7926,-6.9125,-7.0015,-7.0634,-7.0905,-7.1137,-7.1291,-7.1291,-7.1291,-7.1291,-7.1291,-7.1291,-7.1291,-7.1291,-7.119,-7.1118,-7.1106,-7.0992,-7.0925,-7.0898,-7.0898,-7.0898,-7.0898,-7.0898,-7.0898,-5.2695,0.0,0.0,0.0,0.0,0.0,0.0,0.0,0.0,0.0,0.0,-5.6445,-5.5898,-5.625,0.0,-5.6601,-5.6601,-5.6914,-5.7773,-5.8633,-5.9492,-6.0312,-6.1172,-6.1719,-6.1719,-6.1719,-6.1719,-6.1719,-6.1719,-6.1719,-6.1719,-6.1719,-6.1719,-6.1719,-6.1719,-6.1719,-6.1719,-6.1719,-6.2851,-6.5117,-6.6328,-6.7812,-6.9453,-6.9765,-6.9453,-6.8633,-6.7969,-6.7383,-6.6914,-6.6914,-6.6914,-6.6914,-6.6914,-6.6914,-6.6914,-6.6914,-6.6914,-6.6914,-6.6914,-6.6914,-6.6874,-6.6733,-6.6631,-6.6569,-6.6436,-6.6308,-6.6185,-6.6185,-6.6185,-6.6185,-6.6185,-6.6185,-6.6185,-6.6185,-6.6185,-6.6185,-6.6185,-6.6185,-6.6185,-6.6185,-6.6185,-6.6185,-6.6185,-6.6495,-6.6882,-6.7423,-6.8081,-6.897,-7.0324,-7.0982,-7.1291,-7.1291,-7.1291,-7.1291,-7.1291,-7.1291,-7.1291,-7.1291,-7.1291,-7.1291,-7.1291,-7.1201,-7.113,-7.1106,-7.0992,-7.0925,-7.0898,-7.0898,-7.0898,-7.0898,-7.0898,-7.0898,0.0,0.0,0.0,0.0,0.0,0.0,0.0,0.0,0.0,0.0,0.0,-5.6562,-5.6484,-5.6562,-5.6601,-5.6601,-5.6601,-5.6875,-5.7656,-5.8515,-5.9375,-6.0195,-6.1055,-6.1601,-6.168,-6.1719,-6.1719,-6.1719,-6.1719,-6.1719,-6.1719,-6.1719,-6.1719,-6.1719,-6.1719,-6.1719,-6.1719,-6.1719,-6.2539,-6.4219,-6.6015,-6.7734,-6.9336,-7.0351,-7.0312,-6.9297,-6.7695,-6.6953,-6.6914,-6.6914,-6.6914,-6.6914,-6.6914,-6.6914,-6.6914,-6.6914,-6.6914,-6.6914,-6.6914,-6.6914,-6.6874,-6.6733,-6.6631,-6.6569,-6.6436,-6.6308,-6.6185,-6.6185,-6.6185,-6.6185,-6.6185,-6.6185,-6.6185,-6.6185,-6.6185,-6.6185,-6.6185,-6.6185,-6.6185,-6.6185,-6.6185,-6.6224,-6.6301,-6.6998,-6.7539,-6.7694,-6.9087,-7.0402,-7.1214,-7.1291,-7.1291,-7.1291,-7.1291,-7.1291,-7.1291,-7.1291,-7.1291,-7.1291,-7.1291,-7.1291,-7.1291,-7.1236,-7.1166,-7.1106,-7.103,-7.0965,-7.0898,-7.0898,-7.0898,-7.0898,-7.0898,-7.0937,0.0,-5.4492,0.0,0.0,0.0,0.0,0.0,0.0,0.0,0.0,0.0,-5.6406,-5.5703,-5.6133,-5.6601,-5.6601,-5.6601,-5.668,-5.6836,-5.7617,-5.8515,-5.9375,-6.0195,-6.0937,-6.164,-6.1719,-6.1719,-6.1719,-6.1719,-6.1719,-6.1719,-6.1719,-6.1719,-6.1719,-6.1719,-6.1719,-6.1719,-6.1719,-6.2226,-6.332,-6.5742,-6.7461,-6.8515,-7.0703,-7.0859,-6.9336,-6.8359,-6.7539,-6.6914,-6.6914,-6.6914,-6.6914,-6.6914,-6.6914,-6.6914,-6.6914,-6.6914,-6.6914,-6.6914,-6.6914,-6.6874,-6.6733,-6.6631,-6.6569,-6.6436,-6.6308,-6.6185,-6.6185,-6.6185,-6.6185,-6.6185,-6.6185,-6.6185,-6.6185,-6.6185,-6.6185,-6.6185,-6.6185,-6.6185,-6.6185,-6.6185,-6.6417,-6.7114,-6.7384,-6.7965,-6.9241,-7.0363,-7.1098,-7.1291,-7.1291,-7.1291,-7.1291,-7.1291,-7.1291,-7.1291,-7.1291,-7.1291,-7.1291,-7.1291,-7.1291,-7.1291,-7.119,-7.1118,-7.1106,-7.0979,-7.0912,-7.0898,-7.0898,-7.0898,-7.0898,-7.0898,-7.1283,0.0,0.0,0.0,0.0,0.0,0.0,0.0,0.0,0.0,0.0,0.0,-5.6445,-5.6015,-5.6289,-5.6601,-5.6601,-5.6601,-5.6601,-5.6601,-5.7344,-5.8086,-5.8515,-5.9648,-6.0586,-6.1015,-6.1445,-6.1719,-6.1719,-6.1719,-6.1719,-6.1719,-6.1719,-6.1719,-6.1719,-6.1719,-6.1719,-6.1719,-6.1719,-6.2148,-6.3047,-6.5664,-6.8008,-7.0039,-7.0976,-7.0898,-6.9961,-6.8711,-6.793,-6.75,-6.707,-6.6914,-6.6914,-6.6914,-6.6914,-6.6914,-6.6914,-6.6914,-6.6914,-6.6914,-6.6914,-6.6874,-6.6703,-6.6638,-6.6563,-6.6345,-6.6273,-6.6185,-6.6185,-6.6185,-6.6185,-6.6185,-6.6185,-6.6185,-6.6185,-6.6185,-6.6185,-6.6185,-6.6185,-6.6185,-6.6185,-6.6533,-6.6959,-6.7423,-6.8158,-6.9125,-7.044,-7.1021,-7.1291,-7.1291,-7.1291,-7.1291,-7.1291,-7.1291,-7.1291,-7.1291,-7.1291,-7.1291,-7.1291,-7.1291,-7.1291,-7.1291,-7.1166,-7.1106,-7.1106,-7.0965,-7.0898,-7.0898,-7.0898,-7.0898,-7.0898,-7.1321,-7.1783,0.0,0.0,0.0,0.0,0.0,0.0,0.0,0.0,0.0,0.0,0.0,-5.6601,-5.6601,-5.6601,-5.6601,-5.6601,-5.6601,-5.6601,-5.6601,-5.7226,-5.7734,-5.789,-5.9101,-6.0078,-6.0351,-6.1055,-6.1523,-6.168,-6.1719,-6.1719,-6.1719,-6.1719,-6.1719,-6.1719,-6.1719,-6.1719,-6.1719,-6.1719,-6.207,-6.2812,-6.5586,-6.8672,-7.1992,-7.125,-7.0859,-7.0625,-6.9219,-6.8476,-6.8125,-6.7422,-6.7031,-6.6914,-6.6914,-6.6914,-6.6914,-6.6914,-6.6914,-6.6914,-6.6914,-6.6914,-6.6873,-6.6674,-6.661,-6.6552,-6.6308,-6.6215,-6.6185,-6.6185,-6.6185,-6.6185,-6.6185,-6.6185,-6.6185,-6.6185,-6.6185,-6.6185,-6.6185,-6.6185,-6.6224,-6.6417,-6.7346,-6.8158,-6.8158,-6.9435,-7.0634,-7.1214,-7.1291,-7.1291,-7.1291,-7.1291,-7.1291,-7.1291,-7.1291,-7.1291,-7.1291,-7.1291,-7.1291,-7.1291,-7.1291,-7.1291,-7.1291,-7.1166,-7.1106,-7.1106,-7.0965,-7.0898,-7.0898,-7.0898,-7.0898,-7.0937,-7.1783,-7.2283,0.0,0.0,0.0,0.0,0.0,0.0,0.0,0.0,0.0,0.0,0.0,-5.6601,-5.6601,-5.6601,-5.6601,-5.6601,-5.6601,-5.6601,-5.6601,-5.6719,-5.7031,-5.7812,-5.8086,-5.8789,-6.0273,-6.0508,-6.0898,-6.164,-6.1719,-6.1719,-6.1719,-6.1719,-6.1719,-6.1719,-6.1719,-6.1719,-6.1719,-6.1719,-6.1758,-6.1914,-6.5273,-6.8672,-7.1992,-7.1875,-7.1406,-7.0703,-7.0469,-6.9531,-6.8203,-6.8086,-6.7578,-6.6914,-6.6914,-6.6914,-6.6914,-6.6914,-6.6914,-6.6914,-6.6914,-6.6914,-6.6874,-6.6727,-6.6662,-6.6569,-6.6414,-6.629,-6.6185,-6.6185,-6.6185,-6.6185,-6.6185,-6.6185,-6.6185,-6.6185,-6.6185,-6.6185,-6.6185,-6.6185,-6.6417,-6.7191,-6.9203,-7.0789,-7.0789,-7.1601,-7.2026,-7.1407,-7.1291,-7.1291,-7.1291,-7.1291,-7.1291,-7.1291,-7.1291,-7.1291,-7.1291,-7.1291,-7.1291,-7.1291,-7.1291,-7.1291,-7.1291,-7.1166,-7.1106,-7.1106,-7.0965,-7.0898,-7.0898,-7.0898,-7.0898,-7.0937,-7.1783,-7.2591,0.0,0.0,0.0,0.0,0.0,0.0,0.0,0.0,0.0,0.0,0.0,-5.6601,-5.6601,-5.6601,-5.6601,-5.6601,-5.6601,-5.6601,-5.6601,-5.6601,-5.6758,-5.7148,-5.7617,-5.8398,-5.9609,-6.0156,-6.0742,-6.164,-6.1719,-6.1719,-6.1719,-6.1719,-6.1719,-6.1719,-6.1719,-6.1719,-6.1719,-6.1719,-6.2695,-6.4648,-6.6172,-6.8672,-7.1992,-7.1992,-7.1797,-7.1406,-7.0898,-7.0273,-6.9531,-6.8594,-6.7969,-6.7578,-6.7109,-6.6914,-6.6914,-6.6914,-6.6914,-6.6914,-6.6914,-6.6914,-6.6873,-6.6697,-6.6629,-6.6558,-6.6367,-6.6254,-6.6185,-6.6185,-6.6185,-6.6185,-6.6185,-6.6185,-6.6185,-6.6185,-6.6185,-6.6185,-6.6185,-6.6185,-6.6727,-6.8545,-7.0595,-7.2181,-7.2684,-7.2684,-7.2452,-7.2104,-7.1601,-7.1291,-7.1291,-7.1291,-7.1291,-7.1291,-7.1291,-7.1291,-7.1291,-7.1291,-7.1291,-7.1291,-7.1291,-7.1291,-7.1291,-7.1166,-7.1106,-7.1106,-7.0965,-7.0898,-7.0898,-7.0898,-7.1168,-7.1629,-7.2514,-7.3399,0.0,0.0,0.0,0.0,0.0,0.0,0.0,0.0,0.0,0.0,0.0,-5.6601,-5.6601,-5.6601,-5.6601,-5.6601,-5.6601,-5.6601,-5.6601,-5.6601,-5.6601,-5.6601,-5.7187,-5.789,-5.8789,-5.9609,-6.0469,-6.1328,-6.1562,-6.1719,-6.1719,-6.1719,-6.1719,-6.1719,-6.1719,-6.1719,-6.1719,-6.1719,-6.3437,-6.6914,-6.6914,-6.8672,-7.1992,-7.1992,-7.1992,-7.1953,-7.1328,-7.0898,-7.0586,-6.9336,-6.8594,-6.8125,-6.7461,-6.7109,-6.6914,-6.6914,-6.6914,-6.6914,-6.6914,-6.6874,-6.6828,-6.665,-6.6574,-6.6504,-6.6253,-6.6185,-6.6185,-6.6185,-6.6185,-6.6185,-6.6185,-6.6185,-6.6185,-6.6185,-6.6185,-6.6185,-6.6185,-6.6727,-6.7771,-6.9899,-7.191,-7.3458,-7.4077,-7.3496,-7.2877,-7.2645,-7.1872,-7.1291,-7.1291,-7.1291,-7.1291,-7.1291,-7.1291,-7.1291,-7.1291,-7.1291,-7.1291,-7.1291,-7.1291,-7.1291,-7.1291,-7.1166,-7.1106,-7.1106,-7.0965,-7.0898,-7.0898,-7.1129,-7.1552,-7.2206,-7.3283,-7.413,0.0,0.0,0.0,0.0,0.0,0.0,0.0,0.0,0.0,0.0,0.0,-5.6601,-5.6601,-5.6601,-5.6601,-5.6601,-5.6601,-5.6601,-5.6601,-5.6601,-5.6601,-5.6601,-5.664,-5.6992,-5.789,-5.875,-5.9609,-6.039,-6.1211,-6.1719,-6.1719,-6.1719,-6.1719,-6.1719,-6.1719,-6.1719,-6.1719,-6.1719,-6.3437,-6.6914,-6.6914,-6.8672,-7.1992,-7.1992,-7.1992,-7.1992,-7.1953,-7.1445,-7.0703,-7.0625,-6.9648,-6.8203,-6.8164,-6.7617,-6.6914,-6.6914,-6.6914,-6.6914,-6.6914,-6.6829,-6.6712,-6.6629,-6.6516,-6.6369,-6.6254,-6.6185,-6.6185,-6.6185,-6.6185,-6.6185,-6.6185,-6.6185,-6.6185,-6.6185,-6.6185,-6.6185,-6.6185,-6.8081,-7.0092,-7.1059,-7.3264,-7.4993,-7.5032,-7.4386,-7.3535,-7.2723,-7.1872,-7.1291,-7.1291,-7.1291,-7.1291,-7.1291,-7.1291,-7.1291,-7.1291,-7.1291,-7.1291,-7.1291,-7.1291,-7.1291,-7.1291,-7.1166,-7.1106,-7.1106,-7.0965,-7.0898,-7.0898,-7.1745,-7.2168,-7.2245,-7.3899,-7.4668,0.0,0.0,0.0,0.0,0.0,0.0,0.0,0.0,0.0,0.0,0.0,-5.6601,-5.6601,-5.6601,-5.6601,-5.6601,-5.6601,-5.6601,-5.6601,-5.6601,-5.6601,-5.6601,-5.6601,-5.6953,-5.7812,-5.8672,-5.9531,-6.0351,-6.1211,-6.1719,-6.1719,-6.1719,-6.1719,-6.1719,-6.1719,-6.1719,-6.1719,-6.1719,-6.3437,-6.6914,-6.6914,-6.8672,-7.1992,-7.1992,-7.1992,-7.1992,-7.1992,-7.1836,-7.1484,-7.0937,-7.0039,-6.8906,-6.8398,-6.7656,-6.6914,-6.6914,-6.6914,-6.6914,-6.6914,-6.6828,-6.6709,-6.6629,-6.651,-6.6361,-6.6245,-6.6185,-6.6185,-6.6185,-6.6185,-6.6185,-6.6185,-6.6185,-6.6185,-6.6185,-6.6185,-6.6495,-6.7617,-6.9435,-7.1253,-7.2684,-7.4579,-7.5933,-7.5933,-7.4811,-7.3806,-7.3496,-7.222,-7.1291,-7.1291,-7.1291,-7.1291,-7.1291,-7.1291,-7.1291,-7.1291,-7.1291,-7.1291,-7.1291,-7.1291,-7.1291,-7.1291,-7.1166,-7.1106,-7.1106,-7.1505,-7.1745,-7.1745,-7.2052,-7.2745,-7.3822,-7.4437,-7.5014,0.0,0.0,0.0,0.0,0.0,0.0,0.0,0.0,0.0,0.0,0.0,0.0,-5.6601,-5.6601,-5.6601,-5.6601,-5.6601,-5.6601,-5.6601,-5.6601,-5.6601,-5.6601,-5.6601,-5.6836,-5.7422,-5.8515,-5.9414,-5.9961,-6.1055,0.0,-6.1719,-6.1719,-6.1719,-6.1719,-6.1719,-6.1719,-6.1719,-6.1719,-6.3437,-6.6914,-6.6914,-6.8672,-7.1992,-7.1992,-7.1992,-7.1992,-7.1992,-7.1992,-7.1953,-7.1367,-7.0625,-6.9765,-6.8945,-6.8086,-6.7305,-6.6992,-6.6914,-6.6875,-6.6833,-6.6772,-6.6635,-6.6574,-6.6436,-6.6316,-6.6225,-6.6185,-6.6185,-6.6185,-6.6185,-6.6185,-6.6185,-6.6185,-6.6185,-6.6185,-6.665,-6.7539,-6.928,-7.0518,-7.1833,-7.3574,-7.5237,-7.6397,-7.6397,-7.5005,-7.3883,-7.3883,-7.2413,-7.1291,-7.1291,-7.1291,-7.1291,-7.1291,-7.1291,-7.1291,-7.1291,-7.1291,-7.1291,-7.1291,-7.1291,-7.1291,-7.1291,-7.1166,-7.126,-7.1518,-7.198,-7.2476,-7.3053,-7.3053,-7.3591,-7.4707,-7.5014,-7.5438,0.0,0.0,0.0,0.0,0.0,0.0,-5.375,0.0,0.0,0.0,0.0,0.0,-5.6601,-5.6601,-5.6601,-5.6601,-5.6601,-5.6601,-5.6601,-5.6601,-5.6601,-5.6601,-5.6601,-5.6601,-5.6601,-5.8164,-5.9219,-5.9219,-6.0742,-6.1719,-6.1719,-6.1719,-6.1719,-6.1719,-6.1719,-6.1719,-6.1719,-6.1719,-6.3476,-6.6875,-6.6914,-6.8711,-7.1953,-7.1992,-7.1992,-7.1992,-7.1992,-7.1992,-7.1992,-7.1992,-7.1484,-7.0625,-6.9805,-6.8984,-6.8086,-6.7226,-6.6914,-6.6874,-6.6735,-6.6674,-6.6574,-6.6443,-6.6316,-6.6185,-6.6185,-6.6185,-6.6185,-6.6185,-6.6185,-6.6185,-6.6185,-6.6185,-6.6185,-6.6185,-6.7539,-6.928,-7.0943,-7.133,-7.1872,-7.3651,-7.5276,-7.6397,-7.6359,-7.5005,-7.3883,-7.3883,-7.2413,-7.1291,-7.1291,-7.1291,-7.1291,-7.1291,-7.1291,-7.1291,-7.1291,-7.1291,-7.1291,-7.1291,-7.1291,-7.1291,-7.1291,-7.1205,-7.153,-7.2379,-7.2327,-7.3053,-7.4707,-7.4707,-7.4707,-7.4784,-7.563,-7.6015,-5.1406,0.0,0.0,0.0,0.0,0.0,-5.2851,-5.3242,-5.3789,0.0,0.0,0.0,0.0,-5.6601,-5.6601,-5.6601,-5.6601,-5.6601,-5.6601,-5.6601,-5.6601,-5.6601,-5.6601,-5.6601,-5.6601,-5.8164,-5.9219,0.0,-6.0742,-6.1719,-6.1719,-6.1719,-6.1719,-6.1719,-6.1719,-6.1719,-6.1719,-6.2344,-6.375,-6.5976,-6.7226,-6.8984,-7.1094,-7.1719,-7.1992,-7.1992,-7.1992,-7.1992,-7.1992,-7.1992,-7.1484,-7.0625,-6.9805,-6.8984,-6.8086,-6.7226,-6.6914,-6.6875,-6.6873,-6.6753,-6.6585,-6.6558,-6.6377,-6.6185,-6.6185,-6.6185,-6.6185,-6.6185,-6.6185,-6.6185,-6.6185,-6.6185,-6.6185,-6.6185,-6.7539,-6.928,-7.0943,-7.2297,-7.369,-7.5392,-7.6088,-7.6204,-7.5585,-7.4579,-7.369,-7.3032,-7.2026,-7.1291,-7.1291,-7.1291,-7.1291,-7.1291,-7.1291,-7.1291,-7.1291,-7.1291,-7.1291,-7.1291,-7.1291,-7.1291,-7.1291,-7.1784,-7.2147,-7.2417,-7.3468,-7.4245,-7.4707,-7.4707,-7.5014,-7.5668,-7.5899,-7.6015,0.0,0.0,0.0,0.0,0.0,0.0,-5.2031,-5.2422,-5.3086,0.0,-5.4765,0.0,0.0,0.0,-5.5625,-5.6015,-5.6055,-5.6172,-5.6562,-5.6601,-5.6601,-5.6601,-5.6601,-5.6601,-5.6601,-5.8164,-5.9219,-5.9219,-6.0742,-6.1719,-6.1719,-6.1719,-6.1719,-6.1719,-6.1719,-6.1719,-6.1719,-6.2578,-6.3867,-6.5625,-6.7383,-6.9062,-7.0742,-7.1601,-7.1992,-7.1992,-7.1992,-7.1992,-7.1992,-7.1992,-7.1719,-7.1172,-7.0312,-6.9453,-6.8594,-6.7734,-6.7226,-6.6874,-6.6818,-6.6684,-6.6574,-6.6471,-6.6334,-6.6185,-6.6185,-6.6185,-6.6185,-6.6185,-6.6185,-6.6185,-6.6185,-6.6185,-6.6379,-6.7114,-6.8584,-7.0324,-7.2026,-7.3728,-7.5237,-7.6204,-7.6397,-7.6127,-7.5237,-7.4425,-7.3612,-7.2723,-7.1872,-7.1291,-7.1291,-7.1291,-7.1291,-7.1291,-7.1291,-7.1291,-7.1291,-7.1291,-7.1291,-7.1291,-7.1291,-7.1435,-7.1788,-7.2197,-7.2701,-7.3408,-7.4263,-7.4899,-7.5245,-7.5245,-7.5515,-7.6015,-7.6015,-7.6015,0.0,0.0,0.0,0.0,-5.1406,0.0,-5.1523,-5.207,-5.2812,-5.3789,-5.3906,0.0,0.0,0.0,0.0,-5.5039,-5.5234,-5.5586,-5.6484,-5.6601,-5.6601,-5.6601,-5.6601,-5.6601,-5.6601,-5.8164,-5.9219,-5.9219,-6.0742,-6.1719,-6.1719,-6.1719,-6.1719,-6.1719,-6.1719,-6.1719,-6.1719,-6.2656,-6.3906,-6.5469,-6.7422,-6.9101,-7.0586,-7.1562,-7.1992,-7.1992,-7.1992,-7.1992,-7.1992,-7.1992,-7.1992,-7.1914,-7.1055,-7.0234,-6.9453,-6.8515,-6.7695,-6.6989,-6.6705,-6.6595,-6.654,-6.6299,-6.6205,-6.6185,-6.6185,-6.6185,-6.6185,-6.6185,-6.6185,-6.6185,-6.6185,-6.6185,-6.665,-6.839,-7.0092,-7.1794,-7.3535,-7.5237,-7.6397,-7.6397,-7.6397,-7.6088,-7.5121,-7.4386,-7.3574,-7.2607,-7.1794,-7.1291,-7.1291,-7.1291,-7.1291,-7.1291,-7.1291,-7.1291,-7.1291,-7.1291,-7.1291,-7.1291,-7.1369,-7.1772,-7.2476,-7.2609,-7.3344,-7.478,-7.4826,-7.5245,-7.6015,-7.6015,-7.6015,-7.6015,-7.6015,-7.6015,0.0,0.0,0.0,0.0,-5.1406,0.0,-5.2305,-5.2031,-5.2109,0.0,0.0,0.0,0.0,0.0,0.0,0.0,-5.4844,-5.5586,-5.6484,-5.6601,-5.6601,-5.6601,-5.6601,-5.6601,-5.6601,-5.8164,-5.9219,-5.9219,-6.0742,-6.1719,-6.1719,-6.1719,-6.1719,-6.1719,-6.1719,-6.1719,-6.1719,-6.3242,-6.4219,-6.4609,-6.7734,-6.9375,-6.9726,-7.1289,-7.1992,-7.1992,-7.1992,-7.1992,-7.1992,-7.1992,-7.1992,-7.1914,-7.1055,-7.0586,-7.0273,-6.875,-6.8003,-6.7668,-6.6943,-6.6571,-6.6429,-6.6361,-6.6281,-6.6185,-6.6185,-6.6185,-6.6185,-6.6185,-6.6185,-6.6185,-6.6185,-6.6185,-6.665,-6.839,-7.0092,-7.1794,-7.3535,-7.5237,-7.6397,-7.6397,-7.6397,-7.5933,-7.4386,-7.3999,-7.338,-7.1794,-7.1407,-7.1291,-7.1291,-7.1291,-7.1291,-7.1291,-7.1291,-7.1291,-7.1291,-7.1291,-7.1291,-7.1291,-7.1949,-7.2413,-7.2584,-7.3753,-7.4565,-7.4861,-7.5471,-7.5822,-7.6015,-7.6015,-7.6015,-7.6015,-7.6015,-7.6015,0.0,0.0,0.0,-5.1406,-5.1406,0.0,0.0,-5.1719,-5.1758,-5.3086,-5.2656,0.0,0.0,0.0,0.0,-5.3281,-5.3711,-5.4297,-5.5195,-5.6055,-5.6601,-5.6601,-5.6601,-5.6758,-5.7226,-5.8437,-5.9531,-6.039,-6.1211,-6.1719,-6.1719,-6.1719,-6.1719,-6.1719,-6.1719,-6.1719,-6.1719,-6.3437,-6.4297,-6.4336,-6.7812,-6.9492,-6.9492,-7.1211,-7.1992,-7.1992,-7.1992,-7.1992,-7.1992,-7.1992,-7.1992,-7.1953,-7.1523,-7.1094,-7.0547,-6.9214,-6.8418,-6.7844,-6.6906,-6.6477,-6.6377,-6.6325,-6.6235,-6.6185,-6.6185,-6.6185,-6.6185,-6.6185,-6.6185,-6.6185,-6.6185,-6.6843,-6.7926,-6.9628,-7.1369,-7.3071,-7.4773,-7.5817,-7.6397,-7.6397,-7.6397,-7.5856,-7.4193,-7.3883,-7.3303,-7.1562,-7.1291,-7.1291,-7.1291,-7.1291,-7.1291,-7.1291,-7.1291,-7.1291,-7.1291,-7.1291,-7.1485,-7.191,-7.2375,-7.2932,-7.3712,-7.4488,-7.5079,-7.5435,-7.5827,-7.6015,-7.6015,-7.6015,-7.6015,-7.6015,-7.6015,-7.6015,0.0,0.0,0.0,0.0,0.0,-5.1406,0.0,0.0,0.0,0.0,0.0,0.0,0.0,0.0,0.0,0.0,0.0,0.0,0.0,-5.5,0.0,-5.6094,-5.6094,-5.6523,-5.7539,-5.8711,-6.0078,-6.1601,-6.1719,-6.1719,-6.1719,-6.1719,-6.1719,-6.1719,-6.1719,-6.1797,-6.1953,-6.3515,-6.4375,-6.4609,-6.789,-6.9492,-6.9531,-7.1211,-7.1992,-7.1992,-7.1992,-7.1992,-7.1992,-7.1992,-7.1992,-7.1992,-7.1992,-7.1562,-7.0859,-6.99,-6.8979,-6.805,-6.6997,-6.6524,-6.6359,-6.6245,-6.6185,-6.6185,-6.6185,-6.6185,-6.6185,-6.6185,-6.6185,-6.6263,-6.6611,-6.7771,-6.9319,-7.133,-7.2877,-7.4347,-7.6049,-7.6397,-7.6397,-7.6397,-7.6243,-7.5662,-7.4154,-7.3883,-7.3303,-7.1562,-7.1291,-7.1291,-7.1291,-7.1291,-7.1291,-7.1291,-7.1291,-7.1291,-7.1291,-7.1446,-7.1833,-7.2568,-7.2916,-7.3632,-7.4874,-7.5067,-7.5424,-7.5976,-7.6015,-7.6015,-7.6015,-7.6015,-7.6015,-7.6015,-7.6015,-7.6015,0.0,0.0,0.0,0.0,-5.1406,-5.1406,0.0,0.0,-5.1445,-5.1523,0.0,0.0,0.0,0.0,0.0,0.0,0.0,0.0,-5.1797,-5.3203,-5.4297,-5.4297,-5.4297,-5.4922,-5.6601,-5.8867,-6.0664,-6.164,-6.1719,-6.1719,-6.1719,-6.1719,-6.1719,-6.1719,-6.1719,-6.207,-6.2851,-6.3828,-6.4687,-6.5508,-6.8203,-6.9453,-6.9453,-7.1211,-7.1992,-7.1992,-7.1992,-7.1992,-7.1992,-7.1992,-7.1992,-7.1992,-7.1992,-7.1953,-7.1757,-7.0796,-6.9845,-6.8827,-6.7889,-6.6984,-6.6215,-6.6195,-6.6185,-6.6185,-6.6185,-6.6185,-6.6185,-6.6185,-6.6185,-6.6572,-6.8119,-6.8661,-6.9628,-7.2839,-7.3767,-7.4347,-7.6049,-7.6397,-7.6397,-7.6397,-7.5779,-7.4966,-7.4077,-7.3883,-7.3303,-7.1562,-7.1291,-7.1291,-7.1291,-7.1291,-7.1291,-7.1291,-7.1291,-7.1291,-7.1291,-7.2026,-7.2491,-7.2607,-7.3999,-7.4854,-7.4975,-7.5632,-7.5985,-7.6015,-7.6015,-7.6015,-7.6015,-7.6015,-7.6015,-7.6015,-7.6015,-7.6015,0.0,0.0,0.0,0.0,0.0,0.0,-5.1523,0.0,-5.1406,0.0,0.0,0.0,0.0,0.0,0.0,0.0,-5.1484,0.0,0.0,0.0,-5.2851,0.0,0.0,0.0,-5.7148,-5.8789,-6.0039,-6.0898,-6.0937,-6.0937,-6.0937,-6.1445,-6.1719,-6.1719,-6.1719,-6.2109,-6.3008,-6.3867,-6.4726,-6.5625,-6.8203,-6.9414,-6.9453,-7.1211,-7.1992,-7.1992,-7.1992,-7.1992,-7.1992,-7.1992,-7.1992,-7.1992,-7.1992,-7.195,-7.1778,-7.0824,-6.9835,-6.8843,-6.7894,-6.699,-6.6185,-6.6185,-6.6185,-6.6185,-6.6185,-6.6185,-6.6185,-6.6185,-6.6185,-6.6611,-6.8352,-6.9512,-7.0866,-7.3303,-7.4657,-7.5546,-7.6243,-7.6397,-7.6397,-7.6397,-7.5701,-7.4839,-7.4038,-7.3496,-7.2767,-7.1581,-7.1337,-7.1345,-7.1426,-7.1337,-7.1291,-7.1291,-7.1291,-7.1485,-7.2026,-7.2375,-7.3032,-7.3999,-7.5128,-7.5723,-7.5697,-7.5911,-7.6005,-7.6015,-7.6015,-7.6015,-7.6015,-7.6015,-7.6015,-7.6015,-7.6015,-7.6015,-5.2969,0.0,0.0,0.0,0.0,0.0,0.0,0.0,0.0,0.0,0.0,0.0,0.0,0.0,0.0,0.0,0.0,-5.1328,0.0,0.0,0.0,0.0,0.0,0.0,0.0,-5.8398,-5.9453,-6.0039,-6.0078,-6.0156,-6.039,-6.1015,-6.1445,-6.168,-6.1719,-6.2226,-6.3359,-6.3984,-6.4844,-6.5976,-6.8281,-6.9414,-6.9453,-7.1211,-7.1992,-7.1992,-7.1992,-7.1992,-7.1992,-7.1992,-7.1992,-7.1992,-7.1992,-7.1902,-7.1682,-7.0995,-6.9954,-6.8815,-6.8113,-6.7114,-6.6185,-6.6185,-6.6185,-6.6185,-6.6185,-6.6185,-6.6185,-6.6185,-6.6533,-6.7307,-6.9048,-7.075,-7.2452,-7.4193,-7.5508,-7.6397,-7.6397,-7.6397,-7.6397,-7.6397,-7.5508,-7.4579,-7.3999,-7.3187,-7.2334,-7.1611,-7.1406,-7.1387,-7.1529,-7.1478,-7.1417,-7.1358,-7.158,-7.1936,-7.254,-7.3032,-7.391,-7.5318,-7.5916,-7.6185,-7.6172,-7.6048,-7.6015,-7.6015,-7.6015,-7.6015,-7.6015,-7.6015,-7.6015,-7.6015,-7.6015,-7.6015,0.0,0.0,0.0,-5.375,0.0,0.0,0.0,0.0,-5.1406,0.0,0.0,0.0,0.0,0.0,0.0,0.0,0.0,0.0,0.0,0.0,0.0,0.0,0.0,0.0,0.0,-5.7695,-5.9219,-5.9258,-5.9258,-5.957,-6.0351,-6.043,-6.082,-6.168,-6.1719,-6.2539,-6.4258,-6.4297,-6.5156,-6.6875,-6.8594,-6.9414,-6.9453,-7.1211,-7.1992,-7.1992,-7.1992,-7.1992,-7.1992,-7.1992,-7.1992,-7.1992,-7.1992,-7.1885,-7.1705,-7.1661,-7.0493,-6.8893,-6.8771,-6.7655,-6.6185,-6.6185,-6.6185,-6.6185,-6.6185,-6.6185,-6.6185,-6.6185,-6.7423,-6.9087,-7.0789,-7.2491,-7.4231,-7.5933,-7.6359,-7.6397,-7.6397,-7.6397,-7.6397,-7.6397,-7.5082,-7.3922,-7.3883,-7.3187,-7.2334,-7.1611,-7.152,-7.1536,-7.1677,-7.1694,-7.1641,-7.1489,-7.225,-7.2714,-7.2629,-7.4077,-7.5357,-7.6197,-7.6238,-7.6172,-7.6104,-7.602,-7.6015,-7.6015,-7.6015,-7.6015,-7.6015,-7.6015,-7.6015,-7.6015,-7.6015,-7.6015,0.0,0.0,-5.5351,-5.5664,0.0,0.0,0.0,0.0,0.0,0.0,0.0,0.0,0.0,0.0,0.0,0.0,0.0,0.0,0.0,0.0,0.0,0.0,0.0,0.0,0.0,0.0,-5.7734,-5.8281,-5.8359,-5.8711,-5.957,-6.0117,-6.0781,-6.168,-6.2265,-6.3125,-6.4297,-6.4883,-6.5742,-6.6914,-6.8633,-6.9453,-6.9531,-7.1211,-7.1992,-7.1992,-7.1992,-7.1992,-7.1992,-7.1992,-7.1992,-7.1992,-7.1992,-7.1885,-7.17,-7.17,-7.082,-6.9459,-6.8334,-6.7191,-6.6185,-6.6185,-6.6185,-6.6185,-6.6185,-6.6611,-6.7191,-6.7771,-6.8738,-7.0131,-7.2413,-7.3458,-7.4309,-7.6011,-7.6397,-7.6397,-7.6397,-7.6397,-7.6397,-7.6397,-7.5044,-7.3883,-7.3883,-7.2684,-7.1726,-7.164,-7.1551,-7.1542,-7.1741,-7.1746,-7.1883,-7.2426,-7.2679,-7.3243,-7.4305,-7.5365,-7.6076,-7.6335,-7.6263,-7.6185,-7.6159,-7.6048,-7.6015,-7.6015,-7.6015,-7.6015,-7.6015,-7.6015,-7.6015,-7.6015,-7.6015,-7.6015,-5.8281,-5.7734,0.0,-5.7461,-5.6211,0.0,-5.4219,0.0,-5.2695,0.0,0.0,0.0,0.0,0.0,0.0,0.0,0.0,0.0,0.0,-5.168,0.0,0.0,0.0,0.0,0.0,-5.6094,-5.6836,-5.7383,-5.7422,-5.7969,0.0,-5.9687,-6.0508,-6.164,-6.2539,-6.3437,-6.4297,-6.5156,-6.6055,-6.6914,-6.8672,-6.9492,-6.9531,-7.1211,-7.1992,-7.1992,-7.1992,-7.1992,-7.1992,-7.1992,-7.1992,-7.1992,-7.195,-7.1828,-7.17,-7.17,-7.0782,-6.9357,-6.7965,-6.692,-6.6185,-6.6185,-6.6417,-6.665,-6.665,-6.7462,-6.8313,-6.7965,-6.9551,-7.1562,-7.2336,-7.3651,-7.5044,-7.6127,-7.6397,-7.6397,-7.6397,-7.6397,-7.632,-7.6011,-7.4811,-7.3806,-7.3496,-7.2258,-7.1378,-7.1594,-7.1601,-7.1614,-7.178,-7.209,-7.2455,-7.2973,-7.3484,-7.4281,-7.5585,-7.614,-7.6386,-7.6338,-7.625,-7.6172,-7.6118,-7.6072,-7.6015,-7.6015,-7.6015,-7.6015,-7.6015,-7.6015,-7.6015,-7.6015,-7.6015,-7.6015]},{"header":{"parameterUnit":"m.s-1","parameterCategory":1,"la1":30.6,"la2":29.2853,"lo1":-89.7004,"lo2":-87.6739,"dy":0.0162,"dx":0.0183,"nx":112,"ny":82,"refTime":"2024-02-21T06:00:00:Z","depth":0,"parameterNumber":3,"parameterNumberName":"V-component_of_WINDS"},"data":[0.0,0.0,0.0,0.0,0.0,0.0,0.0,0.0,0.0,0.0,0.0,0.0,0.0,0.0,0.0,0.0,0.0,0.0,0.0,0.0,0.0,0.0,0.0,0.0,0.0,0.0,0.0,0.0,0.0,0.0,0.0,0.0,0.0,0.0,0.0,0.0,0.0,0.0,0.0,0.0,0.0,0.0,0.0,0.0,0.0,0.0,0.0,0.0,0.0,0.0,0.0,0.0,0.0,0.0,0.0,0.0,0.0,0.0,0.0,0.0,0.0,0.0,0.0,0.0,0.0,0.0,0.0,0.0,0.0,0.0,0.0,0.0,0.0,0.0,0.0,0.0,0.0,0.0,0.0,0.0,0.0,0.0,0.0,0.0,0.0,0.0,0.0,0.0,0.0,0.0,0.0855,0.231,0.3732,0.5098,0.6309,0.6577,0.6101,0.4704,0.0,0.0,0.0,0.0,0.0,0.0,0.0,0.0,0.0,0.0,0.0,0.0,0.0,0.0,0.0,0.0,0.0,0.0,0.0,0.0,0.0,0.0,0.0,0.0,0.0,0.0,0.0,0.0,0.0,0.0,0.0,0.0,0.0,0.0,0.0,0.0,0.0,0.0,0.0,0.0,0.0,0.0,0.0,0.0,0.0,0.0,0.0,0.0,0.0,0.0,0.0,0.0,0.0,0.0,0.0,0.0,0.0,0.0,0.0,0.0,0.0,0.0,0.0,0.0,0.0,0.0,0.0,0.0,0.0,0.0,0.0,0.0,0.0,0.0,0.0,0.0,0.0,0.0,0.0,0.0,0.0,0.0,0.0,0.0,0.0,0.0,0.0,0.0,0.0,0.0,0.0,0.0,0.0,0.0,0.0,0.0,0.0,0.0,0.0,0.0,0.0,0.0,0.0,0.0,0.2346,0.3803,0.5225,0.6172,0.6376,0.7517,0.7624,0.6118,0.0,0.0,0.0,0.0,0.0,0.0,0.0,0.0,0.0,0.0,0.0,0.0,0.0,0.0,0.0,0.0,0.0,0.0,0.0,0.0,0.0,0.0,0.0,0.0,0.0,0.0,0.0,0.0,0.0,0.0,0.0,0.0,0.0,0.0,0.0,0.0,0.0,0.0,0.0,0.0,0.0,0.0,0.0,0.0,0.0,0.0,0.0,0.0,0.0,0.0,0.0,0.0,0.0,0.0,0.0,0.0,0.0,0.0,0.0,0.0,0.0,0.0,0.0,0.0,0.0,0.0,0.0,0.0,0.0,0.0,0.0,0.0,0.0,0.0,0.0,0.0,0.0,0.0,0.0,0.0,0.0,0.0,0.0,0.0,0.0,0.0,0.0,0.0,0.0,0.0,0.0,0.0,0.0,0.0,0.0,0.0,0.0,0.0,0.0,0.0,0.0,0.0,0.0,0.2775,0.3869,0.5289,0.6706,0.7579,0.7579,0.8184,0.7954,0.6374,0.5721,0.0,0.0,0.0,0.0,0.0,0.0,0.0,0.0,0.0,0.0,0.0,0.0,0.0,0.0,0.0,0.0,0.0,0.0,0.0,0.0,0.0,0.0,0.0,0.0,0.0,0.0,0.0,0.0,0.0,0.0,0.0,0.0,0.0,0.0,0.0,0.0,0.0,0.0,0.0,0.0,0.0,0.0,0.0,0.0,0.0,0.0,0.0,0.0,0.0,0.0,0.0,0.0,0.0,0.0,0.0,0.0,0.0,0.0,0.0,0.0,0.0,0.0,0.0,0.0,0.0,0.0,0.0,0.0,0.0,0.0,0.0,0.0,0.0,0.0,0.0,0.0,0.0,0.0,0.0,0.0,0.0,0.0,0.0,0.0,0.0,0.0,0.0,0.0,0.0,0.0,0.0,0.0,0.0,0.0,0.0,0.0,0.0,0.0,0.0,0.0,0.0,0.0,0.418,0.5701,0.6836,0.7917,0.859,0.859,0.8562,0.806,0.6828,0.6728,0.0,0.0,0.0,0.0,0.0,0.0,0.0,0.0,0.0,0.0,0.0,0.0,0.0,0.0,0.0,0.0,0.0,0.0,0.0,0.0,0.0,0.0,0.0,0.0,0.0,0.0,0.0,0.0,0.0,0.0,0.0,0.0,0.0,0.0,0.0,0.0,0.0,0.0,0.0,0.0,0.0,0.0,0.0,0.0,0.0,0.0,0.0,0.0,0.0,0.0,0.0,0.0,0.0,0.0,0.0,0.0,0.0,0.0,0.0,0.0,0.0,0.0,0.0,0.0,0.0,0.0,0.0,0.0,0.0,0.0,0.0,0.0,0.0,0.0,0.0,0.0,0.0,0.0,0.0,0.0,0.0,0.0,0.0,0.0,0.0,0.0,0.0,0.0,0.0,0.0,0.0,0.0,0.0,0.0,0.0,0.0,0.0,0.0,0.0,0.0,0.0,0.0,0.6587,0.8307,0.8451,0.8523,0.859,0.859,0.8492,0.8307,0.805,0.8001,0.0,0.0,0.0,0.0,0.0,0.0,0.0,0.0,0.0,0.0,0.0,0.0,0.0,0.0,0.0,0.0,0.0,0.0,0.0,0.0,0.0,0.0,0.0,0.0,0.0,0.0,0.0,0.0,0.0,0.0,0.0,0.0,0.0,0.0,0.0,0.0,0.0,0.0,0.0,0.0,0.0,0.0,0.0,0.0,0.0,0.0,0.0,0.0,0.0,0.0,0.0,0.0,0.0,0.0,0.0,0.0,0.0,0.0,0.0,0.0,0.0,0.0,0.0,0.0,0.0,0.0,0.0,0.0,0.0,0.0,0.0,0.0,0.0,0.0,0.0,0.0,0.0,0.0,0.0,0.0,0.0,0.0,0.0,0.0,0.0,0.0,0.0,0.0,0.0,0.0,0.0,0.0,0.0,0.0,0.0,0.0,0.0,0.0,0.0,0.0,0.0,0.0,0.6019,0.7573,0.8512,0.859,0.859,0.859,0.8546,0.8443,0.8183,0.0,0.0,0.0,0.0,0.0,0.0,0.0,0.0,0.0,0.0,0.0,0.0,0.0,0.0,0.0,0.0,0.0,0.0,0.0,0.0,0.0,0.0,0.0,0.0,0.0,0.0,0.0,0.0,0.0,0.0,0.0,0.0,0.0,0.0,0.0,0.0,0.0,0.0,0.0,0.0,0.0,0.0,0.0,0.0,0.0,0.0,0.0,0.0,0.0,0.0,0.0,0.0,0.0,0.0,0.0,0.0,0.0,0.0,0.0,0.0,0.0,0.0,0.0,0.0,0.0,0.0,0.0,0.0,0.0,0.0,0.0,0.0,0.0,0.0,0.0,0.0,0.0,0.0,0.0,0.0,0.0,0.0,0.0,0.0,0.0,0.0,0.0,0.0,0.0,0.0,0.0,0.0,0.0,0.0,0.0,0.0,0.0,0.0,0.0,0.0,0.0,0.0,0.4179,0.595,0.7502,0.8512,0.859,0.859,0.859,0.8557,0.8448,0.8183,0.0,0.0,0.0,0.0,0.0,0.0,0.0,0.0,0.0,0.0,0.0,0.0,0.0,0.0,0.0,0.0,0.0,0.0,0.0,0.0,0.0,0.0,0.0,0.0,0.0,0.0,0.0,0.0,0.0,0.0,0.0,0.0,0.0,0.0,0.0,0.0,0.0,0.0,0.0,0.0,0.0,0.0,0.0,0.0,0.0,0.0,0.0,0.0,0.0,0.0,0.0,0.0,0.0,0.0,0.0,0.0,0.0,0.0,0.0,0.0,0.0,0.0,0.0,0.0,0.0,0.0,0.0,0.0,0.0,0.0,0.0,0.0,0.0,0.0,0.0,0.0,0.0,0.0,0.0,0.0,0.0,0.0,0.0,0.0,0.0,0.0,0.0,0.0,0.0,0.0,0.0,0.0,0.0,0.0,0.0,0.0,0.0,0.0,0.0,0.0,0.0,0.0,0.4313,0.6793,0.859,0.859,0.859,0.859,0.859,0.8486,0.8367,0.0,0.0,0.0,0.0,0.0,0.0,0.0,0.0,0.0,0.0,0.0,0.0,0.0,0.0,0.0,0.0,0.0,0.0,0.0,0.0,0.0,0.0,0.0,0.0,0.0,0.0,0.0,0.0,0.0,0.0,0.0,0.0,0.0,0.0,0.0,0.0,0.0,0.0,0.0,0.0,0.0,0.0,0.0,0.0,0.0,0.0,0.0,0.0,0.0,0.0,0.0,0.0,0.0,0.0,0.0,0.0,0.0,0.0,0.0,0.0,0.0,0.0,0.0,0.0,0.0,0.0,0.0,0.0,0.0,0.0,0.0,0.0,0.0,0.0,0.0,0.0,0.0,0.0,0.0,0.0,0.0,0.0,0.0,0.0,0.0,0.0,0.0,0.0,0.0,0.0,0.0,0.0,0.0,0.0,0.0,0.0,0.0,0.0,0.0,0.0,0.0,0.0,0.0,0.4313,0.6793,0.859,0.859,0.859,0.859,0.859,0.8557,0.8448,0.8183,0.0,0.0,0.0,0.0,0.0,0.0,0.0,0.0,0.0,0.0,0.0,0.0,0.0,0.0,0.0,0.0,0.0,0.0,0.0,0.0,0.0,0.0,0.0,0.0,0.0,0.0,0.0,0.0,0.0,0.0,0.0,0.0,0.0,0.0,0.0,0.0,0.0,0.0,0.0,0.0,0.0,0.0,0.0,0.0,0.0,0.0,0.0,0.0,0.0,0.0,0.0,0.0,0.0,0.0,0.0,0.0,0.0,0.0,0.0,0.0,0.0,0.0,0.0,0.0,0.0,0.0,0.0,0.0,0.0,0.0,0.0,0.0,0.0,0.0,0.0,0.0,0.0,0.0,0.0,0.0,0.0,0.0,0.0,0.0,0.0,0.0,0.0,0.0,0.0,0.0,0.0,0.0,0.0,0.0,0.0,0.0,0.0,0.0,0.0,0.0,0.0,0.0,0.5019,0.7121,0.859,0.859,0.859,0.859,0.859,0.859,0.8574,0.8511,0.0,0.0,0.0,0.0,0.0,0.0,0.0,0.0,0.0,0.0,0.0,0.0,0.0,0.0,0.0,0.0,0.0,0.0,0.0,0.0,0.0,0.0,0.0,0.0,0.0,0.0,0.0,0.0,0.0,0.0,0.0,0.0,0.0,0.0,0.0,0.0,0.0,0.0,0.0,0.0,0.0,0.0,0.0,0.0,0.0,0.0,0.0,0.0,0.0,0.0,0.0,0.0,0.0,0.0,0.0,0.0,0.0,0.0,0.0,0.0,0.0,0.0,0.0,0.0,0.0,0.0,0.0,0.0,0.0,0.0,0.0,0.0,0.0,0.0,0.0,0.0,0.0,0.0,0.0,0.0,0.0,0.0,0.0,0.0,0.0,0.0,0.0,0.0,0.0,0.0,0.0,0.0,0.0,0.0,0.0,0.0,0.0,0.0,0.0,0.0,0.0,0.0,0.617,0.7646,0.859,0.859,0.859,0.859,0.859,0.859,0.8668,0.8813,0.0,0.0,0.0,0.0,0.0,0.0,0.0,0.0,0.0,0.0,0.0,0.0,0.0,0.0,0.0,0.0,0.0,0.0,0.0,0.0,0.0,0.0,0.0,0.0,0.0,0.0,0.0,0.0,0.0,0.0,0.0,0.0,0.0,0.0,0.0,0.0,0.0,0.0,0.0,0.0,0.0,0.0,0.0,0.0,0.0,0.0,0.0,0.0,0.0,0.0,0.0,0.0,0.0,0.0,0.0,0.0,0.0,0.0,0.0,0.0,-0.1346,-0.1265,0.0,0.0,0.0,0.0,0.0,0.0,0.0,0.0,0.0,0.0,0.0,0.0,0.0,0.0,0.0,0.0,0.0,0.0,0.0,0.0,0.0,0.0,0.0,0.0,0.0,0.0,0.0,0.0,0.0,0.0,0.0,0.0,0.0,0.0,0.0,0.0,0.0,0.0,0.0,0.0,0.6234,0.7646,0.859,0.859,0.859,0.859,0.859,0.859,0.8607,0.8492,0.8394,0.0,0.0,0.0,0.0,0.0,0.0,0.0,0.0,0.0,0.0,0.0,0.0,0.0,0.0,0.0,0.0,0.0,0.0,0.0,0.0,0.0,0.0,0.0,0.0,0.0,0.0,0.0,0.0,0.0,0.0,0.0,0.0,0.0,0.0,0.0,0.0,0.0,0.0,0.0,0.0,0.0,0.0,0.0,0.0,0.0,0.0,0.0,0.0,0.0,0.0,0.0,0.0,0.0,0.0,0.0,0.0,0.0,0.0,0.0,-0.1058,-0.1051,0.0,0.0,0.0,0.0,0.0,0.0,0.0,0.0,0.0,0.0,0.0,0.0,0.0,0.0,0.0,0.0,0.0,0.0,0.0,0.0,0.0,0.0,0.0,0.0,0.0,0.0,0.0,0.0,0.0,0.0,0.0,0.0,0.0,0.0,0.0,0.0,0.0,0.0,0.0,0.0,0.7209,0.8075,0.859,0.859,0.859,0.859,0.859,0.859,0.8629,0.8701,0.8514,0.0,0.0,0.0,0.0,0.0,0.0,0.0,0.0,0.0,0.0,0.0,0.0,0.0,0.0,0.0,0.0,0.0,0.0,0.0,0.0,0.0,0.0,0.0,0.0,0.0,0.0,0.0,0.0,0.0,0.0,0.0,0.0,0.0,0.0,0.0,0.0,0.0,0.0,0.0,0.0,0.0,0.0,0.0,0.0,0.0,0.0,0.0,0.0,0.0,0.0,0.0,0.0,0.0,-0.1902,-0.1902,-0.1842,-0.1485,-0.1129,-0.0832,-0.077,-0.0715,-0.0722,-0.0762,0.0,0.0,0.0,0.0,0.0,0.0,0.0,0.0,0.0,0.0,0.0,0.0,0.0,0.0,0.0,0.0,0.0,0.0,0.0,0.0,0.0,0.0,0.0,0.0,0.0182,0.0724,0.2022,0.0,0.0,0.0,0.0,0.0,0.0,0.0,0.0,0.0,0.0,0.0,0.8274,0.8519,0.859,0.859,0.859,0.859,0.859,0.859,0.8717,0.8984,0.8695,0.8776,0.0,0.0,0.0,0.0,0.0,0.0,0.0,0.0,0.0,0.0,0.0,0.0,0.0,0.0,0.0,0.0,0.0,0.0,0.0,0.0,0.0,0.0,0.0,0.0,0.0,0.0,0.0,0.0,0.0,0.0,0.0,0.0,-0.1851,-0.1883,0.0,0.0,0.0,0.0,0.0,0.0,0.0,0.0,0.0,0.0,0.0,0.0,0.0,-0.1895,-0.1925,-0.1925,-0.1939,-0.1964,-0.1964,-0.1842,-0.1535,-0.1228,-0.0859,-0.0552,-0.0242,0.0,-0.0121,-0.012,0.0,0.0,0.0,0.0,0.0,0.0,0.0,0.0,0.0,0.0,0.0,0.0,0.0,0.0,0.0,0.0,0.0,0.0,0.0,0.0,0.0,0.0,0.0,0.0,0.0861,0.2089,0.3366,0.2757,0.235,0.3454,0.3627,0.3611,0.0,0.0,0.0,0.0,0.0,0.0,0.835,0.8519,0.859,0.859,0.859,0.859,0.859,0.859,0.859,0.8656,0.8906,0.8895,0.8695,0.8799,0.0,0.0,0.0,0.0,0.0,0.0,0.0,0.0,0.0,0.0,0.0,0.0,0.0,0.0,0.0,0.0,0.0,0.0,0.0,0.0,0.0,0.0,0.0,0.0,0.0,0.0,0.0,0.0,0.0,-0.1847,-0.1877,-0.1907,-0.1896,-0.188,0.0,0.0,0.0,0.0,0.0,0.0,0.0,0.0,0.0,-0.191,-0.1911,-0.1926,-0.1956,-0.1956,-0.1963,-0.1977,-0.1977,-0.1915,-0.1791,-0.1235,-0.0926,-0.0741,-0.0245,0.0,0.0,0.0,0.0,0.0,0.0,0.0,0.0,0.0,0.0,0.0,0.0,0.0,0.0,0.0,0.0,0.0,0.0,0.0,0.0,0.0,0.0,0.0,0.0,0.0543,0.1098,0.1108,0.2094,0.3446,0.4735,0.4565,0.4331,0.4885,0.4997,0.4972,0.4893,0.5479,0.0,0.0,0.0,0.8361,0.8497,0.8557,0.859,0.859,0.859,0.859,0.859,0.859,0.859,0.859,0.8917,0.9117,0.9189,0.9071,0.9007,0.0,0.0,0.0,0.0,0.0,0.0,0.0,0.0,0.0,0.0,0.0,0.0,0.0,0.0,0.0,0.0,0.0,0.0,0.0,0.0,0.0,0.0,0.0,0.0,0.0,0.0,0.0,0.0,-0.1866,-0.1896,-0.1928,-0.1918,-0.1906,0.0,0.0,0.0,0.0,0.0,0.0,-0.1896,-0.1898,-0.1911,-0.1941,-0.1943,-0.1954,-0.1977,-0.1977,-0.1977,-0.1977,-0.1977,-0.1977,-0.1853,-0.1296,-0.0926,-0.0864,-0.0247,0.0,0.0,0.0,0.0,0.0,0.0,0.0,0.0,0.0,0.0,0.0,0.0,0.0,0.0,0.0,0.0,0.0,0.0,0.0,0.0,0.0,0.0,0.0059,0.0421,0.127,0.2067,0.2397,0.3448,0.4674,0.5659,0.6154,0.6438,0.6422,0.6408,0.6377,0.6219,0.6363,0.0,0.7962,0.8182,0.8356,0.8562,0.859,0.859,0.859,0.859,0.859,0.859,0.859,0.8651,0.8723,0.905,0.9389,0.9661,0.9522,0.9408,0.9377,0.0,0.0,0.0,0.0,0.0,0.0,0.0,0.0,0.0,0.0,0.0,0.0,0.0,0.0,0.0,0.0,0.0,0.0,0.0,0.0,0.0,0.0,0.0,0.0,0.0,0.0,0.0,0.0,0.0,-0.1928,-0.1955,0.0,0.0,0.0,0.0,-0.1885,-0.1885,-0.1898,-0.1928,-0.1929,-0.1943,-0.1974,-0.1974,-0.1975,-0.1977,-0.1977,-0.1977,-0.1977,-0.1977,-0.1853,-0.1543,-0.1173,-0.0803,-0.0494,-0.0123,0.0,0.0,0.0,0.0,0.0,0.0,0.0,0.0,0.0,0.0,0.0,0.0,0.0,0.0,0.0,0.0,0.0,0.0,0.0,0.0,0.0,0.0,0.0301,0.1566,0.1949,0.2278,0.3507,0.48,0.5843,0.5908,0.6888,0.7805,0.78,0.78,0.7762,0.7649,0.0,0.804,0.8114,0.8258,0.8454,0.8573,0.859,0.859,0.859,0.859,0.859,0.859,0.859,0.8717,0.905,0.9455,0.9661,0.9728,0.9994,0.9848,0.9105,0.9324,0.0,0.0,0.0,0.0,0.0,0.0,0.0,0.0,0.0,0.0,0.0,0.0,0.0,0.0,0.0,0.0,0.0,0.0,0.0,0.0,0.0,0.0,0.0,0.0,0.0,0.0,0.0,0.0,-0.1928,-0.194,0.0,-0.1932,-0.1871,-0.1926,-0.1915,-0.1933,-0.1949,-0.196,-0.196,-0.1966,-0.1977,-0.1977,-0.1985,-0.2004,-0.2004,-0.2014,-0.2033,-0.2033,-0.1842,-0.1461,-0.1143,-0.0826,-0.0509,-0.0127,0.0,0.0,0.0,0.0,0.0,0.0,0.0,0.0,0.0,0.0,0.0,0.0,0.0,0.0,0.0,0.0,0.0,0.0,0.0,0.0,0.0,0.0,0.0122,0.0612,0.1964,0.3141,0.2772,0.5084,0.7051,0.6239,0.7103,0.8106,0.8106,0.7981,0.7883,0.7921,0.8059,0.8169,0.8263,0.8361,0.8459,0.8573,0.859,0.859,0.859,0.859,0.859,0.859,0.859,0.8717,0.905,0.9455,0.9794,0.9994,1.0127,1.006,0.9788,0.9408,0.9169,0.0,0.0,0.0,0.0,0.0,0.0,0.0,0.0,0.0,0.0,0.0,0.0,0.0,0.0,0.0,0.0,0.0,0.0,0.0,0.0,0.0,0.0,0.0,0.0,0.0,0.0,-0.1909,-0.1929,-0.194,-0.1947,-0.1947,-0.1947,-0.1947,-0.1947,-0.1964,-0.1977,-0.1977,-0.1986,-0.199,-0.199,-0.2001,-0.2015,-0.2034,-0.2034,-0.2044,-0.2128,-0.2128,-0.1806,-0.1354,-0.1096,-0.0774,-0.0323,-0.0065,0.0,0.0,0.0,0.0,0.0,0.0,0.0,0.0,0.0,0.0,0.0,0.0,0.0,0.0,0.0,0.0,0.0,0.0,0.0,0.0,0.0,0.0,0.0188,0.1127,0.2314,0.3374,0.3938,0.5788,0.7287,0.6904,0.7536,0.8172,0.8172,0.8106,0.8008,0.8108,0.8114,0.8174,0.8269,0.8296,0.8339,0.8454,0.8503,0.853,0.853,0.8562,0.859,0.859,0.8552,0.8679,0.905,0.9413,0.9811,1.0187,1.0148,1.005,0.9984,0.9276,0.9187,0.9704,0.0,0.0,0.0,0.0,0.0,0.0,0.0,0.0,0.0,0.0,0.0,0.0,0.0,0.0,0.0,0.0,0.0,0.0,0.0,0.0,0.0,0.0,0.0,-0.1883,-0.1913,-0.1871,-0.1933,-0.1959,-0.1977,-0.1977,-0.1977,-0.1977,-0.1977,-0.1977,-0.1978,-0.1978,-0.2004,-0.202,-0.202,-0.2049,-0.2128,-0.213,-0.213,-0.213,-0.2131,-0.2067,-0.1679,-0.1033,-0.0968,-0.0646,0.0,0.0,0.0,0.0,0.0,0.0,0.0,0.0,0.0,0.0,0.0,0.0,0.0,0.0,0.0,0.0,0.0,0.0,0.0,0.0,0.0,0.0,0.0,0.0,0.0646,0.3284,0.296,0.3025,0.7075,0.7011,0.6494,0.7852,0.8178,0.8183,0.8183,0.8183,0.8209,0.8147,0.813,0.813,0.813,0.8136,0.0,0.8231,0.835,0.8421,0.8416,0.8519,0.8584,0.8584,0.8486,0.8601,0.9111,0.9336,0.9717,1.0187,1.0123,0.985,0.9531,0.901,0.9325,1.0493,0.0,0.0,0.0,0.0,0.0,0.0,0.0,0.0,0.0,0.0,0.0,0.0,0.0,0.0,0.0,0.0,0.0,0.0,0.0,0.0,0.0,0.0,-0.161,-0.1858,-0.1926,-0.1939,-0.1962,-0.1971,-0.1977,-0.1977,-0.1977,-0.1977,-0.1977,-0.1996,-0.2007,-0.2007,-0.2035,-0.2052,-0.2052,-0.206,-0.2075,-0.2097,-0.2097,-0.2108,-0.2196,-0.1863,-0.1531,-0.1065,-0.0798,-0.0399,0.0,0.0,0.0,0.0,0.0,0.0,0.0,0.0,0.0,0.0,0.0,0.0,0.0,0.0,0.0,0.0,0.0,0.0,0.0,0.0,0.0,0.0,0.0,0.0,0.0194,0.0903,0.1546,0.2317,0.3475,0.5056,0.6333,0.6792,0.7706,0.8492,0.8492,0.8492,0.8454,0.8339,0.8318,0.8345,0.8426,0.8443,0.8454,0.8486,0.8519,0.8508,0.8426,0.8519,0.8552,0.847,0.8513,0.8823,0.9522,0.9624,0.9956,1.0518,1.0551,1.0326,1.0003,0.9791,0.9676,0.0,0.0,0.0,0.0,0.0,0.0,0.0,0.0,0.0,0.0,0.0,0.0,0.0,0.0,0.0,0.0,0.0,0.0,0.0,0.0,0.0,0.0,-0.1313,-0.127,-0.1522,-0.1645,-0.1773,-0.1789,-0.1915,-0.1977,-0.1977,-0.1988,-0.1994,-0.1994,-0.202,-0.2037,-0.2037,-0.2067,-0.2083,-0.2083,-0.2095,-0.2117,-0.2147,-0.2147,-0.2095,-0.1987,-0.1781,-0.137,-0.0822,-0.0616,-0.0342,0.0,0.0,0.0,0.0,0.0,0.0,0.0,0.0,0.0,0.0,0.0,0.0,0.0,0.0,0.0,0.0,0.0,0.0,0.0,0.0,0.0,0.0,0.0,0.0,0.0131,0.0722,0.1444,0.236,0.3602,0.5139,0.6498,0.7158,0.8005,0.859,0.859,0.859,0.0,0.8497,0.8448,0.8421,0.8437,0.8437,0.8437,0.8437,0.8486,0.8492,0.8426,0.8519,0.8562,0.8492,0.8508,0.0,0.0,0.0,0.951,0.9899,1.0234,0.0,0.0,0.0,0.9916,0.9909,0.9696,0.0,0.0,0.9243,0.8921,0.0,0.0,0.0,0.0,0.0,0.0,0.0,0.0,0.0,0.0,0.0,0.0,0.0,0.0,0.0,0.0,-0.0898,-0.0851,-0.0924,-0.1235,-0.1482,-0.1482,-0.1794,-0.1981,-0.1981,-0.2007,-0.2023,-0.2023,-0.2052,-0.2069,-0.2069,-0.2098,0.0,0.0,0.0,-0.2174,-0.2204,-0.2137,-0.201,-0.1684,-0.1614,-0.1192,-0.0491,-0.0491,-0.0281,0.0,0.0,0.0,0.0,0.0,0.0,0.0,0.0,0.0,0.0,0.0,0.0,0.0,0.0,0.0,0.0,0.0,0.0,0.0,0.0,0.0,0.0,0.0,0.0,0.0269,0.1546,0.195,0.2754,0.5503,0.6309,0.6777,0.8251,0.859,0.859,0.859,0.859,0.859,0.859,0.8503,0.8399,0.8291,0.8274,0.8274,0.8274,0.8372,0.8432,0.8421,0.8519,0.0,0.8568,0.8486,0.8481,0.8645,0.8887,0.8961,0.8961,0.9608,0.9812,0.9429,0.9678,1.0064,1.0521,1.0195,1.013,1.0253,0.9605,0.9426,0.0,0.0,0.0,0.0,0.0,0.0,0.0,0.0,0.0,0.0,0.0,0.0,0.0,0.0,0.0,-0.0841,-0.073,-0.0554,-0.0617,-0.0864,-0.1173,-0.1482,-0.1809,-0.2011,-0.2011,-0.2037,-0.2056,-0.2056,-0.2083,-0.2101,-0.2101,-0.2129,-0.2157,-0.2181,-0.2188,-0.2206,-0.2166,-0.1956,-0.1749,-0.1684,-0.1052,0.0,-0.0491,-0.021,-0.007,0.0,0.0,0.0,0.0,0.0,0.0,0.0,0.0,0.0,0.0,0.0,0.0,0.0,0.0,0.0,0.0,0.0,0.0,0.0,0.0,0.0,0.0,0.0,0.0,0.0067,0.0336,0.1277,0.2553,0.4294,0.557,0.6777,0.8251,0.859,0.859,0.859,0.859,0.859,0.859,0.8568,0.8546,0.8524,0.8519,0.8519,0.8519,0.8541,0.8519,0.8426,0.8519,0.8552,0.8459,0.8513,0.8695,0.8984,0.9365,0.9558,0.9558,0.9691,0.9871,1.0043,1.0109,1.032,1.0677,1.0346,1.0293,1.0585,0.9937,0.9666,0.0,0.0,0.0,0.0,0.0,0.0,0.0,0.0,0.0,0.0,0.0,-0.0059,-0.0177,0.0,-0.0302,-0.0422,-0.0367,-0.0247,-0.0247,-0.0684,-0.1062,-0.1249,-0.1697,-0.2024,-0.2039,-0.2068,-0.2087,-0.2087,-0.2114,-0.2139,-0.2154,-0.2169,-0.2191,-0.2222,-0.2222,-0.2097,-0.1984,-0.1771,-0.1493,-0.1145,-0.0715,-0.0429,-0.0215,-0.0072,0.0,0.0,0.0,0.0,0.0,0.0,0.0,0.0,0.0,0.0,0.0,0.0,0.0,0.0,0.0,0.0,0.0,0.0,0.0,0.0,0.0,0.0,0.0,0.0,0.0,0.0,0.0,0.1613,0.3356,0.4093,0.5971,0.7717,0.8451,0.859,0.859,0.859,0.859,0.859,0.859,0.859,0.859,0.859,0.859,0.859,0.859,0.859,0.8568,0.8508,0.8552,0.8562,0.8508,0.8557,0.8656,0.8851,0.9189,0.9322,0.9123,0.9661,0.9861,0.9655,1.0187,1.0459,1.0459,1.0259,1.0392,1.0717,1.0193,1.006,0.0,0.0,0.0,0.0,0.0,0.0,0.0,0.0,0.0,0.0,0.0,0.0,0.0,0.0,0.0,0.0,0.0,0.0,0.0,-0.0563,-0.1012,-0.1014,-0.1588,-0.2046,-0.2071,-0.2101,-0.2119,-0.2119,-0.2146,-0.2174,-0.2199,-0.2206,-0.2222,-0.2253,-0.2253,-0.2056,-0.1724,-0.1652,-0.13,-0.0584,-0.0511,-0.0292,0.0,0.0,0.0,0.0,0.0,0.0,0.0,0.0,0.0,0.0,0.0,0.0,0.0,0.0,0.0,0.0,0.0,0.0,0.0,0.0,0.0,0.0,0.0,0.0,0.0,0.0,0.0,0.0,0.0,0.1897,0.3924,0.4262,0.6353,0.8319,0.8588,0.866,0.866,0.866,0.866,0.866,0.866,0.866,0.8644,0.8595,0.859,0.859,0.859,0.8606,0.8622,0.8622,0.8644,0.866,0.866,0.866,0.866,0.866,0.8923,0.8923,0.8655,0.9466,0.9734,0.9192,1.0069,1.0471,1.027,1.027,1.0471,1.0806,1.0471,1.0458,0.0,0.0,0.0,0.0,0.0,0.0,0.0,0.0,0.0,0.0,0.0,0.0,0.0,0.0,0.0,0.0,0.0,0.0,0.0,-0.0563,-0.1015,-0.1092,-0.1691,-0.2101,-0.2104,-0.2132,-0.2217,-0.2217,-0.2177,-0.2196,-0.22,-0.2225,-0.2253,-0.2285,-0.2286,-0.2155,-0.1818,-0.1455,-0.102,-0.0584,-0.0219,-0.0073,0.0,0.0,0.0,0.0,0.0,0.0,0.0,0.0,0.0,0.0,0.0,0.0,0.0,0.0,0.0,0.0,0.0,0.0,0.0,0.0,0.0,0.0,0.0,0.0,0.0,0.0,0.0,0.0,0.0,0.1186,0.2718,0.4108,0.5705,0.7234,0.8559,0.8841,0.8841,0.8841,0.8841,0.8841,0.8841,0.8841,0.8834,0.8622,0.859,0.859,0.859,0.8682,0.8747,0.8747,0.8845,0.8841,0.8841,0.8841,0.8841,0.8841,0.891,0.891,0.8841,0.8979,0.9187,0.9463,0.9946,1.0291,1.056,1.056,1.0767,1.1111,1.0767,1.0701,0.0,0.0,0.0,0.0,0.0,0.0,0.0,0.0,0.0,0.0,0.0,0.0,0.0,0.0,0.0,0.0,0.0,0.0,0.0,-0.0634,-0.1092,-0.1108,-0.172,-0.2136,-0.2136,-0.2214,-0.2223,-0.2223,-0.2183,-0.2207,-0.2225,-0.2255,-0.2285,-0.2315,-0.2098,-0.1814,-0.1459,-0.1022,-0.0657,-0.0219,-0.0073,0.0,0.0,0.0,0.0,0.0,0.0,0.0,0.0,0.0,0.0,0.0,0.0,0.0,0.0,0.0,0.0,0.0,0.0,0.0,0.0,0.0,0.0,0.0,0.0,0.0,0.0,0.0,0.0,0.0,0.0,0.1051,0.2521,0.4128,0.559,0.7057,0.8601,0.8884,0.8884,0.8884,0.8884,0.8884,0.8884,0.8884,0.8847,0.8812,0.8796,0.8796,0.8796,0.8845,0.8878,0.8878,0.8852,0.8884,0.8884,0.8884,0.8884,0.8884,0.8884,0.8884,0.8884,0.9157,0.9226,0.9157,0.9712,0.9989,0.9989,1.0404,1.0681,1.0819,1.0889,1.104,0.0,0.0,0.0,0.0,0.0,0.0,0.0,0.0,0.0,0.0,0.0,0.0,0.0,0.0,0.0,0.0,0.0,0.0,0.0,-0.0511,-0.0973,-0.1118,-0.1669,-0.2087,-0.2223,-0.2223,-0.2223,-0.2223,-0.2191,-0.2222,-0.2174,-0.2282,-0.224,-0.2186,-0.1895,-0.1531,-0.1022,-0.073,-0.0365,0.0,0.0,0.0,0.0,0.0,0.0,0.0,0.0,0.0,0.0,0.0,0.0,0.0,0.0,0.0,0.0,0.0,0.0,0.0,0.0,0.0,0.0,0.0,0.0,0.0,0.0,0.0,0.0,0.0,0.0,0.0,0.0,0.078,0.2055,0.4102,0.5299,0.6641,0.8554,0.8976,0.8976,0.8976,0.8976,0.8976,0.8976,0.8976,0.8976,0.8976,0.8976,0.8954,0.889,0.8911,0.8944,0.8976,0.8976,0.8976,0.8976,0.8976,0.8976,0.8976,0.8976,0.8976,0.8976,0.9257,0.9327,0.9046,0.9678,0.9888,0.9608,1.0378,1.0728,1.0728,1.1147,1.1348,0.0,0.0,0.0,0.0,0.0,0.0,0.0,0.0,0.0,0.0,0.0,0.0,0.0,0.0,0.0,0.0,0.0,0.0,0.0,-0.032,-0.0649,-0.1053,-0.1401,-0.175,0.0,-0.2223,-0.2223,-0.2223,-0.221,-0.2174,-0.2175,-0.2228,-0.2186,-0.1822,-0.1822,-0.1385,-0.0657,-0.0584,-0.0365,0.0,0.0,0.0,0.0,0.0,0.0,0.0,0.0,0.0,0.0,0.0,0.0,0.0,0.0,0.0,0.0,0.0,0.0,0.0,0.0,0.0,0.0,0.0,0.0,0.0,0.0,0.0,0.0,0.0,0.0,0.0,0.0,0.0,0.0874,0.3925,0.4724,0.5594,0.8641,0.9291,0.9291,0.9291,0.9291,0.9291,0.9291,0.9291,0.9291,0.9291,0.9291,0.9209,0.8911,0.8987,0.9171,0.928,0.9291,0.9291,0.9291,0.9291,0.9291,0.9291,0.9291,0.9291,0.9291,0.9291,0.9291,0.9291,0.9723,0.9867,0.9867,1.0665,1.0959,1.1031,1.139,1.1606,0.0,0.0,0.0,0.0,0.0,0.0,0.0,0.0,0.0,0.0,0.0,0.0,0.0,0.0,0.0,0.0,0.0,0.0,0.0,-0.0258,-0.0521,-0.0666,-0.1208,0.0,0.0,0.0,0.0,-0.2184,-0.2222,-0.2253,-0.2274,-0.2095,-0.1895,-0.1822,-0.1312,-0.0875,-0.0584,-0.0365,-0.0146,0.0,0.0,0.0,0.0,0.0,0.0,0.0,0.0,0.0,0.0,0.0,0.0,0.0,0.0,0.0,0.0,0.0,0.0,0.0,0.0,0.0,0.0,0.0,0.0,0.0,0.0,0.0,0.0,0.0,0.0,0.0,0.0,0.0729,0.2039,0.4221,0.5456,0.6761,0.8868,0.9302,0.9302,0.9302,0.9302,0.9302,0.9302,0.9302,0.9302,0.9302,0.9302,0.9275,0.9193,0.922,0.9264,0.9302,0.9302,0.9302,0.9302,0.9302,0.9302,0.9302,0.9302,0.9302,0.9302,0.9302,0.9302,0.9302,0.9446,0.9663,0.9879,1.0383,1.075,1.1044,1.1404,1.1619,0.0,0.0,0.0,0.0,0.0,0.0,0.0,0.0,0.0,0.0,0.0,0.0,0.0,0.0,0.0,0.0,0.0,0.0,0.0,-0.0194,-0.0391,-0.0469,-0.0943,-0.1279,0.0,0.0,0.0,-0.2198,-0.2229,-0.2188,-0.2074,-0.1883,-0.1677,-0.1385,-0.0875,-0.0511,-0.0365,-0.0146,0.0,0.0,0.0,0.0,0.0,0.0,0.0,0.0,0.0,0.0,0.0,0.0,0.0,0.0,0.0,0.0,0.0,0.0,0.0,0.0,0.0,0.0,0.0,0.0,0.0,0.0,0.0,0.0,0.0,0.0,0.0,0.0,0.0,0.1166,0.2692,0.4293,0.5891,0.7412,0.8941,0.9302,0.9302,0.9302,0.9302,0.9302,0.9302,0.9302,0.9302,0.9302,0.9302,0.9302,0.9302,0.9302,0.9302,0.9302,0.9302,0.9302,0.9302,0.9302,0.9302,0.9302,0.9302,0.9302,0.9302,0.9302,0.9302,0.9302,0.9302,0.9446,0.9663,1.0239,1.0599,1.0822,1.1332,1.1619,0.0,0.0,0.0,0.0,0.0,0.0,0.0,0.0,0.0,0.0,0.0,0.0,0.0,0.0,0.0,0.0,0.0,0.0,0.0,0.0,-0.013,0.0,0.0,0.0,0.0,0.0,0.0,-0.2129,0.0,-0.2047,-0.1717,-0.1738,-0.1385,-0.0657,-0.0584,-0.0365,0.0,0.0,0.0,0.0,0.0,0.0,0.0,0.0,0.0,0.0,0.0,0.0,0.0,0.0,0.0,0.0,0.0,0.0,0.0,0.0,0.0,0.0,0.0,0.0,0.0,0.0,0.0,0.0,0.0,0.0,0.0,0.0,0.0,0.0,0.0,0.1239,0.2839,0.4366,0.5963,0.7485,0.9013,0.9302,0.9302,0.9302,0.9302,0.9302,0.9302,0.9302,0.9302,0.9302,0.9302,0.9302,0.9302,0.9302,0.9302,0.9302,0.9302,0.9302,0.9302,0.9302,0.9302,0.9302,0.9302,0.9302,0.9302,0.9302,0.9302,0.9302,0.9302,0.9302,0.9374,1.0095,1.0527,1.0599,1.1253,1.1619,0.0,0.0,0.0,0.0,0.0,0.0,0.0,0.0,0.0,0.0,0.0,0.0,0.0,0.0,0.0,0.0,0.0,0.0,0.0,0.0,0.0,-0.0132,0.0,-0.0606,-0.0741,-0.1077,0.0,0.0,-0.2088,-0.2047,-0.1717,-0.1449,-0.1094,-0.0584,-0.0292,-0.0073,0.0,0.0,0.0,0.0,0.0,0.0,0.0,0.0,0.0,0.0,0.0,0.0,0.0,0.0,0.0,0.0,0.0,0.0,0.0,0.0,0.0,0.0,0.0,0.0,0.0,0.0,0.0,0.0,0.0,0.0,0.0,0.0,0.0,0.0,0.0,0.204,0.4221,0.4584,0.6761,0.8796,0.923,0.9302,0.9302,0.9302,0.9302,0.9302,0.9302,0.9302,0.9302,0.9302,0.9302,0.9302,0.9302,0.9302,0.9302,0.9302,0.9302,0.9302,0.9302,0.9302,0.9302,0.9302,0.9302,0.9302,0.9302,0.9302,0.9302,0.9302,0.9302,0.959,1.0167,1.0383,1.0743,1.1332,1.1476,1.1619,0.0,0.0,0.0,0.0,0.0,0.0,0.0,0.0,0.0,0.0,0.0,0.0,0.0,0.0,0.0,0.0,0.0,0.0,0.0,0.0,0.0,0.0,-0.0133,0.0,-0.0471,-0.0673,-0.1013,0.0,-0.1595,-0.1623,-0.143,-0.1087,-0.073,-0.0365,-0.0146,0.0,0.0,0.0,0.0,0.0,0.0,0.0,0.0,0.0,0.0,0.0,0.0,0.0,0.0,0.0,0.0,0.0,0.0,0.0,0.0,0.0,0.0,0.0,0.0,0.0,0.0,0.0,0.0,0.0,0.0,0.0,0.0,0.0,0.0,0.0,0.0,0.2331,0.4729,0.4729,0.705,0.9302,0.9302,0.9302,0.9302,0.9302,0.9302,0.9302,0.9302,0.9302,0.9302,0.9302,0.9302,0.9302,0.9302,0.9302,0.9302,0.9302,0.9302,0.9302,0.9302,0.9302,0.9302,0.9302,0.9302,0.9302,0.9302,0.9302,0.9302,0.9302,0.9302,0.959,1.0239,1.0383,1.0822,1.1332,1.1548,1.1653,0.0,0.0,0.0,0.0,0.0,0.0,0.0,0.0,0.0,0.0,0.0,0.0,0.0,0.0,0.0,0.0,0.0,0.0,0.0,0.0,0.0,0.0,0.0,-0.0135,-0.0404,-0.0404,-0.0606,-0.101,-0.0967,-0.0987,-0.0999,-0.0724,-0.0438,0.0,0.0,0.0,0.0,0.0,0.0,0.0,0.0,0.0,0.0,0.0,0.0,0.0,0.0,0.0,0.0,0.0,0.0,0.0,0.0,0.0,0.0,0.0,0.0,0.0,0.0,0.0,0.0,0.0,0.0,0.0,0.0,0.0,0.0,0.0,0.0,0.0073,0.0219,0.2477,0.4729,0.4947,0.7195,0.9302,0.9302,0.9302,0.9302,0.9302,0.9302,0.9302,0.9302,0.9302,0.9302,0.9302,0.9302,0.9302,0.9302,0.9302,0.9302,0.9302,0.9302,0.9302,0.9302,0.9302,0.9302,0.9302,0.9302,0.9302,0.9302,0.9302,0.9302,0.9302,0.9302,0.9518,0.9951,1.0311,1.0684,1.1142,1.143,1.1728,0.0,0.0,0.0,0.0,0.0,0.0,0.0,0.0,0.0,0.0,0.0,0.0,0.0,0.0,0.0,0.0,0.0,0.0,0.0,0.0,0.0,0.0,0.0,0.0,0.0,0.0,0.0,0.0,-0.0345,-0.0281,-0.0563,-0.0576,-0.0438,0.0,0.0,0.0,0.0,0.0,0.0,0.0,0.0,0.0,0.0,0.0,0.0,0.0,0.0,0.0,0.0,0.0,0.0,0.0,0.0,0.0,0.0,0.0,0.0,0.0,0.0,0.0,0.0,0.0,0.0,0.0,0.0,0.0,0.0,0.0,0.0,0.0292,0.1603,0.3276,0.502,0.6326,0.7996,0.9302,0.9302,0.9302,0.9302,0.9302,0.9302,0.9302,0.9302,0.9302,0.9302,0.9302,0.9302,0.9302,0.9302,0.9302,0.9302,0.9302,0.9302,0.9302,0.9302,0.9302,0.9302,0.9302,0.9302,0.9302,0.9302,0.9302,0.9302,0.9302,0.9302,0.9663,1.0383,1.0455,1.0872,1.165,1.1723,1.1877,0.0,0.0,0.0,0.0,0.0,0.0,0.0,0.0,0.0,0.0,0.0,0.0,0.0,0.0,0.0,0.0,0.0,0.0,0.0,0.0,0.0,0.0,0.0,0.0,0.0,0.0,-0.0067,-0.0202,-0.0069,-0.014,-0.0491,-0.036,-0.0219,0.0,0.0,0.0,0.0,0.0,0.0,0.0,0.0,0.0,0.0,0.0,0.0,0.0,0.0,0.0,0.0,0.0,0.0,0.0,0.0,0.0,0.0,0.0,0.0,0.0,0.0,0.0,0.0,0.0,0.0,0.0,0.0,0.0,0.0,0.0,0.0,0.0365,0.1893,0.3494,0.5093,0.6616,0.8213,0.9302,0.9302,0.9302,0.9302,0.9302,0.9302,0.9302,0.9302,0.9302,0.9302,0.9302,0.9302,0.9302,0.9302,0.9302,0.9302,0.9302,0.9302,0.9302,0.9302,0.9302,0.9302,0.9302,0.9302,0.9302,0.9302,0.9302,0.9302,0.9302,0.9302,0.9663,1.0527,1.0601,1.1034,1.183,1.1911,1.2033,0.0,0.0,0.0,0.0,0.0,0.0,0.0,0.0,0.0,0.0,0.0,0.0,0.0,0.0,0.0,0.0,0.0,0.0,0.0,0.0,0.0,0.0,0.0,0.0,0.0,0.0,0.0,0.0,0.0,-0.0141,-0.0354,-0.0144,0.0,0.0,0.0,0.0,0.0,0.0,0.0,0.0,0.0,0.0,0.0,0.0,0.0,0.0,0.0,0.0,0.0,0.0,0.0,0.0,0.0,0.0,0.0,0.0,0.0,0.0,0.0,0.0,0.0,0.0,0.0,0.0,0.0,0.0,0.0,0.0,0.0,0.0438,0.233,0.3785,0.5165,0.705,0.843,0.9302,0.9302,0.9302,0.9302,0.9302,0.9302,0.9302,0.9302,0.9302,0.9302,0.9302,0.9302,0.9302,0.9302,0.9302,0.9302,0.9302,0.9302,0.9302,0.9302,0.9302,0.9302,0.9302,0.9302,0.9302,0.9302,0.9302,0.9302,0.9302,0.9302,0.968,1.057,1.0681,1.1129,1.1932,1.2054,1.2189,0.0,0.0,0.0,0.0,0.0,0.0,0.0,0.0,0.0,0.0,0.0,0.0,0.0,0.0,0.0,0.0,0.0,0.0,0.0,0.0,0.0,0.0,0.0,0.0,0.0,0.0,0.0,0.0,0.0,0.0,-0.0073,0.0,0.0,0.0,0.0,0.0,0.0,0.0,0.0,0.0,0.0,0.0,0.0,0.0,0.0,0.0,0.0,0.0,0.0,0.0,0.0,0.0,0.0,0.0,0.0,0.0,0.0,0.0,0.0,0.0,0.0,0.0,0.0,0.0,0.0,0.0,0.0,0.0,0.0,0.0657,0.3712,0.4584,0.5456,0.8357,0.923,0.9302,0.9302,0.9302,0.9302,0.9302,0.9302,0.9302,0.9302,0.9302,0.9302,0.9302,0.9302,0.9302,0.9302,0.9302,0.9302,0.9302,0.9302,0.9302,0.9302,0.9302,0.9302,0.9302,0.9302,0.9302,0.9302,0.9302,0.9302,0.9302,0.9302,0.9719,1.0712,1.0651,1.1231,1.225,1.2264,1.2345,0.0,0.0,0.0,0.0,0.0,0.0,0.0,0.0,0.0,0.0,0.0,0.0,0.0,0.0,0.0,0.0,0.0,0.0,0.0,0.0,0.0,0.0,0.0,0.0,0.0,0.0,0.0,0.0,0.0,0.0,0.0,0.0,0.0,0.0,0.0,0.0,0.0,0.0,0.0,0.0,0.0,0.0,0.0,0.0,0.0,0.0,0.0,0.0,0.0,0.0,0.0,0.0,0.0,0.0,0.0,0.0,0.0,0.0,0.0,0.0,0.0,0.0,0.0,0.0,0.0,0.0,0.0,0.0,0.0,0.0729,0.3857,0.6108,0.7779,0.9013,0.9302,0.9302,0.9302,0.9302,0.9302,0.9302,0.9302,0.9302,0.9302,0.9302,0.9302,0.9302,0.9302,0.9302,0.9302,0.9302,0.9302,0.9302,0.9302,0.9302,0.9302,0.9302,0.9302,0.9302,0.9302,0.9302,0.9302,0.9302,0.9302,0.9302,0.9378,0.9877,1.0737,1.0828,1.1415,1.2291,1.2379,1.2447,0.0,0.0,0.0,0.0,0.0,0.0,0.0,0.0,0.0,0.0,0.0,0.0,0.0,0.0,0.0,0.0,0.0,0.0,0.0,0.0,0.0,0.0,0.0,0.0,0.0,0.0,0.0,0.0,0.0,0.0,0.0,0.0,0.0,0.0,0.0,0.0,0.0,0.0,0.0,0.0,0.0,0.0,0.0,0.0,0.0,0.0,0.0,0.0,0.0,0.0,0.0,0.0,0.0,0.0,0.0,0.0,0.0,0.0,0.0,0.0,0.0,0.0,0.0,0.0,0.0,0.0,0.0,0.0,0.0657,0.1894,0.4148,0.6978,0.9302,0.9302,0.9302,0.9302,0.9302,0.9302,0.9302,0.9302,0.9302,0.9302,0.9302,0.9302,0.9302,0.9302,0.9302,0.9302,0.9302,0.9302,0.9302,0.9302,0.9302,0.9302,0.9302,0.9302,0.9302,0.9302,0.9302,0.9302,0.9302,0.9302,0.9318,0.9356,0.959,1.0036,1.0854,1.1126,1.1625,1.2352,1.2454,1.2501,0.0,0.0,0.0,0.0,0.0,0.0,0.0,0.0,0.0,0.0,0.0,0.0,0.0,0.0,0.0,0.0,0.0,0.0,0.0,0.0,0.0,0.0,0.0,0.0,0.0,0.0,0.0,0.0,0.0,0.0,0.0,0.0,0.0,0.0,0.0,0.0,0.0,0.0,0.0,0.0,0.0,0.0,0.0,0.0,0.0,0.0,0.0,0.0,0.0,0.0,0.0,0.0,0.0,0.0,0.0,0.0,0.0,0.0,0.0,0.0,0.0,0.0,0.0,0.0,0.0,0.0,0.0,0.0,0.2258,0.4657,0.4657,0.6978,0.9302,0.9302,0.9302,0.9302,0.9302,0.9302,0.9302,0.9302,0.9302,0.9302,0.9302,0.9302,0.9302,0.9302,0.9302,0.9302,0.9302,0.9302,0.9302,0.9302,0.9302,0.9302,0.9302,0.9302,0.9302,0.9302,0.9302,0.9302,0.9302,0.9302,0.9362,0.9481,0.9928,1.0426,1.1066,1.1524,1.1983,1.2501,1.2501,1.2501,0.0,0.0,0.0,0.0,0.0,0.0,0.0,0.0,0.0,0.0,0.0,0.0,0.0,0.0,0.0,0.0,0.0,0.0,0.0,0.0,0.0,0.0,0.0,0.0,0.0,0.0,0.0,0.0,0.0,0.0,0.0,0.0,0.0,0.0,0.0,0.0,0.0,0.0,0.0,0.0,0.0,0.0,0.0,0.0,0.0,0.0,0.0,0.0,0.0,0.0,0.0,0.0,0.0,0.0,0.0,0.0,0.0,0.0,0.0,0.0,0.0,0.0,0.0,0.0,0.0,0.0,0.0219,0.1239,0.3057,0.4947,0.5963,0.7779,0.9302,0.9302,0.9302,0.9302,0.9302,0.9302,0.9302,0.9302,0.9302,0.9302,0.9302,0.9302,0.9302,0.9302,0.9302,0.9302,0.9302,0.9302,0.9302,0.9302,0.9302,0.9302,0.9302,0.9302,0.9302,0.9302,0.9302,0.9302,0.9302,0.9383,0.9449,0.9487,1.0093,1.0603,1.1073,1.1619,1.2075,1.2501,1.2501,1.2501,0.0,0.0,0.0,0.0,0.0,0.0,0.0,0.0,0.0,0.0,0.0,0.0,0.0,0.0,0.0,0.0,0.0,0.0,0.0,0.0,0.0,0.0,0.0,0.0,0.0,0.0,0.0,0.0,0.0,0.0,0.0,0.0,0.0,0.0,0.0,0.0,0.0,0.0,0.0,0.0,0.0,0.0,0.0,0.0,0.0,0.0,0.0,0.0,0.0,0.0,0.0,0.0,0.0,0.0,0.0,0.0,0.0,0.0,0.0,0.0,0.0,0.0,0.0,0.0,0.0,0.0,0.0292,0.1893,0.3494,0.502,0.6616,0.814,0.9302,0.9302,0.9302,0.9302,0.9302,0.9302,0.9302,0.9302,0.9302,0.9302,0.9302,0.9302,0.9302,0.9302,0.9302,0.9302,0.9302,0.9302,0.9302,0.9302,0.9302,0.9302,0.9302,0.9302,0.9302,0.9302,0.9302,0.9302,0.9302,0.9421,0.9508,0.9552,1.0347,1.0862,1.1146,1.1843,1.2269,1.2501,1.2501,1.2501,0.0,0.0,0.0,0.0,0.0,0.0,0.0,0.0,0.0,0.0,0.0,0.0,0.0,0.0,0.0,0.0,0.0,0.0,0.0,0.0,0.0,0.0,0.0,0.0,0.0,0.0,0.0,0.0,0.0,0.0,0.0,0.0,0.0,0.0,0.0,0.0,0.0,0.0,0.0,0.0,0.0,0.0,0.0,0.0,0.0,0.0,0.0,0.0,0.0,0.0,0.0,0.0,0.0,0.0,0.0,0.0,0.0,0.0,0.0,0.0,0.0,0.0,0.0,0.0,0.0,0.0073,0.0511,0.2039,0.3639,0.5238,0.6761,0.8213,0.9302,0.9302,0.9302,0.9302,0.9302,0.9302,0.9302,0.9302,0.9302,0.9302,0.9302,0.9302,0.9302,0.9302,0.9302,0.9302,0.9302,0.9302,0.9302,0.9302,0.9302,0.9302,0.9302,0.9302,0.9302,0.9302,0.9302,0.9307,0.9318,0.9432,0.9557,0.9677,1.0638,1.1223,1.1417,1.2114,1.2501,1.2501,1.2501,1.2501,0.0,0.0,0.0,0.0,0.0,0.0,0.0,0.0,0.0,0.0,0.0,0.0,0.0,0.0,0.0,0.0,0.0,0.0,0.0,0.0,0.0,0.0,0.0,0.0,0.0,0.0,0.0,0.0,0.0,0.0,0.0,0.0,0.0,0.0,0.0,0.0,0.0,0.0,0.0,0.0,0.0,0.0,0.0,0.0,0.0,0.0,0.0,0.0,0.0,0.0,0.0,0.0,0.0,0.0,0.0,0.0,0.0,0.0,0.0,0.0,0.0,0.0,0.0,0.0,0.0,0.0802,0.2111,0.3712,0.5238,0.6833,0.8357,0.9013,0.9302,0.9302,0.9302,0.9302,0.9302,0.9302,0.9302,0.9302,0.9302,0.9302,0.9302,0.9302,0.9302,0.9302,0.9302,0.9302,0.9302,0.9302,0.9302,0.9302,0.9302,0.9302,0.9302,0.9302,0.9302,0.9302,0.9302,0.9345,0.9438,0.9563,0.9682,0.9796,1.0762,1.1541,1.2192,1.2424,1.2501,1.2501,1.2501,1.2501,0.0,0.0,0.0,0.0,0.0,0.0,0.0,0.0,0.0,0.0,0.0,0.0,0.0,0.0,0.0,0.0,0.0,0.0,0.0,0.0,0.0,0.0,0.0,0.0,0.0,0.0,0.0,0.0,0.0,0.0,0.0,0.0,0.0,0.0,0.0,0.0,0.0,0.0,0.0,0.0,0.0,0.0,0.0,0.0,0.0,0.0,0.0,0.0,0.0,0.0,0.0,0.0,0.0,0.0,0.0,0.0,0.0,0.0,0.0,0.0,0.0,0.0,0.0,0.0146,0.0875,0.2184,0.3567,0.4439,0.5818,0.734,0.8868,0.9302,0.9302,0.9302,0.9302,0.9302,0.9302,0.9302,0.9302,0.9302,0.9302,0.9302,0.9302,0.9302,0.9302,0.9302,0.9302,0.9302,0.9302,0.9302,0.9302,0.9302,0.9302,0.9302,0.9302,0.9302,0.9302,0.9302,0.9356,0.9416,0.9487,0.9655,0.9954,1.0455,1.0993,1.1727,1.2501,1.2501,1.2501,1.2501,1.2501,1.2501,0.0,0.0,0.0,0.0,0.0,0.0,0.0,0.0,0.0,0.0,0.0,0.0,0.0,0.0,0.0,0.0,0.0,0.0,0.0,0.0,0.0,0.0,0.0,0.0,0.0,0.0,0.0,0.0,0.0,0.0,0.0,0.0,0.0,0.0,0.0,0.0,0.0,0.0,0.0,0.0,0.0,0.0,0.0,0.0,0.0,0.0,0.0,0.0,0.0,0.0,0.0,0.0,0.0,0.0,0.0,0.0,0.0,0.0,0.0,0.0,0.0,0.0,0.0,0.0292,0.182,0.3419,0.4729,0.502,0.6181,0.7634,0.8941,0.9302,0.9302,0.9302,0.9302,0.9302,0.9302,0.9302,0.9302,0.9302,0.9302,0.9302,0.9302,0.9302,0.9302,0.9302,0.9302,0.9302,0.9302,0.9302,0.9302,0.9302,0.9302,0.9302,0.9302,0.9318,0.9334,0.9334,0.9427,0.9503,0.9541,0.9748,1.0295,1.1262,1.1262,1.1727,1.2501,1.2501,1.2501,1.2501,1.2501,1.2501,0.0,0.0,0.0,0.0,0.0,0.0,0.0,0.0,0.0,0.0,0.0,0.0,0.0,0.0,0.0,0.0,0.0,0.0,0.0,0.0,0.0,0.0,0.0,0.0,0.0,0.0,0.0,0.0,0.0,0.0,0.0,0.0,0.0,0.0,0.0,0.0,0.0,0.0,0.0,0.0,0.0,0.0,0.0,0.0,0.0,0.0,0.0,0.0,0.0,0.0,0.0,0.0,0.0,0.0,0.0,0.0,0.0,0.0,0.0,0.0,0.0,0.0,0.0,0.0292,0.182,0.3419,0.4947,0.6253,0.7779,0.9013,0.923,0.9302,0.9302,0.9302,0.9302,0.9302,0.9302,0.9302,0.9302,0.9302,0.9302,0.9302,0.9302,0.9302,0.9302,0.9302,0.9302,0.9302,0.9302,0.9302,0.9302,0.9302,0.9302,0.9302,0.9302,0.94,0.9459,0.9459,0.9476,0.9579,0.9775,0.9916,1.0385,1.1262,1.1262,1.1727,1.2501,1.2501,1.2501,1.2501,1.2501,1.2501,0.0,0.0,0.0,0.0,0.0,0.0,0.0,0.0,0.0,0.0,0.0,0.0,0.0,0.0,0.0,0.0,0.0,0.0,0.0,0.0,0.0,0.0,0.0,0.0,0.0,0.0,0.0,0.0,0.0,0.0,0.0,0.0,0.0,0.0,0.0,0.0,0.0,0.0,0.0,0.0,0.0,0.0,0.0,0.0,0.0,0.0,0.0,0.0,0.0,0.0,0.0,0.0,0.0,0.0,0.0,0.0,0.0,0.0,0.0,0.0,0.0,0.0,0.0,0.0438,0.2839,0.4148,0.5165,0.7562,0.8724,0.9302,0.9302,0.9302,0.9302,0.9302,0.9302,0.9302,0.9302,0.9302,0.9302,0.9302,0.9302,0.9302,0.9302,0.9302,0.9302,0.9302,0.9302,0.9302,0.9302,0.9302,0.9302,0.9302,0.9362,0.94,0.94,0.9514,0.9612,0.9671,0.9677,0.9753,0.9927,1.0142,1.0641,1.1262,1.1495,1.1882,1.2501,1.2501,1.2501,1.2501,1.2501,1.2501,0.0,0.0,0.0,0.0,0.0,0.0,0.0,0.0,0.0,0.0,0.0,0.0,0.0,0.0,0.0,0.0,0.0,0.0,0.0,0.0,0.0,0.0,0.0,0.0,0.0,0.0,0.0,0.0,0.0,0.0,0.0,0.0,0.0,0.0,0.0,0.0,0.0,0.0,0.0,0.0,0.0,0.0,0.0,0.0,0.0,0.0,0.0,0.0,0.0,0.0,0.0,0.0,0.0,0.0,0.0,0.0,0.0,0.0,0.0,0.0,0.0,0.0,0.0219,0.1094,0.3857,0.4947,0.5818,0.8507,0.9302,0.9302,0.9302,0.9302,0.9302,0.9302,0.9302,0.9302,0.9302,0.9302,0.9302,0.9302,0.9302,0.9302,0.9302,0.9302,0.9302,0.9302,0.9302,0.9302,0.9302,0.9302,0.9313,0.9345,0.9432,0.9508,0.9563,0.9655,0.9758,0.9873,0.9878,0.9921,1.0014,1.0408,1.0796,1.1262,1.1727,1.2114,1.2501,1.2501,1.2501,1.2501,1.2501,1.2501,0.0,0.0,0.0,0.0,0.0,0.0,0.0,0.0,0.0,0.0,0.0,0.0,0.0,0.0,0.0,0.0,0.0,0.0,0.0,0.0,0.0,0.0,0.0,0.0,0.0,0.0,0.0,0.0,0.0,0.0,0.0,0.0,0.0,0.0,0.0,0.0,0.0,0.0,0.0,0.0,0.0,0.0,0.0,0.0,0.0,0.0,0.0,0.0,0.0,0.0,0.0,0.0,0.0,0.0,0.0,0.0,0.0,0.0,0.0,0.0,0.0,0.0,0.0948,0.2475,0.4148,0.5673,0.7195,0.8868,0.9302,0.9302,0.9302,0.9302,0.9302,0.9302,0.9302,0.9302,0.9302,0.9302,0.9302,0.9302,0.9302,0.9302,0.9302,0.9302,0.9302,0.9302,0.9302,0.9302,0.9302,0.9302,0.9345,0.9459,0.9481,0.9574,0.9791,0.9818,0.9878,0.9998,1.0008,1.0008,1.0019,1.0408,1.0796,1.1262,1.1727,1.2114,1.2501,1.2501,1.2501,1.2501,1.2501,1.2501,0.0,0.0,0.0,0.0,0.0,0.0,0.0,0.0,0.0,0.0,0.0,0.0,0.0,0.0,0.0,0.0,0.0,0.0,0.0,0.0,0.0,0.0,0.0,0.0,0.0,0.0,0.0,0.0,0.0,0.0,0.0,0.0,0.0,0.0,0.0,0.0,0.0,0.0,0.0,0.0,0.0,0.0,0.0,0.0,0.0,0.0,0.0,0.0,0.0,0.0,0.0,0.0,0.0,0.0,0.0,0.0,0.0,0.0,0.0,0.0,0.0,0.0,0.1021,0.2621,0.4221,0.5746,0.734,0.8868,0.9302,0.9302,0.9302,0.9302,0.9302,0.9302,0.9302,0.9302,0.9302,0.9302,0.9302,0.9302,0.9302,0.9302,0.9302,0.9302,0.9302,0.9302,0.9302,0.9334,0.941,0.9416,0.9465,0.959,0.9666,0.9769,0.9938,0.9949,0.997,1.0019,1.0019,1.0019,1.0019,1.0641,1.1107,1.1262,1.196,1.2347,1.2501,1.2501,1.2501,1.2501,1.2501,1.2501,0.0,0.0,0.0,0.0,0.0,0.0,0.0,0.0,0.0,0.0,0.0,0.0,0.0,0.0,0.0,0.0,0.0,0.0,0.0,0.0,0.0,0.0,0.0,0.0,0.0,0.0,0.0,0.0,0.0,0.0,0.0,0.0,0.0,0.0,0.0,0.0,0.0,0.0,0.0,0.0,0.0,0.0,0.0,0.0,0.0,0.0,0.0,0.0,0.0,0.0,0.0,0.0,0.0,0.0,0.0,0.0,0.0,0.0,0.0,0.0,0.0,0.0,0.1384,0.3276,0.4366,0.6108,0.7923,0.9013,0.9302,0.9302,0.9302,0.9302,0.9302,0.9302,0.9302,0.9302,0.9302,0.9302,0.9302,0.9302,0.9302,0.9302,0.9302,0.9302,0.9302,0.9302,0.9334,0.9394,0.9476,0.9519,0.959,0.9709,0.9824,0.9927,1.0014,1.0019,1.0019,1.0019,1.0019,1.0019,1.0019,1.0719,1.1184,1.1262,1.196,1.2347,1.2501,1.2501,1.2501,1.2501,1.2501,1.2501,0.0,0.0,0.0,0.0,0.0,0.0,0.0,0.0,0.0,0.0,0.0,0.0,0.0,0.0,0.0,0.0,0.0,0.0,0.0,0.0,0.0,0.0,0.0,0.0,0.0,0.0,0.0,0.0,0.0,0.0,0.0,0.0,0.0,0.0,0.0,0.0,0.0,0.0,0.0,0.0,0.0,0.0,0.0,0.0,0.0,0.0,0.0,0.0,0.0,0.0,0.0,0.0,0.0,0.0,0.0,0.0,0.0,0.0,0.0,0.0,0.0,0.0,0.2113,0.4729,0.4729,0.6833,0.9302,0.9302,0.9302,0.9302,0.9302,0.9302,0.9302,0.9302,0.9302,0.9302,0.9302,0.9302,0.9302,0.9302,0.9302,0.9302,0.9302,0.9302,0.9302,0.9307,0.941,0.9487,0.9492,0.9595,0.9715,0.9829,0.9949,1.0019,1.0019,1.0019,1.0019,1.0019,1.0019,1.0019,1.0019,1.0408,1.0796,1.1262,1.1727,1.2114,1.2501,1.2501,1.2501,1.2501,1.2501,1.2501,0.0,0.0,0.0,0.0,0.0,0.0,0.0,0.0,0.0,0.0,0.0,0.0,0.0,0.0,0.0,0.0,0.0,0.0,0.0,0.0,0.0,0.0,0.0,0.0,0.0,0.0,0.0,0.0,0.0,0.0,0.0,0.0,0.0,0.0,0.0,0.0,0.0,0.0,0.0,0.0,0.0,0.0,0.0,0.0,0.0,0.0,0.0,0.0,0.0,0.0,0.0,0.0,0.0,0.0,0.0,0.0,0.0,0.0,0.0,0.0,0.0146,0.1239,0.2985,0.4875,0.5963,0.7706,0.9302,0.9302,0.9302,0.9302,0.9302,0.9302,0.9302,0.9302,0.9302,0.9302,0.9302,0.9302,0.9302,0.9302,0.9302,0.9302,0.9302,0.9302,0.9334,0.9421,0.9465,0.9546,0.9715,0.984,0.9927,0.9965,0.9998,1.0019,1.0019,1.0019,1.0019,1.0019,1.0019,1.0019,1.0019,1.0719,1.1184,1.1262,1.196,1.2347,1.2501,1.2501,1.2501,1.2501,1.2501,1.2501,0.0,0.0,0.0,0.0,0.0,0.0,0.0,0.0,0.0,0.0,0.0,0.0,0.0,0.0,0.0,0.0,0.0,0.0,0.0,0.0,0.0,0.0,0.0,0.0,0.0,0.0,0.0,0.0,0.0,0.0,0.0,0.0,0.0,0.0,0.0,0.0,0.0,0.0,0.0,0.0,0.0,0.0,0.0,0.0,0.0,0.0,0.0,0.0,0.0,0.0,0.0,0.0,0.0,0.0,0.0,0.0,0.0,0.0,0.0,0.0,0.0219,0.182,0.3419,0.502,0.6543,0.8068,0.9302,0.9302,0.9302,0.9302,0.9302,0.9302,0.9302,0.9302,0.9302,0.9302,0.9302,0.9302,0.9302,0.9302,0.9302,0.9302,0.9302,0.9345,0.94,0.9476,0.9568,0.9693,0.9883,0.9976,1.0019,1.0019,1.0019,1.0019,1.0019,1.0019,1.0019,1.0019,1.0019,1.0019,1.0019,1.0641,1.1107,1.1262,1.196,1.2347,1.2501,1.2501,1.2501,1.2501,1.2501,1.2501,0.0,0.0,0.0,0.0,0.0,0.0,0.0,0.0,0.0,0.0,0.0,0.0,0.0,0.0,0.0,0.0,0.0,0.0,0.0,0.0,0.0,0.0,0.0,0.0,0.0,0.0,0.0,0.0,0.0,0.0,0.0,0.0,0.0,0.0,0.0,0.0,0.0,0.0,0.0,0.0,0.0,0.0,0.0,0.0,0.0,0.0,0.0,0.0,0.0,0.0,0.0,0.0,0.0,0.0,0.0,0.0,0.0,0.0,0.0,0.0,0.0219,0.182,0.3419,0.502,0.6543,0.8068,0.9302,0.9302,0.9302,0.9302,0.9302,0.9302,0.9302,0.9302,0.9302,0.9302,0.9302,0.9302,0.9302,0.9302,0.9302,0.9307,0.9318,0.9416,0.9492,0.9514,0.9709,0.9894,1.0008,1.0019,1.0019,1.0019,1.0019,1.0019,1.0019,1.0019,1.0019,1.0019,1.0019,1.0019,1.0019,1.0408,1.0874,1.1262,1.1727,1.2114,1.2501,1.2501,1.2501,1.2501,1.2501,1.2508,0.0,0.0,0.0,0.0,0.0,0.0,0.0,0.0,0.0,0.0,0.0,0.0,0.0,0.0,0.0,0.0,0.0,0.0,0.0,0.0,0.0,0.0,0.0,0.0,0.0,0.0,0.0,0.0,0.0,0.0,0.0,0.0,0.0,0.0,0.0,0.0,0.0,0.0,0.0,0.0,0.0,0.0,0.0,0.0,0.0,0.0,0.0,0.0,0.0,0.0,0.0,0.0,0.0,0.0,0.0,0.0,0.0,0.0,0.0,0.0,0.0219,0.182,0.3419,0.502,0.6543,0.8068,0.9302,0.9302,0.9302,0.9302,0.9302,0.9302,0.9302,0.9302,0.9302,0.9302,0.9302,0.9302,0.9302,0.9302,0.9302,0.9334,0.9432,0.947,0.9552,0.9731,0.9889,0.9992,1.0019,1.0019,1.0019,1.0019,1.0019,1.0019,1.0019,1.0019,1.0019,1.0019,1.0019,1.0019,1.0019,1.0719,1.1184,1.1262,1.2037,1.2424,1.2501,1.2501,1.2501,1.2501,1.2501,1.2569,0.0,0.0,0.0,0.0,0.0,0.0,0.0,0.0,0.0,0.0,0.0,0.0,0.0,0.0,0.0,0.0,0.0,0.0,0.0,0.0,0.0,0.0,0.0,0.0,0.0,0.0,0.0,0.0,0.0,0.0,0.0,0.0,0.0,0.0,0.0,0.0,0.0,0.0,0.0,0.0,0.0,0.0,0.0,0.0,0.0,0.0,0.0,0.0,0.0,0.0,0.0,0.0,0.0,0.0,0.0,0.0,0.0,0.0,0.0,0.0,0.0365,0.2694,0.4003,0.5093,0.7412,0.8652,0.9302,0.9302,0.9302,0.9302,0.9302,0.9302,0.9302,0.9302,0.9302,0.9302,0.9302,0.9302,0.9302,0.9302,0.9351,0.941,0.9476,0.9579,0.9715,0.99,0.9981,1.0019,1.0019,1.0019,1.0019,1.0019,1.0019,1.0019,1.0019,1.0019,1.0019,1.0019,1.0019,1.0019,1.0019,1.0874,1.1262,1.1262,1.2114,1.2501,1.2501,1.2501,1.2501,1.2501,1.2576,1.2657,0.0,0.0,0.0,0.0,0.0,0.0,0.0,0.0,0.0,0.0,0.0,0.0,0.0,0.0,0.0,0.0,0.0,0.0,0.0,0.0,0.0,0.0,0.0,0.0,0.0,0.0,0.0,0.0,0.0,0.0,0.0,0.0,0.0,0.0,0.0,0.0,0.0,0.0,0.0,0.0,0.0,0.0,0.0,0.0,0.0,0.0,0.0,0.0,0.0,0.0,0.0,0.0,0.0,0.0,0.0,0.0,0.0,0.0,0.0,0.0,0.0438,0.3348,0.4439,0.5238,0.8068,0.9085,0.9302,0.9302,0.9302,0.9302,0.9302,0.9302,0.9302,0.9302,0.9302,0.9302,0.9302,0.9302,0.9307,0.9334,0.9465,0.9579,0.9579,0.9758,0.9927,1.0008,1.0019,1.0019,1.0019,1.0019,1.0019,1.0019,1.0019,1.0019,1.0019,1.0019,1.0019,1.0019,1.0019,1.0019,1.0019,1.0874,1.1262,1.1262,1.2114,1.2501,1.2501,1.2501,1.2501,1.2508,1.2657,1.2745,0.0,0.0,0.0,0.0,0.0,0.0,0.0,0.0,0.0,0.0,0.0,0.0,0.0,0.0,0.0,0.0,0.0,0.0,0.0,0.0,0.0,0.0,0.0,0.0,0.0,0.0,0.0,0.0,0.0,0.0,0.0,0.0,0.0,0.0,0.0,0.0,0.0,0.0,0.0,0.0,0.0,0.0,0.0,0.0,0.0,0.0,0.0,0.0,0.0,0.0,0.0,0.0,0.0,0.0,0.0,0.0,0.0,0.0,0.0,0.0,0.0292,0.2039,0.3567,0.502,0.6761,0.8213,0.9302,0.9302,0.9302,0.9302,0.9302,0.9302,0.9302,0.9302,0.9302,0.9302,0.9302,0.9302,0.9334,0.9443,0.9726,0.9949,0.9949,1.0063,1.0123,1.0036,1.0019,1.0019,1.0019,1.0019,1.0019,1.0019,1.0019,1.0019,1.0019,1.0019,1.0019,1.0019,1.0019,1.0019,1.0019,1.0874,1.1262,1.1262,1.2114,1.2501,1.2501,1.2501,1.2501,1.2508,1.2657,1.28,0.0,0.0,0.0,0.0,0.0,0.0,0.0,0.0,0.0,0.0,0.0,0.0,0.0,0.0,0.0,0.0,0.0,0.0,0.0,0.0,0.0,0.0,0.0,0.0,0.0,0.0,0.0,0.0,0.0,0.0,0.0,0.0,0.0,0.0,0.0,0.0,0.0,0.0,0.0,0.0,0.0,0.0,0.0,0.0,0.0,0.0,0.0,0.0,0.0,0.0,0.0,0.0,0.0,0.0,0.0,0.0,0.0,0.0,0.0,0.0,0.0438,0.2839,0.4148,0.5165,0.7562,0.8796,0.9302,0.9302,0.9302,0.9302,0.9302,0.9302,0.9302,0.9302,0.9302,0.9302,0.9302,0.9302,0.9378,0.9633,0.9921,1.0144,1.0215,1.0215,1.0182,1.0134,1.0063,1.0019,1.0019,1.0019,1.0019,1.0019,1.0019,1.0019,1.0019,1.0019,1.0019,1.0019,1.0019,1.0019,1.0019,1.0874,1.1262,1.1262,1.2114,1.2501,1.2501,1.2501,1.2549,1.263,1.2786,1.2942,0.0,0.0,0.0,0.0,0.0,0.0,0.0,0.0,0.0,0.0,0.0,0.0,0.0,0.0,0.0,0.0,0.0,0.0,0.0,0.0,0.0,0.0,0.0,0.0,0.0,0.0,0.0,0.0,0.0,0.0,0.0,0.0,0.0,0.0,0.0,0.0,0.0,0.0,0.0,0.0,0.0,0.0,0.0,0.0,0.0,0.0,0.0,0.0,0.0,0.0,0.0,0.0,0.0,0.0,0.0,0.0,0.0,0.0,0.0,0.0292,0.1021,0.3785,0.4947,0.5818,0.8502,0.9302,0.9302,0.9302,0.9302,0.9302,0.9302,0.9302,0.9302,0.9302,0.9302,0.9302,0.9302,0.9378,0.9525,0.9824,1.0106,1.0324,1.0411,1.0329,1.0242,1.021,1.0101,1.0019,1.0019,1.0019,1.0019,1.0019,1.0019,1.0019,1.0019,1.0019,1.0019,1.0019,1.0019,1.0019,1.0019,1.0874,1.1262,1.1262,1.2114,1.2501,1.2501,1.2542,1.2617,1.2732,1.2922,1.3071,0.0,0.0,0.0,0.0,0.0,0.0,0.0,0.0,0.0,0.0,0.0,0.0,0.0,0.0,0.0,0.0,0.0,0.0,0.0,0.0,0.0,0.0,0.0,0.0,0.0,0.0,0.0,0.0,0.0,0.0,0.0,0.0,0.0,0.0,0.0,0.0,0.0,0.0,0.0,0.0,0.0,0.0,0.0,0.0,0.0,0.0,0.0,0.0,0.0,0.0,0.0,0.0,0.0,0.0,0.0,0.0,0.0,0.0,0.0,0.0948,0.2475,0.4148,0.5673,0.7195,0.8796,0.9302,0.9302,0.9302,0.9302,0.9302,0.9302,0.9302,0.9302,0.9302,0.9302,0.9302,0.9302,0.9568,0.9851,0.9987,1.0297,1.0623,1.0629,1.0454,1.0335,1.0221,1.0101,1.0019,1.0019,1.0019,1.0019,1.0019,1.0019,1.0019,1.0019,1.0019,1.0019,1.0019,1.0019,1.0019,1.0019,1.0874,1.1262,1.1262,1.2114,1.2501,1.2501,1.2651,1.2725,1.2739,1.303,1.3166,0.0,0.0,0.0,0.0,0.0,0.0,0.0,0.0,0.0,0.0,0.0,0.0,0.0,0.0,0.0,0.0,0.0,0.0,0.0,0.0,0.0,0.0,0.0,0.0,0.0,0.0,0.0,0.0,0.0,0.0,0.0,0.0,0.0,0.0,0.0,0.0,0.0,0.0,0.0,0.0,0.0,0.0,0.0,0.0,0.0,0.0,0.0,0.0,0.0,0.0,0.0,0.0,0.0,0.0,0.0,0.0,0.0,0.0,0.0,0.1021,0.2548,0.4148,0.5746,0.7268,0.8868,0.9302,0.9302,0.9302,0.9302,0.9302,0.9302,0.9302,0.9302,0.9302,0.9302,0.9345,0.9503,0.9758,1.0014,1.0215,1.0481,1.0672,1.0672,1.0514,1.0373,1.0329,1.015,1.0019,1.0019,1.0019,1.0019,1.0019,1.0019,1.0019,1.0019,1.0019,1.0019,1.0019,1.0019,1.0019,1.0019,1.0874,1.1262,1.1262,1.2206,1.2651,1.2651,1.2705,1.2827,1.3017,1.3125,1.3227,0.0,0.0,0.0,0.0,0.0,0.0,0.0,0.0,0.0,0.0,0.0,0.0,0.0,0.0,0.0,0.0,0.0,0.0,0.0,0.0,0.0,0.0,0.0,0.0,0.0,0.0,0.0,0.0,0.0,0.0,0.0,0.0,0.0,0.0,0.0,0.0,0.0,0.0,0.0,0.0,0.0,0.0,0.0,0.0,0.0,0.0,0.0,0.0,0.0,0.0,0.0,0.0,0.0,0.0,0.0,0.0,0.0,0.0073,0.0583,0.1821,0.3346,0.4947,0.6543,0.7996,0.9013,0.9302,0.9302,0.9302,0.9302,0.9302,0.9302,0.9302,0.9302,0.9302,0.9367,0.9492,0.9737,0.9911,1.0095,1.034,1.0574,1.0737,1.0737,1.0541,1.0384,1.0384,1.0177,1.0019,1.0019,1.0019,1.0019,1.0019,1.0019,1.0019,1.0019,1.0019,1.0019,1.0019,1.0019,1.0019,1.0019,1.0874,1.1286,1.1407,1.2207,1.2779,1.2881,1.2881,1.2976,1.3173,1.3227,1.3302,0.0,0.0,0.0,0.0,0.0,0.0,0.0,0.0,0.0,0.0,0.0,0.0,0.0,0.0,0.0,0.0,0.0,0.0,0.0,0.0,0.0,0.0,0.0,0.0,0.0,0.0,0.0,0.0,0.0,0.0,0.0,0.0,0.0,0.0,0.0,0.0,0.0,0.0,0.0,0.0,0.0,0.0,0.0,0.0,0.0,0.0,0.0,0.0,0.0,0.0,0.0,0.0,0.0,0.0,0.0,0.0,0.0,0.0219,0.1748,0.3348,0.4947,0.6471,0.7996,0.9302,0.9302,0.9302,0.9302,0.9302,0.9302,0.9302,0.9302,0.9302,0.9302,0.9302,0.9492,0.9737,0.997,1.0025,1.0101,1.0351,1.0579,1.0737,1.0732,1.0541,1.0384,1.0384,1.0177,1.0019,1.0019,1.0019,1.0019,1.0019,1.0019,1.0019,1.0019,1.0019,1.0019,1.0019,1.0019,1.0019,1.0019,1.088,1.1329,1.1464,1.2266,1.2881,1.3173,1.3173,1.3173,1.3186,1.3336,1.3403,0.0,0.0,0.0,0.0,0.0,0.0,0.0,0.0,0.0,0.0,0.0,0.0,0.0,0.0,0.0,0.0,0.0,0.0,0.0,0.0,0.0,0.0,0.0,0.0,0.0,0.0,0.0,0.0,0.0,0.0,0.0,0.0,0.0,0.0,0.0,0.0,0.0,0.0,0.0,0.0,0.0,0.0,0.0,0.0,0.0,0.0,0.0,0.0,0.0,0.0,0.0,0.0,0.0,0.0,0.0,0.0,0.0,0.0073,0.0511,0.2404,0.4802,0.5165,0.7123,0.9302,0.9302,0.9302,0.9302,0.9302,0.9302,0.9302,0.9302,0.9302,0.9302,0.9302,0.9492,0.9737,0.997,1.0161,1.0356,1.0596,1.0693,1.071,1.0623,1.0481,1.0356,1.0264,1.0123,1.0019,1.0019,1.0019,1.0019,1.0019,1.0019,1.0019,1.0019,1.0019,1.0019,1.0019,1.0019,1.0019,1.0019,1.0968,1.1427,1.147,1.2542,1.3091,1.3173,1.3173,1.3227,1.3342,1.3383,1.3403,0.0,0.0,0.0,0.0,0.0,0.0,0.0,0.0,0.0,0.0,0.0,0.0,0.0,0.0,0.0,0.0,0.0,0.0,0.0,0.0,0.0,0.0,0.0,0.0,0.0,0.0,0.0,0.0,0.0,0.0,0.0,0.0,0.0,0.0,0.0,0.0,0.0,0.0,0.0,0.0,0.0,0.0,0.0,0.0,0.0,0.0,0.0,0.0,0.0,0.0,0.0,0.0,0.0,0.0,0.0,0.0,0.0,0.0219,0.1531,0.313,0.4947,0.6181,0.7851,0.9302,0.9302,0.9302,0.9302,0.9302,0.9302,0.9302,0.9302,0.9302,0.9329,0.9432,0.9639,0.9883,1.0123,1.0362,1.0574,1.071,1.0737,1.0699,1.0574,1.046,1.0346,1.0221,1.0101,1.0019,1.0019,1.0019,1.0019,1.0019,1.0019,1.0019,1.0019,1.0019,1.0019,1.0019,1.0019,1.0119,1.0409,1.1112,1.1677,1.1955,1.2761,1.3207,1.3268,1.3268,1.3315,1.3403,1.3403,1.3403,0.0,0.0,0.0,0.0,0.0,0.0,0.0,0.0,0.0,0.0,0.0,0.0,0.0,0.0,0.0,0.0,0.0,0.0,0.0,0.0,0.0,0.0,0.0,0.0,0.0,0.0,0.0,0.0,0.0,0.0,0.0,0.0,0.0,0.0,0.0,0.0,0.0,0.0,0.0,0.0,0.0,0.0,0.0,0.0,0.0,0.0,0.0,0.0,0.0,0.0,0.0,0.0,0.0,0.0,0.0,0.0,0.0074,0.0658,0.3496,0.4657,0.5383,0.814,0.9157,0.9302,0.9302,0.9302,0.9302,0.9302,0.9302,0.9302,0.9302,0.9302,0.9367,0.9612,0.9851,1.009,1.0335,1.0574,1.0737,1.0737,1.0737,1.0693,1.0558,1.0454,1.034,1.0204,1.009,1.0019,1.0019,1.0019,1.0019,1.0019,1.0019,1.0019,1.0019,1.0019,1.0019,1.0019,1.003,1.0247,1.0832,1.1257,1.1863,1.2514,1.2942,1.3268,1.3403,1.3403,1.3403,1.3403,1.3403,1.3403,0.0,0.0,0.0,0.0,0.0,0.0,0.0,0.0,0.0,0.0,0.0,0.0,0.0,0.0,0.0,0.0,0.0,0.0,0.0,0.0,0.0,0.0,0.0,0.0,0.0,0.0,0.0,0.0,0.0,0.0,0.0,0.0,0.0,0.0,0.0,0.0,0.0,0.0,0.0,0.0,0.0,0.0,0.0,0.0,0.0,0.0,0.0,0.0,0.0,0.0,0.0,0.0,0.0,0.0,0.0,0.0,0.0816,0.192,0.2557,0.4436,0.6616,0.7268,0.8285,0.9302,0.9302,0.9302,0.9302,0.9302,0.9302,0.9302,0.9302,0.9302,0.9367,0.9612,0.9851,1.009,1.0335,1.0574,1.0737,1.0737,1.0737,1.0672,1.0454,1.04,1.0313,1.009,1.0036,1.0019,1.0019,1.0019,1.0019,1.0019,1.0019,1.0019,1.0019,1.0019,1.0019,1.0019,1.0112,1.0177,1.0363,1.1269,1.1893,1.2024,1.2883,1.337,1.3403,1.3403,1.3403,1.3403,1.3403,1.3403,0.0,0.0,0.0,0.0,0.0,0.0,0.0,0.0,0.0,0.0,0.0,0.0,0.0,0.0,0.0,0.0,0.0,0.0,0.0,0.0,0.0,0.0,0.0,0.0,0.0,0.0,0.0,0.0,0.0,0.0,0.0,0.0,0.0,0.0,0.0,0.0,0.0,0.0,0.0,0.0,0.0,0.0,0.0,0.0,0.0,0.0,0.0,0.0,0.0,0.0,0.0,0.0,0.0,0.0,0.0077,0.0831,0.1642,0.2517,0.4092,0.567,0.7123,0.7923,0.8646,0.9302,0.9302,0.9302,0.9302,0.9302,0.9302,0.9302,0.9302,0.9394,0.9546,0.9786,1.003,1.0269,1.0509,1.0655,1.0737,1.0737,1.0737,1.0661,1.0427,1.0384,1.0302,1.0057,1.0019,1.0019,1.0019,1.0019,1.0019,1.0019,1.0019,1.0019,1.0019,1.0019,1.0047,1.0106,1.0172,1.0412,1.1016,1.1631,1.2143,1.2624,1.3115,1.3403,1.3403,1.3403,1.3403,1.3403,1.3403,1.3403,0.0,0.0,0.0,0.0,0.0,0.0,0.0,0.0,0.0,0.0,0.0,0.0,0.0,0.0,0.0,0.0,0.0,0.0,0.0,0.0,0.0,0.0,0.0,0.0,0.0,0.0,0.0,0.0,0.0,0.0,0.0,0.0,0.0,0.0,0.0,0.0,0.0,0.0,0.0,0.0,0.0,0.0,0.0,0.0,0.0,0.0,0.0,0.0,0.0,0.0,0.0,0.0,0.0,0.0,0.0155,0.1754,0.2484,0.3194,0.6009,0.7212,0.7634,0.8868,0.9302,0.9302,0.9302,0.9302,0.9302,0.9302,0.9302,0.9313,0.9362,0.9525,0.9742,1.0025,1.0242,1.0449,1.0688,1.0737,1.0737,1.0737,1.0715,1.0634,1.0422,1.0384,1.0302,1.0057,1.0019,1.0019,1.0019,1.0019,1.0019,1.0019,1.0019,1.0019,1.0019,1.0041,1.0095,1.0199,1.0248,1.0758,1.1691,1.1973,1.2453,1.3397,1.3403,1.3403,1.3403,1.3403,1.3403,1.3403,1.3403,1.3403,0.0,0.0,0.0,0.0,0.0,0.0,0.0,0.0,0.0,0.0,0.0,0.0,0.0,0.0,0.0,0.0,0.0,0.0,0.0,0.0,0.0,0.0,0.0,0.0,0.0,0.0,0.0,0.0,0.0,0.0,0.0,0.0,0.0,0.0,0.0,0.0,0.0,0.0,0.0,0.0,0.0,0.0,0.0,0.0,0.0,0.0,0.0,0.0,0.0,0.0,0.0,0.0,0.0,0.0,0.0235,0.1854,0.3279,0.4662,0.6537,0.8002,0.9085,0.923,0.9302,0.9302,0.9302,0.9302,0.9302,0.9302,0.9302,0.9356,0.9574,0.965,0.9786,1.0237,1.0367,1.0449,1.0688,1.0737,1.0737,1.0737,1.065,1.0536,1.0411,1.0384,1.0302,1.0057,1.0019,1.0019,1.0019,1.0019,1.0019,1.0019,1.0019,1.0019,1.0019,1.0123,1.0188,1.0204,1.04,1.077,1.1289,1.2148,1.2886,1.3403,1.3403,1.3403,1.3403,1.3403,1.3403,1.3403,1.3403,1.3403,0.0,0.0,0.0,0.0,0.0,0.0,0.0,0.0,0.0,0.0,0.0,0.0,0.0,0.0,0.0,0.0,0.0,0.0,0.0,0.0,0.0,0.0,0.0,0.0,0.0,0.0,0.0,0.0,0.0,0.0,0.0,0.0,0.0,0.0,0.0,0.0,0.0,0.0,0.0,0.0,0.0,0.0,0.0,0.0,0.0,0.0,0.0,0.0,0.0,0.0,0.0,0.0,0.0,0.0628,0.1645,0.3247,0.4807,0.6402,0.7961,0.8894,0.9302,0.9302,0.9302,0.9302,0.9302,0.9302,0.9302,0.9302,0.9302,0.9362,0.9606,0.9769,0.996,1.0302,1.0492,1.0617,1.0715,1.0737,1.0737,1.0737,1.0639,1.0601,1.0405,1.0329,0.9903,0.871,0.9392,0.963,0.8691,0.9392,1.0019,1.0019,1.0019,1.0047,1.0123,1.0172,1.0264,1.04,1.106,1.157,1.1735,1.2618,1.3231,1.3403,1.3403,1.3403,1.3403,1.3403,1.3403,1.3403,1.3403,1.3403,0.0,0.0,0.0,0.0,0.0,0.0,0.0,0.0,0.0,0.0,0.0,0.0,0.0,0.0,0.0,0.0,0.0,0.0,0.0,0.0,0.0,0.0,0.0,0.0,0.0,0.0,0.0,0.0,0.0,0.0,0.0,0.0,0.0,0.0,0.0,0.0,0.0,0.0,0.0,0.0,0.0,0.0,0.0,0.0,0.0,0.0,0.0,0.0,0.0,0.0,0.0,0.0,0.0,0.1334,0.3286,0.442,0.5813,0.7461,0.9043,0.9432,0.9302,0.9302,0.9302,0.9302,0.9302,0.9302,0.9302,0.9302,0.9351,0.9459,0.9704,0.9943,1.0182,1.0427,1.0612,1.0737,1.0737,1.0737,1.0737,1.0737,1.0612,1.0481,1.04,1.0286,0.9603,0.7764,0.853,0.8686,0.7045,0.7907,0.8769,0.9236,0.9344,0.963,1.0114,1.0264,1.047,1.0837,1.16,1.2152,1.2235,1.2982,1.3403,1.3403,1.3403,1.3403,1.3403,1.3403,1.3403,1.3403,1.3403,1.3403,0.0,0.0,0.0,0.0,0.0,0.0,0.0,0.0,0.0,0.0,0.0,0.0,0.0,0.0,0.0,0.0,0.0,0.0,0.0,0.0,0.0,0.0,0.0,0.0,0.0,0.0,0.0,0.0,0.0,0.0,0.0,0.0,0.0,0.0,0.0,0.0,0.0,0.0,0.0,0.0,0.0,0.0,0.0,0.0,0.0,0.0,0.0,0.0,0.0,0.0,0.0,0.0,0.0,0.2039,0.4936,0.5011,0.5935,0.7469,0.913,0.9508,0.9302,0.9302,0.9302,0.9302,0.9302,0.9302,0.9302,0.9302,0.9476,0.9709,0.9949,1.0188,1.0433,1.0672,1.0732,1.0737,1.0737,1.0737,1.0737,1.0737,1.0552,1.0389,1.0384,1.0286,0.9603,0.7764,0.7517,0.6967,0.5327,0.5092,0.5796,0.7435,0.7673,0.8445,1.0046,1.0411,1.0842,1.1303,1.1819,1.2235,1.265,1.3148,1.3403,1.3403,1.3403,1.3403,1.3403,1.3403,1.3403,1.3403,1.3403,1.3403,0.0,0.0,0.0,0.0,0.0,0.0,0.0,0.0,0.0,0.0,0.0,0.0,0.0,0.0,0.0,0.0,0.0,0.0,0.0,0.0,0.0,0.0,0.0,0.0,0.0,0.0,0.0,0.0,0.0,0.0,0.0,0.0,0.0,0.0,0.0,0.0,0.0,0.0,0.0,0.0,0.0,0.0,0.0,0.0,0.0,0.0,0.0,0.0,0.0,0.0,0.0,0.0,0.0,0.2039,0.5014,0.5014,0.6663,0.899,0.9452,0.9443,0.9302,0.9302,0.9302,0.9302,0.9302,0.9362,0.9443,0.9525,0.9661,0.9856,1.0177,1.0324,1.0443,1.0683,1.0737,1.0737,1.0737,1.0737,1.0737,1.0737,1.0547,1.0384,1.0384,1.0215,0.9125,0.6268,0.6811,0.6495,0.3681,0.431,0.5184,0.578,0.6918,0.7941,0.863,0.9922,1.0776,1.0898,1.1653,1.2152,1.2318,1.2982,1.3403,1.3403,1.3403,1.3403,1.3403,1.3403,1.3403,1.3403,1.3403,1.3403,0.0,0.0,0.0,0.0,0.0,0.0,0.0,0.0,0.0,0.0,0.0,0.0,0.0,0.0,0.0,0.0,0.0,0.0,0.0,0.0,0.0,0.0,0.0,0.0,0.0,0.0,0.0,0.0,0.0,0.0,0.0,0.0,0.0,0.0,0.0,0.0,0.0,0.0,0.0,0.0,0.0,0.0,0.0,0.0,0.0,0.0,0.0,0.0,0.0,0.0,0.0,0.0079,0.0628,0.2587,0.5014,0.5014,0.7049,0.9748,0.9552,0.9405,0.9302,0.9302,0.9334,0.9367,0.9367,0.9481,0.9601,0.9552,0.9775,1.0057,1.0166,1.0351,1.0547,1.0699,1.0737,1.0737,1.0737,1.0737,1.0726,1.0683,1.0514,1.0373,1.0329,1.0155,0.908,0.6342,0.6264,0.5636,0.282,0.2911,0.348,0.4064,0.5783,0.7398,0.8779,1.0024,1.082,1.1153,1.1736,1.2235,1.2567,1.3072,1.3403,1.3403,1.3403,1.3403,1.3403,1.3403,1.3403,1.3403,1.3403,1.3403]}]]